     2.11           OBSERVATION DATA    G (GPS)             RINEX VERSION / TYPE
teqc 2010Oct21 OPUS Account 20111028 19:55:48UTC            PGM / RUN BY / DATE
T 1527                                                      MARKER NAME
3078                                                        MARKER NUMBER
CSMIDDLETON NGS                                             OBSERVER / AGENCY
0220284361 TRIMBLE 5700 NP 1.22 / SP 1.22                   REC # / TYPE / VERS
12234991 TRM41249.00 NONE                                   ANT # / TYPE
  -709863.7460 -5594607.9866  2969415.4899                  APPROX POSITION XYZ
        2.0000        0.0000        0.0000                  ANTENNA: DELTA H/E/N
     1     1                                                WAVELENGTH FACT L1/2
     5    L1    L2    C1    P1    P2                        # / TYPES OF OBSERV
    15                                                      LEAP SECONDS
  2011     8    26     0     0   30.0000000     GPS         TIME OF FIRST OBS
                                                            END OF HEADER
 11  8 26  0  0 30.0000000  0  9G17G10G09G12G05G04G25G02G30
 -32640759.14857 -25418273.99454  23328366.8204                   23328367.5274
 -30033186.39858 -23388380.80356  20949676.4614                   20949675.3794
 -14258292.55157 -11094722.81854  23877887.2504                   23877891.9304
 -23697288.97758 -18450226.41656  21470003.6804                   21470001.9384
 -20124581.79757 -15665759.06756  21868643.0784                   21868642.9454
 -32251883.76658 -25114377.28055  21919742.0314                   21919741.9064
  -4504617.85257  -3494542.91454  24106774.3054                   24106777.0864
 -33509816.49258 -26099226.58556  20730279.8204                   20730276.1334
  -1863269.83657  -1435997.26053  24187770.1254                   24187770.2344
 11  8 26  0  1  0.0000000  0  9G17G10G09G12G05G04G25G02G30
 -32619927.36347 -25402041.46044  23332330.3834                   23332331.0944
 -30057564.13748 -23407376.41346  20945037.7034                   20945036.6884
 -14211977.21947 -11058633.13444  23886700.7344                   23886704.7934
 -23786730.64547 -18519921.17146  21452983.4694                   21452982.2274
 -20242993.65247 -15758027.94246  21846110.1174                   21846110.1024
 -32206481.19548 -25078998.65345  21928381.9224                   21928381.4494
  -4634813.41447  -3595993.89144  24081999.3914                   24082001.0434
 -33539622.35547 -26122451.91447  20724607.7584                   20724604.0394
  -1995961.91046  -1539393.64743  24162520.2584                   24162519.6254
 11  8 26  0  1 30.0000000  0  9G17G10G09G12G05G04G25G02G30
 -32598929.87147 -25385679.79744  23336325.8284                   23336326.9414
 -30081309.32848 -23425879.13046  20940519.0164                   20940517.9924
 -14165524.96547 -11022436.74444  23895539.8444                   23895545.2854
 -23875725.69947 -18589267.91546  21436048.3054                   21436046.5704
 -20361068.65647 -15850034.34646  21823641.0554                   21823640.8874
 -32160964.31248 -25043530.97245  21937043.3914                   21937042.9264
  -4764813.78547  -3697292.84944  24057261.0474                   24057263.0944
 -33569155.14847 -26145464.46447  20718987.7974                   20718984.2734
  -2128413.80146  -1642602.86743  24137315.2344                   24137315.0434
 11  8 26  0  2  0.0000000  0  9G17G10G09G12G05G04G25G02G30
 -32577765.64147 -25369188.25644  23340353.5314                   23340354.4144
 -30104421.76248 -23443888.78446  20936120.9064                   20936119.8284
 -14118938.40647 -10986135.69444  23904405.9304                   23904410.0434
 -23964271.02047 -18658264.21046  21419198.7344                   21419197.0434
 -20478803.10547 -15941775.38446  21801237.1644                   21801236.6174
 -32115334.21548 -25007975.05545  21945726.7114                   21945725.7344
  -4894615.45747  -3798436.98344  24032560.3914                   24032562.5354
 -33598415.30148 -26168264.57147  20713419.6024                   20713416.3244
  -2260621.83246  -1745622.04243  24112157.3524                   24112156.4264
 11  8 26  0  2 30.0000000  0  9G17G10G09G12G05G04G25G02G30
 -32556437.48847 -25352568.91744  23344412.3834                   23344413.4264
 -30126905.48848 -23461408.54346  20931842.1334                   20931841.1294
 -14072224.85547 -10949735.68744  23913295.5164                   23913299.4534
 -24052368.11347 -18726911.25246  21402434.2114                   21402432.2274
 -20596198.06247 -16033251.87146  21778897.3594                   21778897.0784
 -32069596.70748 -24972335.44645  21954430.4454                   21954429.8754
  -5024219.52747  -3899427.07744  24007897.7974                   24007899.4884
 -33627407.53147 -26190855.90147  20707902.5234                   20707899.0124
  -2392586.96546  -1848452.07243  24087044.7274                   24087044.2304
 11  8 26  0  3  0.0000000  0  9G17G10G09G12G05G04G25G02G30
 -32534944.26247 -25335821.00344  23348502.4304                   23348503.2034
 -30148759.64148 -23478437.71946  20927683.7814                   20927682.4844
 -14025386.79746 -10913238.67944  23922208.8054                   23922212.5204
 -24140013.79347 -18795206.53946  21385756.0554                   21385754.0314
 -20713249.88747 -16124460.98546  21756623.1884                   21756622.9024
 -32023752.68747 -24936612.85745  21963154.0784                   21963153.8554
  -5153622.62947  -4000260.55944  23983272.8134                   23983275.1764
 -33656132.60547 -26213239.06447  20702436.2664                   20702432.8164
  -2524305.53946  -1951089.86043  24061979.7424                   24061978.9734
 11  8 26  0  3 30.0000000  0  9G17G10G09G12G05G04G25G02G30
 -32513284.93747 -25318943.65144  23352624.5554                   23352624.5274
 -30169984.19148 -23494976.29346  20923644.8524                   20923643.2894
 -13978427.04746 -10876646.82744  23931144.6024                   23931149.3284
 -24227205.88747 -18863148.38246  21369163.6024                   21369161.8594
 -20829955.32047 -16215400.18346  21734414.8204                   21734414.3714
 -31977803.89547 -24900808.60345  21971897.4924                   21971897.6094
  -5282821.85947  -4100935.21344  23958687.0394                   23958689.1844
 -33684590.93748 -26235414.37246  20697020.7424                   20697017.2234
  -2655774.35246  -2053533.04943  24036961.9844                   24036961.4534
 11  8 26  0  4  0.0000000  0  9G17G10G09G12G05G04G25G02G30
 -32491461.03947 -25301938.06744  23356777.4304                   23356778.1294
 -30190581.25848 -23511025.92146  20919725.4304                   20919723.8014
 -13931351.16447 -10839964.49044  23940103.3984                   23940107.2154
 -24313944.32448 -18930736.73746  21352657.8524                   21352655.7344
 -20946313.88747 -16306069.09946  21712272.3594                   21712272.0274
 -31931754.25848 -24864925.79645  21980661.1724                   21980660.0784
  -5411816.64547  -4201450.53044  23934139.9144                   23934142.2624
 -33712786.56648 -26257384.98046  20691655.3364                   20691651.9384
  -2786992.86746  -2155781.21343  24011991.8594                   24011991.3834
 11  8 26  0  4 30.0000000  0  9G17G10G09G12G05G04G25G02G30
 -32469468.79747 -25284801.29244  23360962.1414                   23360962.8204
 -30210548.06648 -23526584.43046  20915925.6954                   20915924.4104
 -13884159.03147 -10803191.59044  23949083.6414                   23949087.7854
 -24400223.35548 -18997967.12146  21336239.3754                   21336237.6294
 -21062319.51247 -16396463.00546  21690197.0864                   21690196.3674
 -31885602.06648 -24828963.07845  21989443.2894                   21989442.2814
  -5540600.85247  -4301801.76344  23909633.0864                   23909635.3364
 -33740716.58247 -26279148.62247  20686340.5314                   20686336.9654
  -2917954.73446  -2257829.36343  23987070.6564                   23987070.2464
 11  8 26  0  5  0.0000000  0  9G17G10G09G12G05G04G25G02G30
 -32447311.34447 -25267535.80544  23365178.6174                   23365179.4804
 -30229888.41448 -23541654.80346  20912245.2034                   20912244.1414
 -13836857.84446 -10766333.66743  23958084.7504                   23958089.0554
 -24486044.06647 -19064840.36646  21319908.3674                   21319906.5004
 -21177973.01648 -16486582.53146  21668188.9534                   21668188.1414
 -31839353.07447 -24792924.92845  21998244.3134                   21998243.4494
  -5669175.57847  -4401989.79444  23885166.0864                   23885168.4224
 -33768385.85547 -26300709.08447  20681074.9774                   20681071.7114
  -3048660.80947  -2359678.17943  23962197.3914                   23962197.8674
 11  8 26  0  5 30.0000000  0  9G17G10G09G12G05G04G25G02G30
 -32424986.53947 -25250139.90444  23369426.5314                   23369427.9384
 -30248601.07848 -23556236.06546  20908684.2664                   20908683.4344
 -13789449.29747 -10729392.15444  23967106.8754                   23967111.4344
 -24571403.24248 -19131353.99246  21303665.2344                   21303663.3204
 -21293269.94948 -16576424.21146  21646248.6954                   21646248.3244
 -31793007.14148 -24756811.22745  22007063.3754                   22007063.2344
  -5797536.49247  -4502011.22544  23860739.6484                   23860742.6174
 -33795794.06248 -26322066.11947  20675859.5634                   20675856.2234
  -3179106.54346  -2461324.14044  23937374.9224                   23937374.7894
 11  8 26  0  6  0.0000000  0  9G17G10G09G12G05G04G25G02G30
 -32402491.93047 -25232611.69944  23373707.5864                   23373708.3164
 -30266684.57048 -23570327.07346  20905243.1724                   20905241.9534
 -13741935.19946 -10692368.37844  23976148.5554                   23976152.9304
 -24656297.28948 -19197505.17846  21287509.8674                   21287508.3484
 -21408206.20748 -16665984.84846  21624376.9384                   21624376.6024
 -31746564.64147 -24720622.29645  22015901.1484                   22015901.3244
  -5925679.33247  -4601862.73445  23836354.9614                   23836357.1604
 -33822940.92248 -26343219.51547  20670693.7664                   20670690.1334
  -3309287.59847  -2562763.83543  23912602.1334                   23912602.3204
 11  8 26  0  6 30.0000000  0  9G17G10G09G12G05G04G25G02G30
 -32379825.18747 -25214949.34344  23378020.6804                   23378021.9104
 -30284137.54748 -23583926.77946  20901921.7504                   20901920.4774
 -13694316.87147 -10655263.36844  23985209.8594                   23985214.1214
 -24740722.05148 -19263290.68246  21271444.7734                   21271443.1254
 -21522777.03548 -16755260.72346  21602574.6804                   21602574.2974
 -31700025.65647 -24684358.17445  22024757.2814                   22024757.1414
  -6053599.69147  -4701540.89644  23812012.4304                   23812014.6134
 -33849825.85948 -26364168.79947  20665577.6804                   20665574.2584
  -3439199.25847  -2663993.65044  23887881.2504                   23887880.7194
 11  8 26  0  7  0.0000000  0  9G17G10G09G12G05G04G25G02G30
 -32356987.03947 -25197153.44244  23382366.5704                   23382367.5204
 -30300961.89848 -23597036.63746  20898720.5084                   20898718.9694
 -13646598.59447 -10618080.40044  23994290.4384                   23994294.6414
 -24824676.37948 -19328709.62546  21255468.6174                   21255466.8634
 -21636980.80148 -16844250.59146  21580842.4774                   21580841.9774
 -31653392.73047 -24648020.88445  22033631.2814                   22033630.8284
  -6181295.94947  -4801044.43144  23787712.6884                   23787714.8404
 -33876451.01648 -26384915.65947  20660510.9224                   20660507.7734
  -3568839.86746  -2765012.19044  23863211.4224                   23863210.8484
 11  8 26  0  7 30.0000000  0  9G17G10G09G12G05G04G25G02G30
 -32333980.77747 -25179226.55644  23386745.1254                   23386744.9734
 -30317161.19148 -23609659.43946  20895637.5634                   20895635.9534
 -13598787.15646 -10580824.95944  24003388.9454                   24003393.3754
 -24908161.35548 -19393762.84746  21239581.8364                   21239580.2934
 -21750818.43048 -16932955.15346  21559179.6094                   21559179.2734
 -31606671.11747 -24611614.45145  22042522.2974                   22042521.8444
  -6308768.62147  -4900373.75644  23763455.5474                   23763457.7894
 -33902820.71548 -26405463.47746  20655493.3674                   20655489.3284
  -3698209.82846  -2865819.87444  23838592.4144                   23838593.1524
 11  8 26  0  8  0.0000000  0  9G17G10G09G12G05G04G25G02G30
 -32310802.11747 -25161165.30444  23391155.2344                   23391156.3674
 -30332732.93748 -23621793.23846  20892674.2814                   20892673.0944
 -13550882.91847 -10543497.16644  24012505.4844                   24012509.1334
 -24991171.69548 -19458446.21346  21223785.5314                   21223784.0984
 -21864283.96548 -17021369.76946  21537587.8834                   21537587.4694
 -31559859.50847 -24575137.93145  22051430.1954                   22051430.3794
  -6436012.05947  -4999524.45244  23739241.6334                   23739244.0664
 -33928933.46148 -26425811.04946  20650524.1954                   20650520.3404
  -3827303.28946  -2966412.07343  23814026.4384                   23814027.0394
 11  8 26  0  8 30.0000000  0  9G17G10G09G12G05G04G25G02G30
 -32287453.82447 -25142971.88444  23395598.8204                   23395599.5744
 -30347680.48448 -23633440.66246  20889830.0394                   20889828.6994
 -13502892.37547 -10506102.12443  24021637.3524                   24021642.1294
 -25073708.75848 -19522760.79746  21208079.0944                   21208077.4384
 -21977377.57848 -17109494.57646  21516066.7504                   21516066.2734
 -31512963.02047 -24538595.24845  22060354.2034                   22060354.3324
  -6563026.80547  -5098496.95044  23715071.2194                   23715073.6764
 -33954793.25448 -26445961.53147  20645602.7814                   20645599.3834
  -3956120.58246  -3066789.09643  23789514.0554                   23789513.4734
 11  8 26  0  9  0.0000000  0  9G17G10G09G12G05G04G25G02G30
 -32263935.10947 -25124645.64644  23400074.5314                   23400075.5434
 -30362004.34848 -23644602.09146  20887103.8754                   20887102.8244
 -13454818.25846 -10468641.94943  24030785.3674                   24030789.5634
 -25155770.21147 -19586704.78346  21192463.3524                   21192461.6024
 -22090096.68747 -17197327.57246  21494617.0004                   21494616.3634
 -31465982.82447 -24501987.36045  22069294.4924                   22069293.9454
  -6689809.69547  -5197288.76444  23690945.3594                   23690947.5514
 -33980401.23848 -26465915.77947  20640729.9844                   20640726.4414
  -4084658.50846  -3166948.42343  23765053.7034                   23765053.2304
 11  8 26  0  9 30.0000000  0  9G17G10G09G12G05G04G25G02G30
 -32240242.98447 -25106184.28144  23404582.3834                   23404583.8284
 -30375702.15248 -23655275.68746  20884497.3364                   20884496.0234
 -13406661.27346 -10431117.25044  24039949.8204                   24039955.6524
 -25237351.28148 -19650274.43846  21176939.3204                   21176937.2384
 -22202435.90648 -17284864.55446  21473239.4844                   21473238.8524
 -31418918.15247 -24465313.62645  22078250.3914                   22078249.7464
  -6816355.51647  -5295895.82244  23666864.8444                   23666866.9224
 -34005755.98048 -26485672.70746  20635905.4694                   20635901.4614
  -4212911.66846  -3266885.89843  23740647.3674                   23740647.5864
 11  8 26  0 10  0.0000000  0  9G17G10G09G12G05G04G25G02G30
 -32216378.37147 -25087588.51944  23409124.6724                   23409124.9574
 -30388776.12548 -23665463.18146  20882009.6414                   20882008.2774
 -13358426.18746 -10393531.69544  24049128.5474                   24049133.9844
 -25318451.30948 -19713469.24846  21161506.6564                   21161504.8324
 -22314394.14548 -17372104.65746  21451934.4384                   21451934.0984
 -31371772.18747 -24428576.54945  22087221.5784                   22087221.5274
  -6942663.05947  -5394317.21244  23642829.3204                   23642831.0044
 -34030859.95748 -26505234.22946  20631128.2344                   20631124.4384
  -4340878.65646  -3366600.37343  23716296.4064                   23716295.7114
 11  8 26  0 10 30.0000000  0  9G17G10G09G12G05G04G25G02G30
 -32192343.57847 -25068860.15344  23413697.9844                   23413698.6914
 -30401229.83648 -23675167.35746  20879639.6414                   20879638.5664
 -13310119.36746 -10355890.18943  24058320.8134                   24058326.2584
 -25399071.55948 -19776290.20046  21146164.7034                   21146163.3364
 -22425971.60248 -17459048.06446  21430702.0314                   21430701.2344
 -31324549.50847 -24391779.71045  22096208.4454                   22096207.9184
  -7068732.51647  -5492553.08544  23618839.0864                   23618841.0004
 -34055717.57848 -26524603.77746  20626397.6174                   20626393.7624
  -4468559.60246  -3466091.97843  23691998.8834                   23691999.1254
 11  8 26  0 11  0.0000000  0  9G17G10G09G12G05G04G25G02G30
 -32168133.01647 -25049994.80044  23418304.4614                   23418305.5704
 -30413058.84848 -23684384.75646  20877388.7734                   20877387.4384
 -13261738.63746 -10318191.15144  24067527.9224                   24067533.7194
 -25479204.09048 -19838731.11046  21130916.2814                   21130914.1254
 -22537160.07847 -17545688.36746  21409543.9304                   21409542.9734
 -31277246.68047 -24354920.40745  22105209.9304                   22105209.4414
  -7194556.06647  -5590597.30944  23594895.4924                   23594897.0984
 -34080324.57848 -26543778.03647  20621715.2584                   20621711.3134
  -4595946.43446  -3565354.40943  23667758.4064                   23667757.8634
 11  8 26  0 11 30.0000000  0  9G17G10G09G12G05G04G25G02G30
 -32143747.71147 -25030993.31144  23422945.1564                   23422946.0354
 -30424265.41448 -23693117.11646  20875256.0004                   20875255.0124
 -13213288.99646 -10280438.41344  24076748.0784                   24076752.7464
 -25558849.27347 -19900792.28446  21115760.0554                   21115758.0784
 -22647959.06247 -17632025.18246  21388459.1954                   21388458.2234
 -31229866.88747 -24318001.12945  22114225.7504                   22114225.2584
  -7320132.64147  -5688449.09444  23570998.7894                   23571000.5904
 -34104683.85248 -26562759.27547  20617079.6564                   20617076.1914
  -4723037.98046  -3664386.74043  23643573.9224                   23643573.7424
 11  8 26  0 12  0.0000000  0  9G17G10G09G12G05G04G25G02G30
 -32119189.61347 -25011857.15644  23427618.6024                   23427619.4734
 -30434852.19948 -23701366.54646  20873241.3914                   20873240.4534
 -13164775.75846 -10242636.07244  24085980.2114                   24085985.7854
 -25638006.90248 -19962473.53646  21100697.0784                   21100695.4344
 -22758368.20747 -17718058.19946  21367449.0784                   21367448.4924
 -31182414.07847 -24281024.94645  22123256.0474                   22123255.6684
  -7445461.62947  -5786107.95844  23547149.8674                   23547151.4844
 -34128798.80948 -26581550.12446  20612490.5004                   20612486.8984
  -4849833.48846  -3763188.43643  23619444.6954                   23619445.3364
 11  8 26  0 12 30.0000000  0  9G17G10G09G12G05G04G25G02G30
 -32094456.64147 -24992584.76544  23432325.1024                   23432326.3134
 -30444819.23448 -23709133.04746  20871344.7814                   20871343.2304
 -13116201.30146 -10204786.07044  24095222.8204                   24095228.7464
 -25716674.27048 -20023772.74946  21085727.1564                   21085725.1914
 -22868383.51248 -17803784.33946  21346513.6644                   21346512.4694
 -31134888.84048 -24243992.34745  22132299.3914                   22132299.2704
  -7570539.54347  -5883571.16045  23523348.3524                   23523350.0434
 -34152669.69148 -26600150.78946  20607948.4774                   20607944.8134
  -4976329.25446  -3861756.46943  23595374.1884                   23595373.5084
 11  8 26  0 13  0.0000000  0  9G17G10G09G12G05G04G25G02G30
 -32069548.52747 -24973175.84644  23437064.7814                   23437065.8094
 -30454166.78548 -23716416.84646  20869566.1644                   20869564.9844
 -13067568.50847 -10166890.65644  24104478.3754                   24104482.7114
 -25794848.95748 -20084688.06146  21070850.5944                   21070849.2624
 -22978002.25047 -17889201.47646  21325653.9224                   21325652.9144
 -31087292.35247 -24206904.22145  22141357.4614                   22141356.8134
  -7695363.13347  -5980836.17845  23499594.9454                   23499596.9924
 -34176297.07048 -26618561.70947  20603452.0004                   20603448.5594
  -5102521.86346  -3960088.37343  23571360.5554                   23571359.9654
 11  8 26  0 13 30.0000000  0  9G17G10G09G12G05G04G25G02G30
 -32044465.94147 -24953631.02844  23441838.2504                   23441839.1644
 -30462897.16448 -23723219.72546  20867904.5164                   20867903.3164
 -13018882.22747 -10128953.47944  24113743.3444                   24113748.2504
 -25872530.23048 -20145218.88446  21056068.5394                   21056066.6294
 -23087223.05948 -17974308.54846  21304869.8984                   21304868.8054
 -31039628.03547 -24169763.23445  22150426.9614                   22150426.8284
  -7819931.17647  -6077902.08845  23475890.1254                   23475892.1644
 -34199683.69548 -26636785.02947  20599001.8284                   20598998.1724
  -5228410.09446  -4058183.04244  23547404.5084                   23547404.6844
 11  8 26  0 14  0.0000000  0  9G17G10G09G12G05G04G25G02G30
 -32019210.14847 -24933951.20544  23446644.5634                   23446645.0354
 -30471012.86348 -23729543.62746  20866360.4774                   20866358.9184
 -12970146.89547 -10090978.13044  24123017.0084                   24123022.5864
 -25949717.42648 -20205364.73846  21041380.1564                   21041378.4924
 -23196044.84448 -18059104.66846  21284161.4224                   21284161.1524
 -30991898.88347 -24132571.71045  22159509.6564                   22159509.5044
  -7944242.61347  -6174768.00545  23452234.3674                   23452236.3404
 -34222832.28548 -26654822.86446  20594596.7504                   20594592.9774
  -5353992.62546  -4156039.47744  23523506.9774                   23523506.5474
 11  8 26  0 14 30.0000000  0  9G17G10G09G12G05G04G25G02G30
 -31993775.68047 -24914132.17044  23451483.8204                   23451485.7074
 -30478509.19148 -23735384.90546  20864933.7194                   20864932.5824
 -12921360.82446 -10052963.21544  24132301.3284                   24132306.7194
 -26026404.12148 -20265120.57546  21026787.4924                   21026785.5164
 -23304460.46948 -18143584.31346  21263530.6024                   21263529.8054
 -30944101.30547 -24095326.89245  22168605.5314                   22168605.0664
  -8068289.64847  -6271427.94345  23428628.9144                   23428631.0004
 -34245739.10248 -26672672.30747  20590237.4774                   20590234.0314
  -5479261.48446  -4253651.52543  23499669.0234                   23499668.3364
 11  8 26  0 15  0.0000000  0  9G17G10G09G12G05G04G25G02G30
 -31968160.66846 -24894172.46044  23456358.3204                   23456359.5004
 -30485385.67248 -23740743.19146  20863625.1724                   20863623.9694
 -12872525.77746 -10014910.13544  24141594.3984                   24141599.3204
 -26102587.19948 -20324483.99046  21012290.1884                   21012288.0984
 -23412465.89548 -18227744.31246  21242977.7894                   21242977.1844
 -30896235.87547 -24058029.16545  22177714.0084                   22177713.8674
  -8192068.29347  -6367878.71545  23405074.7114                   23405076.8014
 -34268404.16048 -26690333.37047  20585924.6254                   20585920.9414
  -5604212.64146  -4351016.01944  23475891.8134                   23475891.2194
 11  8 26  0 15 30.0000000  0  9G17G10G09G12G05G04G25G02G30
 -31942367.02746 -24874073.54144  23461266.8914                   23461268.1454
 -30491645.73848 -23745621.14946  20862434.0234                   20862432.8404
 -12823647.50447  -9976823.38044  24150896.0234                   24150901.2734
 -26178267.04348 -20383455.28146  20997888.8054                   20997886.7194
 -23520060.77048 -18311584.40946  21222503.0554                   21222502.4774
 -30848306.53547 -24020681.65645  22186834.6254                   22186834.6054
  -8315578.29747  -6464120.22245  23381571.6644                   23381573.3284
 -34290830.82448 -26707808.65347  20581656.8674                   20581652.8284
  -5728845.69947  -4448132.60544  23452174.8284                   23452174.4024
 11  8 26  0 16  0.0000000  0  9G17G10G09G12G05G04G25G02G30
 -31916393.14546 -24853834.20144  23466209.7814                   23466210.9804
 -30497289.45748 -23750018.83446  20861359.9064                   20861358.9024
 -12774727.83247  -9938704.34643  24160205.4384                   24160209.4574
 -26253440.58648 -20442032.05946  20983583.7114                   20983581.3164
 -23627241.56248 -18395101.83646  21202107.2664                   21202106.8094
 -30800313.52747 -23983284.52645  22195967.4924                   22195967.0784
  -8438815.59847  -6560149.21145  23358119.8674                   23358122.1994
 -34313019.07848 -26725098.18347  20577434.5864                   20577430.7894
  -5853156.46946  -4544998.04044  23428518.8054                   23428518.8554
 11  8 26  0 16 30.0000000  0  9G17G10G09G12G05G04G25G02G30
 -31890244.39546 -24833458.58444  23471185.4614                   23471186.5004
 -30502323.50048 -23753941.44846  20860402.3204                   20860400.9844
 -12725775.94547  -9900560.24743  24169520.5554                   24169525.1844
 -26328111.74648 -20500217.35746  20969374.1724                   20969372.5354
 -23734011.35548 -18478299.01146  21181789.7894                   21181789.1254
 -30752264.29747 -23945843.58845  22205110.8594                   22205110.6484
  -8561783.42246  -6655968.20145  23334719.9774                   23334721.9184
 -34334975.98848 -26742207.44146  20573256.5704                   20573252.7894
  -5977148.00846  -4641614.72744  23404924.3204                   23404923.4574
 11  8 26  0 17  0.0000000  0  9G17G10G09G12G05G04G25G02G30
 -31863917.75846 -24812944.37944  23476195.4454                   23476196.5044
 -30506746.10248 -23757387.60746  20859560.6334                   20859559.2894
 -12676792.62547  -9862391.67543  24178842.1024                   24178848.0314
 -26402275.93048 -20558007.63346  20955261.2974                   20955259.3954
 -23840365.31648 -18561172.17346  21161551.0554                   21161550.4144
 -30704157.86747 -23908358.08345  22214265.3834                   22214265.1884
  -8684476.55147  -6751573.17145  23311371.6804                   23311373.8874
 -34356700.21148 -26759135.38247  20569122.3134                   20569118.7504
  -6100815.01646  -4737978.50744  23381390.7194                   23381390.3484
 11  8 26  0 17 30.0000000  0  9G17G10G09G12G05G04G25G02G30
 -31837408.75846 -24792288.06844  23481240.7034                   23481240.3484
 -30510554.35947 -23760355.05746  20858835.9304                   20858834.6254
 -12627776.69546  -9824197.69843  24188169.3134                   24188174.5204
 -26475927.47748 -20615398.43646  20941245.7734                   20941243.8674
 -23946296.75048 -18643716.08946  21141392.8364                   21141392.3984
 -30655991.78147 -23870826.10445  22223430.8984                   22223430.5474
  -8806888.18747  -6846958.80645  23288078.3524                   23288079.8444
 -34378189.15248 -26775879.99047  20565033.2734                   20565029.4884
  -6224150.68046  -4834084.10943  23357920.6804                   23357920.2074
 11  8 26  0 18  0.0000000  0  9G17G10G09G12G05G04G25G02G30
 -31810718.66846 -24771490.61344  23486319.5554                   23486320.1684
 -30513750.94147 -23762845.88446  20858227.4384                   20858226.1334
 -12578732.97746  -9785981.98842  24197501.5864                   24197506.5664
 -26549066.26648 -20672389.68546  20927327.8364                   20927326.3054
 -24051805.06248 -18725930.27946  21121315.5554                   21121314.9844
 -30607769.19147 -23833250.06445  22232608.0314                   22232607.5164
  -8929017.28947  -6942124.28345  23264837.1414                   23264838.9144
 -34399445.30148 -26792443.19347  20560988.2114                   20560984.8984
  -6347153.65646  -4929930.52044  23334514.1484                   23334513.8634
 11  8 26  0 18 30.0000000  0  9G17G10G09G12G05G04G25G02G30
 -31783851.11346 -24750554.90244  23491432.3134                   23491432.5124
 -30516340.78547 -23764863.93246  20857734.5944                   20857733.8244
 -12529668.68446  -9747750.25543  24206838.4844                   24206844.0234
 -26621694.44548 -20728983.07046  20913507.1484                   20913505.6764
 -24156891.37548 -18807815.65346  21101318.1414                   21101317.4694
 -30559495.47747 -23795634.19445  22241793.4924                   22241793.7344
  -9050865.04347  -7037070.54745  23241650.9614                   23241652.0664
 -34420473.67648 -26808828.91747  20556986.7664                   20556983.0434
  -6469825.10946  -5025518.55844  23311170.4614                   23311170.2624
 11  8 26  0 19  0.0000000  0  9G17G10G09G12G05G04G25G02G30
 -31756801.20746 -24729477.12544  23496579.3754                   23496580.4774
 -30518320.46148 -23766406.51846  20857358.1954                   20857356.5864
 -12480582.60946  -9709501.58543  24216179.9384                   24216185.8284
 -26693805.83248 -20785173.75546  20899784.7894                   20899782.8094
 -24261548.94148 -18889366.94746  21081402.5944                   21081401.7974
 -30511167.96147 -23757976.42145  22250990.1174                   22250989.9534
  -9172424.52047  -7131792.16145  23218518.8524                   23218520.3714
 -34441271.30548 -26825034.84447  20553029.0164                   20553025.4924
  -6592158.12146  -5120842.87244  23287891.1564                   23287890.8094
 11  8 26  0 19 30.0000000  0  9G17G10G09G12G05G04G25G02G30
 -30154154.94546 -23480661.91944  23801552.7034                   23801553.9884
 -28944276.83647 -22539879.00046  21156888.9224                   21156886.9414
 -10856065.14846  -8443644.09643  24525315.6804                   24525321.9384
 -25189981.77348 -19613362.78246  21185953.1484                   21185951.7704
 -22790358.00448 -17742984.33146  21361360.6564                   21361359.8324
 -28887375.45347 -22492683.56045  22559987.7584                   22559987.1254
  -7718274.64547  -5998688.33345  23495234.5704                   23495235.7304
 -32886424.37148 -25613465.78047  20848906.5004                   20848902.8484
  -5138731.37546  -3988302.45244  23564468.7664                   23564468.0634
 11  8 26  0 20  0.0000000  0  9G17G10G09G12G05G04G25G02G30
 -30126744.38746 -23459303.07244  23806768.9534                   23806769.6524
 -28945045.10547 -22540477.64546  21156742.7194                   21156740.9224
 -10806950.51646  -8405373.15243  24534661.8754                   24534667.3364
 -25261059.41448 -19668747.94946  21172427.3594                   21172425.8754
 -22894156.62148 -17823866.30046  21341608.3204                   21341607.8404
 -28838950.25047 -22454949.65845  22569202.5704                   22569202.5474
  -7839254.84847  -6092958.57045  23472211.7814                   23472213.6764
 -32906769.46148 -25629319.07546  20845035.1254                   20845031.2464
  -5260384.29746  -4083096.86644  23541318.7734                   23541318.5204
 11  8 26  0 20 30.0000000  0  9G17G10G09G12G05G04G25G02G30
 -30099156.08246 -23437805.75244  23812019.0474                   23812019.5704
 -28945212.62148 -22540608.15846  21156710.5944                   21156708.9064
 -10757829.50846  -8367097.37243  24544009.7734                   24544015.6454
 -25331621.37948 -19723731.29346  21159000.2034                   21158998.3674
 -22997525.44948 -17904413.37546  21321937.9534                   21321937.0664
 -28790481.76647 -22417182.02345  22578425.9454                   22578425.6294
  -7959944.68747  -6187002.55245  23449245.6884                   23449247.1174
 -32926893.37548 -25645000.02246  20841205.6804                   20841201.6764
  -5381696.27046  -4177625.56044  23518233.8134                   23518233.6214
 11  8 26  0 21  0.0000000  0  9G17G10G09G12G05G04G25G02G30
 -30071383.56246 -23416164.88444  23817303.9304                   23817304.8594
 -28944774.43448 -22540266.68946  21156794.1484                   21156792.4064
 -10708698.83646  -8328813.94443  24553358.1564                   24553364.7274
 -25401659.53948 -19778306.47346  21145672.3204                   21145670.4654
 -23100455.74648 -17984618.73846  21302350.6094                   21302350.0124
 -28741965.01247 -22379376.79045  22587658.0164                   22587657.8794
  -8080335.02347  -6280813.15644  23426336.2664                   23426337.7384
 -32946790.96948 -25660504.62547  20837419.2894                   20837415.4804
  -5502658.03146  -4271881.46844  23495216.3834                   23495215.1804
 11  8 26  0 21 30.0000000  0  9G17G10G09G12G05G04G25G02G30
 -30043433.33046 -23394385.51744  23822622.3914                   23822623.6524
 -28943738.68748 -22539459.59946  21156990.8984                   21156989.3984
 -10659568.73046  -8290531.00443  24562708.1884                   24562713.8444
 -25471179.09848 -19832477.54646  21132443.1564                   21132441.1254
 -23202951.98448 -18064485.87646  21282846.1644                   21282845.6564
 -28693408.41847 -22341540.50445  22596898.6174                   22596898.1294
  -8200430.25847  -6374393.80645  23403482.7814                   23403484.1994
 -32966470.45748 -25675839.28846  20833674.2504                   20833670.6094
  -5623273.97746  -4365867.85544  23472263.4064                   23472263.1334
 11  8 26  0 22  0.0000000  0  9G17G10G09G12G05G04G25G02G30
 -30015299.84047 -23372463.42044  23827976.2894                   23827977.5234
 -28942101.55948 -22538183.89846  21157302.2734                   21157300.9804
 -10610437.52346  -8252247.20844  24572057.8754                   24572064.1914
 -25540173.46148 -19886239.37246  21119313.6414                   21119312.1954
 -23305006.93048 -18144009.14346  21263425.9304                   21263425.3014
 -28644808.57847 -22303670.51045  22606146.6884                   22606146.3554
  -8320222.76247  -6467738.59245  23380686.9064                   23380688.3524
 -32985928.40648 -25691001.31346  20829971.4454                   20829967.8524
  -5743536.28546  -4459578.67044  23449378.2194                   23449377.8524
 11  8 26  0 22 30.0000000  0  9G17G10G09G12G05G04G25G02G30
 -29986983.38746 -23350398.71644  23833364.3914                   23833366.0274
 -28939864.35248 -22536440.61046  21157728.0394                   21157727.0904
 -10561308.36346  -8213964.99344  24581407.9064                   24581412.8954
 -25608640.58248 -19939590.37446  21106285.1724                   21106283.2734
 -23406618.23048 -18223186.72146  21244089.6254                   21244088.7464
 -28596167.32447 -22265768.26645  22615403.0164                   22615402.7544
  -8439710.02347  -6560845.51245  23357949.4224                   23357950.7384
 -33005165.46148 -25705991.22046  20826310.6174                   20826306.9964
  -5863442.44147  -4553011.98044  23426560.8524                   23426560.4924
 11  8 26  0 23  0.0000000  0  9G17G10G09G12G05G04G25G02G30
 -29958483.83246 -23328191.34744  23838787.8204                   23838788.9304
 -28937029.14148 -22534231.35146  21158267.6334                   21158266.4414
 -10512184.59046  -8175686.99344  24590754.8444                   24590761.8594
 -25676579.79348 -19992529.99746  21093356.5784                   21093354.8954
 -23507784.31648 -18302017.37646  21224838.4384                   21224837.6954
 -28547486.25047 -22227834.99745  22624666.9064                   22624666.2304
  -8558889.72347  -6653712.77645  23335270.0704                   23335271.6724
 -33024183.64848 -25720810.58147  20822691.7974                   20822688.0784
  -5982989.93747  -4646165.80444  23403811.5944                   23403811.0824
 11  8 26  0 23 30.0000000  0  9G17G10G09G12G05G04G25G02G30
 -29929802.44946 -23305842.29044  23844246.0474                   23844247.2774
 -28933599.14548 -22531558.60946  21158920.2734                   21158918.6804
 -10463071.11746  -8137416.99844  24600101.3914                   24600108.1254
 -25743991.56648 -20045058.63246  21080528.4064                   21080526.4804
 -23608504.54748 -18380500.61946  21205672.1254                   21205671.1914
 -28498768.65647 -22189873.26745  22633937.4144                   22633936.9694
  -8677761.09047  -6746339.76745  23312650.0634                   23312651.2384
 -33042985.55148 -25735461.39747  20819113.7584                   20819110.3714
  -6102178.02047  -4739039.57844  23381130.9694                   23381130.2464
 11  8 26  0 24  0.0000000  0  9G17G10G09G12G05G04G25G02G30
 -29900935.65646 -23283348.71744  23849739.3984                   23849740.6254
 -28929572.44548 -22528420.91246  21159686.3204                   21159685.1174
 -10413968.20346  -8099155.24144  24609445.4224                   24609452.5514
 -25810871.40248 -20097172.77846  21067801.6644                   21067799.6414
 -23708773.34848 -18458632.09246  21186591.6024                   21186590.8874
 -28450012.85247 -22151881.75444  22643214.9694                   22643215.0394
  -8796318.25047  -6838721.92745  23290089.2974                   23290090.7114
 -33061569.78948 -25749942.62247  20815577.2274                   20815573.7584
  -6221000.71547  -4831628.63744  23358519.6414                   23358519.3714
 11  8 26  0 24 30.0000000  0  9G17G10G09G12G05G04G25G02G30
 -29871881.39846 -23260709.11244  23855267.6804                   23855269.5124
 -28924948.44548 -22524817.79046  21160566.3204                   21160565.1174
 -10364876.97746  -8060902.61443  24618786.9224                   24618794.0554
 -25877215.28948 -20148869.30246  21055176.8204                   21055175.0634
 -23808586.81248 -18536408.76346  21167597.8754                   21167596.5664
 -28401218.41847 -22113860.15845  22652500.1334                   22652500.2384
  -8914556.80147  -6930855.83845  23267589.0234                   23267590.5864
 -33079935.59448 -25764253.64846  20812082.6094                   20812078.7194
  -6339453.47347  -4923929.42244  23335978.1564                   23335977.9264
 11  8 26  0 25  0.0000000  0  9G17G10G09G12G05G04G25G02G30
 -29842644.09446 -23237926.85644  23860831.7974                   23860832.7814
 -28919732.94548 -22520753.75246  21161558.8364                   21161557.4884
 -10315805.04346  -8022665.10643  24628125.3054                   24628132.8524
 -25943026.54748 -20200150.76746  21042653.3754                   21042651.3524
 -23907947.31248 -18613832.45946  21148689.9384                   21148688.9734
 -28352391.58647 -22075813.27745  22661791.6094                   22661791.8134
  -9032478.75047  -7022743.04645  23245149.1644                   23245150.8794
 -33098088.63348 -25778398.86146  20808628.2034                   20808624.4654
  -6457538.25047  -5015943.50944  23313508.0314                   23313507.6214
 11  8 26  0 25 30.0000000  0  9G17G10G09G12G05G04G25G02G30
 -29813221.80546 -23215000.42944  23866430.6954                   23866431.8914
 -28913926.53148 -22516229.26646  21162663.4844                   21162662.5704
 -10266754.21546  -7984444.00843  24637460.6414                   24637466.2894
 -26008302.35548 -20251015.01246  21030231.9064                   21030229.9614
 -24006851.40248 -18690900.53346  21129869.0944                   21129868.2274
 -28303532.31647 -22037741.16845  22671089.3444                   22671089.0594
  -9150080.17647  -7114380.49745  23222770.2974                   23222771.6804
 -33116029.19148 -25792378.51246  20805214.0314                   20805210.1684
  -6575251.14547  -5107667.77444  23291107.7424                   23291107.4734
 11  8 26  0 26  0.0000000  0  9G17G10G09G12G05G04G25G02G30
 -29783615.08246 -23191930.30844  23872065.1094                   23872066.2154
 -28907530.67248 -22511245.48246  21163880.9064                   21163879.8954
 -10217727.84047  -7946241.91643  24646789.8674                   24646796.5984
 -26073041.27048 -20301460.89847  21017912.6174                   21017910.8754
 -24105296.84848 -18767611.22246  21111135.5474                   21111134.5664
 -28254641.97347 -21999644.83044  22680393.2504                   22680392.3404
  -9267358.49247  -7205766.17545  23200453.1484                   23200454.4104
 -33133758.12548 -25806193.27146  20801840.4774                   20801836.6174
  -6692589.40647  -5199100.14244  23268779.3594                   23268778.2384
 11  8 26  0 26 30.0000000  0  9G17G10G09G12G05G04G25G02G30
 -29753820.42647 -23168713.67844  23877734.7664                   23877734.9694
 -28900544.22348 -22505801.48946  21165210.2344                   21165209.1214
 -10168726.24646  -7908059.08643  24656113.9454                   24656121.1454
 -26137239.34448 -20351485.36146  21005695.8834                   21005694.0944
 -24203278.69948 -18843960.65446  21092490.1254                   21092489.2384
 -28205719.56247 -21961523.48545  22689702.5554                   22689702.3634
  -9384308.43747  -7296895.99045  23178198.1334                   23178199.7384
 -33151273.91048 -25819841.91947  20798507.3284                   20798503.5824
  -6809547.65647  -5290236.37344  23246522.5474                   23246522.1254
 11  8 26  0 27  0.0000000  0  9G17G10G09G12G05G04G25G02G30
 -29723840.69546 -23145352.87444  23883439.2114                   23883440.4304
 -28892971.43048 -22499900.60646  21166651.3594                   21166650.1254
 -10119755.24246  -7869900.20543  24665433.6174                   24665440.7504
 -26200898.12548 -20401089.59346  20993581.7664                   20993579.8874
 -24300797.70748 -18919949.45246  21073932.8054                   21073931.7464
 -28156769.11347 -21923380.31344  22699017.4614                   22699018.0164
  -9500930.16447  -7387770.04445  23156005.9454                   23156007.0514
 -33168580.84448 -25833327.83646  20795213.6954                   20795210.3714
  -6926126.19147  -5381076.77344  23224338.3364                   23224337.9654
 11  8 26  0 27 30.0000000  0  9G17G10G09G12G05G04G25G02G30
 -29693674.42647 -23121846.70044  23889180.0474                   23889180.7704
 -28884813.25048 -22493543.57446  21168203.7664                   21168202.6684
 -10070817.16846  -7831766.91443  24674745.4844                   24674753.7464
 -26264015.42648 -20450271.88846  20981571.2504                   20981569.3914
 -24397850.96548 -18995575.29946  21055464.1804                   21055463.3054
 -28107791.35247 -21885215.84345  22708337.8674                   22708337.3284
  -9617220.41447  -7478385.81045  23133876.5004                   23133877.6724
 -33185679.43748 -25846651.40146  20791960.3674                   20791956.7934
  -7042321.46947  -5471618.48044  23202226.9224                   23202226.7734
 11  8 26  0 28  0.0000000  0  9G17G10G09G12G05G04G25G02G30
 -29663320.60546 -23098194.38044  23894956.1724                   23894957.1644
 -28876070.34848 -22486730.92946  21169867.3204                   21169866.0824
 -10021914.08246  -7793660.88243  24684053.1024                   24684059.9024
 -26326589.00448 -20499030.51746  20969664.0084                   20969661.9104
 -24494435.64148 -19070836.04046  21037084.6484                   21037083.5784
 -28058786.95347 -21847030.64045  22717663.1804                   22717663.0474
  -9733175.80147  -7568740.61045  23111810.8204                   23111812.1954
 -33202570.10948 -25859812.96646  20788745.8364                   20788741.9924
  -7158130.15247  -5561858.99044  23180189.5314                   23180188.9654
 11  8 26  0 28 30.0000000  0  9G17G10G09G12G05G04G25G02G30
 -29632778.73447 -23074395.54744  23900767.9384                   23900769.1054
 -28866743.28148 -22479463.07146  21171642.2974                   21171640.8364
  -9973048.12146  -7755583.95543  24693351.3834                   24693358.4494
 -26388616.50848 -20547363.62246  20957860.2114                   20957858.2384
 -24590548.73048 -19145729.29646  21018795.0164                   21018793.8874
 -28009756.21547 -21808824.89545  22726992.9844                   22726993.4224
  -9848792.79747  -7658831.73845  23089809.5634                   23089810.9344
 -33219253.23048 -25872812.79546  20785571.2274                   20785567.4064
  -7273548.66447  -5651795.46144  23158226.1024                   23158225.3164
 11  8 26  0 29  0.0000000  0  9G17G10G09G12G05G04G25G02G30
 -29602049.44147 -23050450.66344  23906615.8984                   23906616.6644
 -28856834.98848 -22471742.31946  21173527.7114                   21173526.4064
  -9924224.09846  -7717539.52443  24702641.9224                   24702649.5044
 -26450097.97748 -20595271.25346  20946160.7344                   20946158.4734
 -24686189.26248 -19220254.32746  21000595.1644                   21000594.0944
 -27960701.74647 -21770600.68645  22736327.7424                   22736328.3794
  -9964070.10547  -7748658.16945  23067872.6254                   23067874.2774
 -33235731.23448 -25885652.78346  20782435.4694                   20782431.8244
  -7388575.63347  -5741426.85944  23136337.0474                   23136335.8954
 11  8 26  0 29 30.0000000  0  9G17G10G09G12G05G04G25G02G30
 -29571131.06646 -23026358.39544  23912498.4924                   23912500.4414
 -28846345.90648 -22463568.99246  21175523.9534                   21175522.3874
  -9875443.68446  -7679529.08543  24711925.7194                   24711932.7974
 -26511030.66848 -20642751.26346  20934565.4774                   20934563.9694
 -24781354.15248 -19294408.73046  20982485.8134                   20982484.9614
 -27911623.98847 -21732358.29045  22745667.4454                   22745667.1134
 -10079003.83647  -7838216.87745  23046001.8594                   23046003.3284
 -33252003.95748 -25898332.82846  20779338.8674                   20779335.1564
  -7503207.26647  -5830750.19644  23114523.4694                   23114522.7304
 11  8 26  0 30  0.0000000  0  9G17G10G09G12G05G04G25G02G30
 -29540023.92246 -23002119.04944  23918418.3134                   23918419.7774
 -28835278.12548 -22454944.74746  21177630.0864                   21177628.6994
  -9826710.18746  -7641555.21643  24721199.7344                   24721206.3794
 -26571413.96548 -20689803.18047  20923075.2034                   20923073.1604
 -24876041.34848 -19368190.90347  20964467.7034                   20964466.1134
 -27862524.24647 -21694098.80645  22755011.2424                   22755010.3404
 -10193591.76647  -7927506.11745  23024196.3054                   23024197.9304
 -33268072.66448 -25910853.88246  20776281.1644                   20776277.5904
  -7617441.01647  -5919763.46344  23092785.9774                   23092784.6214
 11  8 26  0 30 30.0000000  0  9G17G10G09G12G05G04G25G02G30
 -29508731.23446 -22977735.19344  23924373.2424                   23924374.3834
 -28823636.96948 -22445873.70946  21179845.2974                   21179844.1884
  -9778030.11346  -7603622.94743  24730463.1644                   24730470.3674
 -26631249.97748 -20736428.64346  20911688.6254                   20911686.5864
 -24970252.35248 -19441602.02446  20946539.5164                   20946538.6334
 -27813407.39547 -21655825.95445  22764357.6804                   22764357.0394
 -10307834.82847  -8016526.61945  23002456.6094                   23002457.9384
 -33283942.44948 -25923219.94147  20773261.5314                   20773258.0664
  -7731277.96947  -6008467.56244  23071122.7894                   23071122.0084
 11  8 26  0 31  0.0000000  0  9G17G10G09G12G05G04G25G02G30
 -29477252.82046 -22953206.56844  23930363.4924                   23930364.4344
 -28811424.19547 -22436357.25446  21182168.9534                   21182167.7704
  -9729406.42646  -7565734.59943  24739716.8134                   24739723.8484
 -26690537.57448 -20782626.76346  20900406.7664                   20900404.5354
 -25063985.27048 -19514640.59947  20928702.6564                   20928701.8754
 -27764274.82847 -21617540.86045  22773707.3134                   22773707.0594
 -10421730.50847  -8105276.41245  22980782.5234                   22980784.2854
 -33299614.53948 -25935431.94447  20770278.7974                   20770274.9844
  -7844715.52747  -6096860.45844  23049536.7664                   23049535.8524
 11  8 26  0 31 30.0000000  0  9G17G10G09G12G05G04G25G02G30
 -29445585.07446 -22928530.38944  23936390.0474                   23936390.9734
 -28798637.72348 -22426393.76946  21184602.6954                   21184601.0234
  -9680838.48847  -7527889.76043  24748958.5704                   24748965.4734
 -26749272.03548 -20828393.86746  20889229.9774                   20889228.0204
 -25157234.67248 -19587302.41947  20910958.0704                   20910957.3054
 -27715124.28147 -21579241.79945  22783060.3444                   22783059.9304
 -10535272.60547  -8193750.69745  22959176.2274                   22959178.0984
 -33315086.37548 -25947487.91146  20767334.7274                   20767330.6644
  -7957747.43747  -6184937.25644  23028027.0864                   23028026.4964
 11  8 26  0 32  0.0000000  0  9G17G10G09G12G05G04G25G02G30
 -29413729.83246 -22903708.13643  23942451.7814                   23942452.3164
 -28785281.60547 -22415986.40246  21187144.1564                   21187142.3094
  -9632331.61746  -7490092.41443  24758188.6954                   24758196.6524
 -26807454.19948 -20873730.61046  20878158.1094                   20878156.2544
 -25250000.73848 -19659587.60546  20893305.1804                   20893304.2734
 -27665959.25447 -21540931.41345  22792416.0864                   22792416.1094
 -10648460.91847  -8281949.30345  22937637.5314                   22937638.9224
 -33330361.41848 -25959390.52846  20764427.9614                   20764424.1054
  -8070373.46147  -6272697.78144  23006595.2194                   23006594.4024
 11  8 26  0 32 30.0000000  0  9G17G10G09G12G05G04G25G02G30
 -29381683.30946 -22878736.84544  23948550.2114                   23948551.5474
 -28771354.36748 -22405134.00246  21189794.3364                   21189792.8324
  -9583885.33246  -7452342.29943  24767408.7814                   24767416.4024
 -26865079.14848 -20918633.16246  20867192.3054                   20867190.5354
 -25342278.06248 -19731491.95847  20875745.0474                   20875744.0634
 -27616777.67247 -21502608.15844  22801774.9224                   22801775.0004
 -10761289.41447  -8369867.52645  22916166.6724                   22916168.3834
 -33345437.62548 -25971138.22146  20761558.9304                   20761555.1374
  -8182587.60247  -6360137.35244  22985241.4454                   22985240.5864
 11  8 26  0 33  0.0000000  0  9G17G10G09G12G05G04G25G02G30
 -29349450.24646 -22853620.20444  23954684.1724                   23954684.9344
 -28756862.15648 -22393841.36046  21192552.3364                   21192550.7734
  -9535506.84046  -7414645.10443  24776615.4144                   24776622.6604
 -26922150.81648 -20963104.57946  20856332.1884                   20856330.2854
 -25434068.98048 -19803017.30846  20858277.9844                   20858276.7704
 -27567585.26247 -21464276.44544  22811136.3674                   22811136.1604
 -10873760.00447  -8457506.86445  22894764.4064                   22894765.9574
 -33360320.49648 -25982735.26946  20758726.6724                   20758722.9804
  -8294391.59847  -6447257.32544  22963965.5084                   22963965.1684
 11  8 26  0 33 30.0000000  0  9G17G10G09G12G05G04G25G02G30
 -29317030.57446 -22828358.14844  23960852.4454                   23960854.4104
 -28741807.30948 -22382110.30046  21195417.1804                   21195415.6254
  -9487199.75846  -7377003.49543  24785807.7194                   24785815.3284
 -26978668.29748 -21007144.18046  20845577.1254                   20845575.3014
 -25525371.77748 -19874162.29146  20840903.6414                   20840902.4844
 -27518383.46547 -21425937.40244  22820499.0394                   22820498.6484
 -10985870.56247  -8544865.63845  22873430.8284                   22873431.6374
 -33375011.62148 -25994182.88246  20755931.1644                   20755927.7584
  -8405783.37547  -6534056.08044  22942768.9774                   22942768.7034
 11  8 26  0 34  0.0000000  0  9G17G10G09G12G05G04G25G02G30
 -29284420.65646 -22802947.84444  23967058.2194                   23967060.5164
 -28726187.96548 -22369939.39046  21198389.4534                   21198387.9304
  -9438963.34446  -7339416.97543  24794987.0704                   24794994.7934
 -27034626.81648 -21050748.21146  20834928.7344                   20834926.8094
 -25616181.59848 -19944923.13046  20823622.6094                   20823622.1844
 -27469170.28147 -21387589.51744  22829863.6414                   22829863.0434
 -11097614.98447  -8631939.14245  22852166.0164                   22852167.2974
 -33389508.70348 -26005479.28246  20753172.5314                   20753168.8404
  -8516756.84846  -6620528.84344  22921650.8594                   22921650.7504
 11  8 26  0 34 30.0000000  0  9G17G10G09G12G05G04G25G02G30
 -29251618.32046 -22777387.65344  23973300.5474                   23973302.1454
 -28710004.20748 -22357328.67046  21201468.5704                   21201467.2894
  -9390799.03146  -7301886.71443  24804153.2424                   24804160.7154
 -27090023.57848 -21093914.51546  20824386.8134                   20824385.1844
 -25706494.27348 -20015296.59647  20806437.5084                   20806436.0704
 -27419945.05147 -21349232.22644  22839231.0634                   22839230.9694
 -11208989.02047  -8718724.03245  22830972.0864                   22830973.1094
 -33403811.01248 -26016623.93346  20750450.8834                   20750447.2894
  -8627307.62547  -6706672.25544  22900614.0704                   22900613.0084
 11  8 26  0 35  0.0000000  0  9G17G10G09G12G05G04G25G02G30
 -29218624.65646 -22751678.33344  23979578.9614                   23979580.4694
 -28693258.87148 -22344280.36346  21204655.5474                   21204653.8594
  -9342710.44546  -7264415.39144  24813304.3834                   24813312.1024
 -27144858.14148 -21136642.73746  20813952.4844                   20813950.3094
 -25796309.03948 -20085282.07047  20789346.0784                   20789344.7624
 -27370709.91847 -21310867.23644  22848600.0234                   22848599.8524
 -11319990.94547  -8805218.95045  22809848.8594                   22809850.3284
 -33417920.68748 -26027618.46746  20747765.6254                   20747761.8674
  -8737434.11346  -6792485.01845  22879657.7814                   22879656.7704
 11  8 26  0 35 30.0000000  0  8G17G10G12G05G04G25G02G30
 -29185441.42647 -22725821.31944  23985893.7114                   23985895.2234
 -28675955.81247 -22330797.45246  21207948.0234                   21207946.4494
 -27199131.97348 -21178934.03646  20803624.2424                   20803622.0864
 -25885626.09448 -20154879.72347  20772349.0084                   20772348.3404
 -27321468.04347 -21272497.00444  22857970.6024                   22857970.3054
 -11430620.27047  -8891423.54545  22788796.9304                   22788798.4574
 -33431841.23448 -26038465.63846  20745117.0164                   20745113.3404
  -8847135.75847  -6877966.71644  22858782.2894                   22858781.5044
 11  8 26  0 36  0.0000000  0  8G17G10G12G05G04G25G02G30
 -29152065.32046 -22699814.01844  23992244.3134                   23992246.2704
 -28658093.84847 -22316879.04846  21211347.1724                   21211345.7304
 -27252840.84048 -21220785.09946  20793403.6174                   20793401.7194
 -25974440.33648 -20224085.57447  20755448.5944                   20755447.2974
 -27272217.37547 -21234119.88044  22867342.3444                   22867342.5594
 -11540871.41047  -8977333.46545  22767816.7344                   22767818.1724
 -33445570.04348 -26049163.40746  20742504.3204                   20742500.5004
  -8956406.98047  -6963113.02945  22837988.3204                   22837987.7504
 11  8 26  0 36 30.0000000  0  8G17G10G12G05G04G25G02G30
 -29118492.50446 -22673653.44844  23998633.8984                   23998635.4224
 -28639671.77048 -22302524.18646  21214853.0164                   21214851.3954
 -27305980.12948 -21262192.33746  20783291.3134                   20783289.5084
 -26062746.36348 -20292895.40947  20738644.1804                   20738643.2894
 -27222956.11347 -21195734.54244  22876716.5004                   22876716.9264
 -11650738.42248  -9062944.07645  22746909.6094                   22746910.8164
 -33459104.97348 -26059710.09646  20739928.8284                   20739925.3014
  -9065241.81647  -7047919.32845  22817277.5784                   22817277.1804
 11  8 26  0 37  0.0000000  0  8G17G10G12G05G04G25G02G30
 -29084719.28146 -22647336.66544  24005060.3914                   24005062.7854
 -28620687.66048 -22287731.37646  21218465.5474                   21218464.0864
 -27358545.06648 -21303152.03546  20773288.5864                   20773286.9304
 -26150538.85548 -20361305.09046  20721937.8674                   20721936.7504
 -27173681.18447 -21157338.51344  22886093.6024                   22886093.6024
 -11760215.15247  -9148250.59745  22726076.6724                   22726078.1054
 -33472443.81648 -26070104.00046  20737390.5394                   20737386.8244
  -9173634.07847  -7132380.74045  22796651.4144                   22796650.8204
 11  8 26  0 37 30.0000000  0  8G17G10G12G05G04G25G02G30
 -29050746.50846 -22620864.47944  24011525.1564                   24011526.9924
 -28601144.14848 -22272502.67946  21222184.2974                   21222182.9024
 -27410535.46948 -21343664.03446  20763395.4614                   20763393.2274
 -26237816.67248 -20429313.73347  20705329.5314                   20705328.4064
 -27124394.86747 -21118933.65844  22895472.6024                   22895472.4224
 -11869299.78147  -9233251.58045  22705318.9064                   22705320.0434
 -33485588.47748 -26080346.58946  20734889.0084                   20734885.1684
  -9281581.97747  -7216495.90944  22776109.3834                   22776108.8164
 11  8 26  0 38  0.0000000  0  8G17G10G12G05G04G25G02G30
 -29016580.41446 -22594241.57044  24018026.5634                   24018028.4384
 -28581049.55148 -22256844.55746  21226008.3524                   21226006.6134
 -27461956.84848 -21383732.64446  20753610.4534                   20753608.2664
 -26324584.52748 -20496924.99647  20688818.1174                   20688816.9614
 -27075104.56647 -21080525.66244  22904852.3134                   22904852.1914
 -11977996.16448  -9317950.05445  22684635.0704                   22684635.4264
 -33498546.19948 -26090443.52446  20732423.5704                   20732419.9264
  -9389089.41847  -7300267.85544  22755651.5164                   22755650.7624
 11  8 26  0 38 30.0000000  0  8G17G10G12G05G04G25G02G30
 -28982221.35946 -22567468.31044  24024565.3134                   24024566.9734
 -28560407.19148 -22240759.62046  21229936.4224                   21229935.1724
 -27512809.87548 -21423358.37146  20743933.0314                   20743931.5044
 -26410841.76248 -20564138.36947  20672404.2344                   20672402.9924
 -27025812.57047 -21042116.35944  22914232.3204                   22914232.3164
 -12086303.10947  -9402345.03245  22664024.3984                   22664025.7544
 -33511319.52348 -26100396.74746  20729992.5554                   20729989.0004
  -9496155.24247  -7383695.67844  22735277.3444                   22735276.5904
 11  8 26  0 39  0.0000000  0  8G17G10G12G05G04G25G02G30
 -28947669.27746 -22540544.59244  24031140.2034                   24031141.8014
 -28539218.05148 -22224248.59846  21233968.3364                   21233966.8164
 -27563091.80948 -21462539.09746  20734364.9454                   20734363.0984
 -26496585.54748 -20630951.65746  20656087.1954                   20656086.2584
 -26976519.02347 -21003705.85044  22923612.6254                   22923612.7384
 -12194216.98447  -9486433.76245  22643489.1024                   22643490.3404
 -33523908.30148 -26110206.18146  20727597.2344                   20727593.0594
  -9602775.83647  -7466776.58144  22714987.8364                   22714987.1524
 11  8 26  0 39 30.0000000  0  8G17G10G12G05G04G25G02G30
 -28912923.19146 -22513469.75244  24037752.2814                   24037753.5554
 -28517484.12548 -22207313.07846  21238104.4774                   21238103.1134
 -27612802.15248 -21501274.43446  20724905.5474                   20724903.6454
 -26581814.10948 -20697363.47847  20639868.8444                   20639867.7384
 -26927224.77747 -20965294.77244  22932992.4384                   22932992.9654
 -12301735.03947  -9570214.05245  22623028.5784                   22623029.9304
 -33536313.50048 -26119872.55646  20725236.4614                   20725232.3954
  -9708948.43046  -7549508.43244  22694783.8054                   22694782.7504
 11  8 26  0 40  0.0000000  0  8G17G10G12G05G04G25G02G30
 -28877988.64546 -22486248.06944  24044400.2664                   24044401.7234
 -28495212.52048 -22189958.57246  21242342.3054                   21242341.0664
 -27661944.99248 -21539567.54846  20715553.7664                   20715551.7934
 -26666531.00048 -20763376.59247  20623747.8754                   20623746.7544
 -26877936.15647 -20926888.09244  22942371.7504                   22942372.1914
 -12408860.22747  -9653688.21545  22602643.9534                   22602644.9734
 -33548541.63348 -26129400.96746  20722909.4844                   20722905.7504
  -9814676.04346  -7631893.54144  22674665.0004                   22674663.4414
 11  8 26  0 40 30.0000000  0  8G17G10G12G05G04G25G02G30
 -28842859.87146 -22458874.99643  24051084.9224                   24051086.3874
 -28472400.04748 -22172182.63546  21246683.3524                   21246682.3444
 -27710514.48448 -21577413.89246  20706311.1804                   20706309.2894
 -26750729.15248 -20828985.49847  20607725.2664                   20607724.3094
 -26828649.09847 -20888482.63544  22951751.6564                   22951751.7894
 -12515584.74647  -9736850.18645  22582335.0474                   22582336.0354
 -33560588.40248 -26138788.04046  20720617.2664                   20720613.2934
  -9919950.91047  -7713925.86944  22654631.3594                   22654630.5784
 11  8 26  0 41  0.0000000  0  8G17G10G12G05G04G25G02G30
 -28807537.35546 -22431351.00343  24057807.1644                   24057807.9884
 -28449049.42648 -22153987.35746  21251126.8754                   21251125.3594
 -27758510.25448 -21614813.17746  20697178.1564                   20697176.2854
 -26834407.14148 -20894189.06647  20591802.0004                   20591801.1914
 -26779365.00046 -20850079.46044  22961129.9144                   22961130.1454
 -12621906.64547  -9819698.41345  22562102.5234                   22562103.8054
 -33572455.49648 -26148035.11946  20718359.0704                   20718355.3364
 -10024771.12147  -7795603.91544  22634684.6094                   22634683.8164
 11  8 26  0 41 30.0000000  0  8G17G10G12G05G04G25G02G30
 -28772027.80546 -22403681.26143  24064564.0394                   24064565.6024
 -28425169.09048 -22135379.31546  21255671.3134                   21255669.8284
 -27805937.96148 -21651769.82146  20688152.8444                   20688150.7344
 -26917570.30148 -20958991.48847  20575976.3594                   20575975.2074
 -26730091.75047 -20811684.73444  22970505.9614                   22970506.1414
 -12727830.16047  -9902236.19945  22541945.9694                   22541947.2424
 -33584150.67648 -26157148.23346  20716133.5234                   20716129.6134
 -10129140.90247  -7876930.97845  22614823.9384                   22614823.0044
 11  8 26  0 42  0.0000000  0  8G17G10G12G05G04G25G02G30
 -28736323.92246 -22375860.11243  24071358.5234                   24071359.5124
 -28400754.48848 -22116354.95546  21260317.0704                   21260315.7894
 -27852789.82048 -21688277.75946  20679237.4304                   20679235.2814
 -27000209.87148 -21023385.90947  20560250.7504                   20560249.2304
 -26680823.24647 -20773293.73444  22979881.5314                   22979881.9654
 -12833345.66447  -9984456.07245  22521866.9774                   22521868.2034
 -33595667.75448 -26166122.56946  20713941.6094                   20713937.7934
 -10233050.56647  -7957899.53144  22595050.4774                   22595049.6484
 11  8 26  0 42 30.0000000  0  8G17G10G12G05G04G25G02G30
 -28700429.46546 -22347890.44343  24078189.2424                   24078190.2424
 -28375811.17248 -22096918.62646  21265063.4614                   21265062.4804
 -27899069.23048 -21724339.61946  20670430.7424                   20670428.6764
 -27082327.91448 -21087373.94447  20544624.2734                   20544622.6054
 -26631564.03547 -20734909.94544  22989254.6174                   22989256.1724
 -12938454.28547 -10066358.87645  22501865.5634                   22501866.5314
 -33607011.62548 -26174961.92446  20711782.9774                   20711778.9884
 -10336501.43747  -8038510.55345  22575364.2194                   22575363.3754
 11  8 26  0 43  0.0000000  0  8G17G10G12G05G04G25G02G30
 -28664345.24246 -22319772.86543  24085055.7734                   24085057.0594
 -28350342.80548 -22077073.15046  21269910.0084                   21269909.0984
 -27944776.34448 -21759955.53446  20661732.5084                   20661730.8834
 -27163924.05148 -21150955.29547  20529096.6724                   20529095.3554
 -26582316.48446 -20696535.26644  22998627.1174                   22998627.0164
 -13043154.96147 -10147943.81045  22481941.5944                   22481942.6024
 -33618184.35948 -26183667.94346  20709656.6254                   20709653.2384
 -10439492.50847  -8118763.30345  22555765.5944                   22555764.7194
 11  8 26  0 43 30.0000000  0  8G17G10G12G05G04G25G02G30
 -28628071.70746 -22291507.79143  24091957.6644                   24091959.4734
 -28324351.69948 -22056820.34546  21274856.1724                   21274854.9574
 -27989910.49248 -21795124.98146  20653143.8054                   20653141.8714
 -27244996.74648 -21214128.77747  20513669.1094                   20513667.7274
 -26533081.70746 -20658170.53744  23007995.8984                   23007995.7304
 -13147445.52347 -10229209.16645  22462095.6414                   22462097.1724
 -33629187.66848 -26192241.93746  20707563.0314                   20707559.1294
 -10542021.57046  -8198656.07345  22536255.2584                   22536254.6804
 11  8 26  0 44  0.0000000  0  8G17G10G12G05G04G25G02G30
 -27016186.16446 -21035493.10343  24398689.6334                   24398691.4304
 -26722417.20347 -20808559.70646  21579694.2344                   21579693.1844
 -26459046.05948 -20602243.58447  20944458.0314                   20944455.7034
 -25750118.46548 -20049288.49947  20798135.1724                   20798133.7154
 -24908438.92246 -19392215.11844  23317155.4534                   23317155.3204
 -11675896.52347  -9082547.59745  22742122.2274                   22742123.5514
 -32064598.39548 -24973081.44546  21005294.7034                   21005291.0274
  -9068659.34847  -7050581.57245  22816626.6644                   22816626.1884
 11  8 26  0 44 30.0000000  0  8G17G10G12G05G04G25G02G30
 -26979524.32846 -21006925.43343  24405666.5784                   24405667.3714
 -26695377.59047 -20787489.88346  21584839.5554                   21584838.5314
 -26503023.13748 -20636511.41246  20936089.1804                   20936087.0004
 -25830130.53548 -20111635.52047  20782909.2734                   20782908.0314
 -24859223.61347 -19353865.53044  23326519.8984                   23326520.3984
 -11779350.27747  -9163160.90545  22722435.6094                   22722436.9804
 -32075256.14548 -24981386.17246  21003266.6414                   21003262.8554
  -9170248.12147  -7129741.64145  22797295.2814                   22797294.2854
 11  8 26  0 45  0.0000000  0  8G17G10G12G05G04G25G02G30
 -26942669.05946 -20978207.07543  24412680.0554                   24412681.1764
 -26667817.86347 -20766014.77745  21590084.3754                   21590083.0354
 -26546421.69148 -20670328.44846  20927830.6724                   20927828.4804
 -25909610.74248 -20173568.09247  20767784.6954                   20767783.1884
 -24810020.13746 -19315525.18244  23335883.4844                   23335883.6484
 -11882382.82447  -9243445.98945  22702829.1174                   22702830.1294
 -32085743.73848 -24989558.30346  21001270.6804                   21001266.6684
  -9271363.97746  -7208533.19245  22778053.6024                   22778052.1644
 11  8 26  0 45 30.0000000  0  8G17G10G12G05G04G25G02G30
 -26905621.11746 -20949338.51144  24419729.2034                   24419731.7154
 -26639740.79748 -20744136.55846  21595426.9304                   21595425.7894
 -26589241.92248 -20703694.83846  20919682.0474                   20919680.1844
 -25988558.53948 -20235085.80047  20752761.2664                   20752759.9734
 -24760830.44146 -19277195.56744  23345244.3914                   23345244.1374
 -11984992.44947  -9323401.53645  22683303.0784                   22683304.0354
 -32096062.64848 -24997599.00246  20999307.0394                   20999302.6844
  -9372005.19546  -7286954.91045  22758901.6954                   22758901.4224
 11  8 26  0 46  0.0000000  0  8G17G10G12G05G04G25G02G30
 -26868383.12546 -20920321.90744  24426815.8054                   24426817.5004
 -26611151.90647 -20721859.50446  21600867.4304                   21600865.8714
 -26631485.82848 -20736612.16047  20911643.9774                   20911641.8444
 -26066974.89848 -20296189.40947  20737838.9614                   20737838.0474
 -24711657.93046 -19238879.33044  23354600.9924                   23354601.7154
 -12087179.44147  -9403027.75245  22663856.9614                   22663858.8054
 -32106216.97347 -25005511.44646  20997374.4534                   20997370.8874
  -9472172.27747  -7365007.16945  22739840.8054                   22739839.8094
 11  8 26  0 46 30.0000000  0  8G17G10G12G05G04G25G02G30
 -26830953.39846 -20891155.93344  24433938.5474                   24433939.7774
 -26582051.55947 -20699183.92046  21606405.0314                   21606403.1884
 -26673151.15247 -20769078.63746  20903714.9614                   20903713.2664
 -26144857.05148 -20356876.74647  20723018.0944                   20723017.1884
 -24662502.12546 -19200576.12944  23363955.7814                   23363955.3634
 -12188939.96147  -9482321.66045  22644493.3204                   22644494.6884
 -32116205.75047 -25013294.89846  20995473.6954                   20995470.1804
  -9571861.45747  -7442687.05445  22720870.5084                   22720869.7974
 11  8 26  0 47  0.0000000  0  8G17G10G12G05G04G25G02G30
 -26793331.39147 -20861840.08144  24441097.5554                   24441099.2814
 -26552441.49247 -20676111.14745  21612039.9924                   21612037.8914
 -26714236.75447 -20801093.38446  20895896.8524                   20895894.7504
 -26222202.78948 -20417146.10147  20708300.0554                   20708298.8164
 -24613363.33646 -19162286.15644  23373306.2114                   23373306.0824
 -12290271.11747  -9561280.98046  22625210.8444                   22625211.7934
 -32126029.58647 -25020949.82846  20993604.2814                   20993601.0474
  -9671069.79746  -7519992.24745  22701991.9454                   22701991.0944
 11  8 26  0 47 30.0000000  0  8G17G10G12G05G04G25G02G30
 -26755516.51247 -20832373.95744  24448293.2734                   24448295.5084
 -26522323.10948 -20652642.28646  21617770.8834                   21617769.3554
 -26754741.77048 -20832655.71847  20888188.7274                   20888186.9264
 -26299010.03148 -20476995.85747  20693683.9384                   20693682.4494
 -24564241.79746 -19124009.66444  23382654.4614                   23382653.8794
 -12391169.72347  -9639903.24445  22606010.1884                   22606011.1214
 -32135688.92648 -25028476.58046  20991766.0864                   20991762.7734
  -9769794.34047  -7596920.46445  22683204.6564                   22683204.3164
 11  8 26  0 48  0.0000000  0  8G17G10G12G05G04G25G02G30
 -26717512.39547 -20802760.34944  24455525.7274                   24455527.0864
 -26491702.34448 -20628781.94446  21623597.7344                   21623596.3714
 -26794669.21548 -20863768.00346  20880590.7894                   20880588.7384
 -26375281.01648 -20536427.74447  20679170.0554                   20679168.3484
 -24515141.73846 -19085749.88944  23391997.2344                   23391997.5704
 -12491637.03547  -9718189.42345  22586892.1804                   22586893.0234
 -32145188.07447 -25035878.50546  20989958.6174                   20989954.8404
  -9868036.36346  -7673472.68445  22664509.8984                   22664509.8834
 11  8 26  0 48 30.0000000  0  9G17G10G29G12G05G04G25G02G30
 -26679318.75047 -20772999.08144  24462793.6174                   24462795.2624
 -26460581.56648 -20604531.98645  21629519.8204                   21629518.6254
   2986264.93056   2339990.39753  24738965.3444                   24738966.0124
 -26834018.23448 -20894429.58447  20873102.8984                   20873100.9024
 -26451014.21548 -20595440.57247  20664758.6884                   20664757.2584
 -24466064.20746 -19047507.70944  23401336.4384                   23401336.3444
 -12591670.54747  -9796137.57245  22567856.2114                   22567857.2774
 -32154528.09048 -25043156.44246  20988181.4534                   20988177.5944
  -9965793.50047  -7749647.08145  22645907.5864                   22645906.8404
 11  8 26  0 49  0.0000000  0  9G17G10G29G12G05G04G25G02G30
 -26640936.31247 -20743090.69744  24470097.2814                   24470098.8444
 -26428963.85548 -20579894.80645  21635536.7504                   21635535.3874
   2874237.89146   2252696.69043  24717647.4774                   24717648.2114
 -26872789.28148 -20924640.79447  20865725.0944                   20865722.9414
 -26526209.08648 -20654033.94047  20650449.2894                   20650448.1334
 -24417010.65647 -19009284.19444  23410671.0474                   23410671.3594
 -12691268.89147  -9873746.61645  22548903.0394                   22548903.8364
 -32163711.05948 -25050312.00446  20986433.5864                   20986429.9884
 -10063064.42647  -7825442.60745  22627397.4534                   22627396.6884
 11  8 26  0 49 30.0000000  0  9G17G10G29G12G05G04G25G02G30
 -26602371.43746 -20713040.18044  24477435.8594                   24477438.3164
 -26396857.87148 -20554877.15745  21641646.3524                   21641645.1804
   2762120.27346   2165332.38743  24696312.1094                   24696312.8834
 -26910987.96547 -20954406.00346  20858456.2114                   20858454.4024
 -26600870.40248 -20712211.54347  20636241.8204                   20636240.2814
 -24367988.33647 -18971085.04644  23419999.7344                   23420000.2504
 -12790435.83247  -9951019.48345  22530032.0704                   22530033.2304
 -32172743.78948 -25057350.49946  20984715.2734                   20984711.1954
 -10159852.95747  -7900862.26445  22608978.9144                   22608978.6564
 11  8 26  0 50  0.0000000  0  9G17G10G29G12G05G04G25G02G30
 -26563623.84846 -20682847.23643  24484809.9384                   24484810.7624
 -26364265.27047 -20529480.32945  21647848.2194                   21647846.9144
   2649912.91446   2077898.20944  24674959.8914                   24674960.7274
 -26948613.63347 -20983724.71446  20851296.0554                   20851294.3364
 -26674996.72348 -20769972.26647  20622136.0084                   20622134.7894
 -24318997.74247 -18932910.58444  23429322.4534                   23429322.7974
 -12889168.81647 -10027954.20245  22511244.1414                   22511244.7384
 -32181627.15247 -25064272.59446  20983025.0004                   20983020.6914
 -10256156.62947  -7975904.08145  22590653.1724                   22590652.8134
 11  8 26  0 50 30.0000000  0  9G17G10G29G12G05G04G25G02G30
 -26524689.51646 -20652508.83643  24492217.6724                   24492219.9344
 -26331184.70348 -20503703.26145  21654143.4844                   21654142.4654
   2537620.64846   1990397.84144  24653591.0784                   24653592.0164
 -26985662.17248 -21012593.72146  20844246.1024                   20844244.0514
 -26748582.64148 -20827311.90447  20608133.0004                   20608131.4344
 -24270035.77747 -18894758.43244  23438639.1724                   23438639.9534
 -12987461.48447 -10104545.82145  22492539.5084                   22492540.0634
 -32190357.87148 -25071075.76446  20981363.0084                   20981359.3984
 -10351969.22347  -8050563.23645  22572421.1024                   22572420.2704
 11  8 26  0 51  0.0000000  0  9G17G10G29G12G05G04G25G02G30
 -26485567.68446 -20622024.29743  24499662.6644                   24499664.5634
 -26297618.03548 -20477547.42045  21660531.1414                   21660529.5124
   2425244.80546   1902832.34244  24632207.0084                   24632207.0164
 -27022132.69148 -21041012.31746  20837305.9614                   20837304.0044
 -26821626.24648 -20884228.96247  20594233.2194                   20594231.6374
 -24221102.48046 -18856628.65944  23447951.3444                   23447951.9694
 -13085311.02747 -10180792.13846  22473919.2194                   22473920.3834
 -32198936.55148 -25077760.45746  20979731.0004                   20979727.0944
 -10447287.91847  -8124837.50345  22554282.0864                   22554281.3914
 11  8 26  0 51 30.0000000  0  9G17G10G29G12G05G04G25G02G30
 -26446258.58246 -20591393.89443  24507143.1804                   24507144.2194
 -26263567.55548 -20451014.57445  21667010.4144                   21667009.3284
   2312785.72347   1815201.96444  24610806.3444                   24610806.5474
 -27058024.75048 -21068980.17447  20830475.5944                   20830473.9184
 -26894126.26248 -20940722.43347  20580437.0084                   20580435.5514
 -24172198.69546 -18818521.87544  23457257.5784                   23457257.8204
 -13182715.21947 -10256691.43145  22455383.5084                   22455384.7234
 -32207364.11748 -25084327.40346  20978126.8054                   20978122.8244
 -10542110.73047  -8198725.40045  22536238.1484                   22536237.1214
 11  8 26  0 52  0.0000000  0  9G17G10G29G12G05G04G25G02G30
 -26406758.86746 -20560614.88243  24514659.8444                   24514661.2274
 -26229031.96148 -20424103.70545  21673582.5084                   21673580.6024
   2200247.59847   1727509.98044  24589390.9534                   24589391.3634
 -27093334.57448 -21096494.34146  20823756.8204                   20823754.7034
 -26966077.80148 -20996788.53147  20566744.9924                   20566743.6684
 -24123321.84046 -18780436.06844  23466558.3134                   23466558.7464
 -13279668.14547 -10332239.09246  22436934.0474                   22436934.9844
 -32215637.82848 -25090774.47046  20976552.5554                   20976549.2704
 -10636431.83247  -8272222.30945  22518289.3284                   22518288.5434
 11  8 26  0 52 30.0000000  0  9G17G10G29G12G05G04G25G02G30
 -26367065.73846 -20529685.15843  24522211.9064                   24522214.5904
 -26194011.41048 -20396814.95545  21680246.4454                   21680245.1564
   2087633.91847   1639759.10944  24567961.3364                   24567961.4734
 -27128059.22348 -21123552.52246  20817148.7974                   20817146.8524
 -27037477.30548 -21052424.46247  20553157.9384                   20553156.3794
 -24074469.90646 -18742369.65944  23475854.6644                   23475855.2894
 -13376165.02347 -10407431.39146  22418571.0164                   22418572.2974
 -32223756.19548 -25097100.47846  20975007.6484                   20975004.0704
 -10730246.62547  -8345324.69345  22500437.3204                   22500436.1174
 11  8 26  0 53  0.0000000  0  9G17G10G29G12G05G04G25G02G30
 -26327180.37546 -20498605.59643  24529803.5314                   24529804.0274
 -26158509.08247 -20369150.79445  21687002.5704                   21687001.0554
   1974944.64546   1551949.37844  24546516.6334                   24546517.5044
 -27162199.03547 -21150154.98847  20810652.4844                   20810650.2504
 -27108324.31648 -21107629.89347  20539676.2894                   20539674.8054
 -24025644.50846 -18704324.00044  23485144.8364                   23485146.6804
 -13472204.45347 -10482267.22845  22400295.3444                   22400296.5204
 -32231720.93448 -25103306.78046  20973492.0474                   20973488.3834
 -10823553.74247  -8418031.47445  22482681.0234                   22482680.2194
 11  8 26  0 53 30.0000000  0  8G10G29G12G05G04G25G02G30
 -26122530.36348 -20341115.42645  21693848.8364                   21693847.8484
   1862177.32447   1464078.82644  24525058.4454                   24525058.2194
 -27195757.17648 -21176304.19746  20804266.2344                   20804264.2814
 -27178620.81248 -21162406.34847  20526299.0944                   20526297.8054
 -23976849.43046 -18666301.86944  23494431.1094                   23494431.4184
 -13567787.21547 -10556747.23946  22382106.6724                   22382107.5394
 -32239535.88348 -25109396.36346  20972005.1174                   20972001.0514
 -10916353.99247  -8490343.29645  22465021.9844                   22465020.8014
 11  8 26  0 54  0.0000000  0  8G10G29G12G05G04G25G02G30
 -26086073.20748 -20312707.24745  21700786.3204                   21700784.9614
   1749337.34446   1376151.63244  24503585.6094                   24503585.9264
 -27228728.24648 -21201995.93946  20797992.2344                   20797990.2504
 -27248360.93048 -21216749.25847  20513028.3444                   20513026.8134
 -23928080.70747 -18628300.33844  23503712.4454                   23503712.2934
 -13662906.41047 -10630866.03046  22364006.0234                   22364007.0904
 -32247197.38348 -25115366.35646  20970547.1174                   20970543.1684
 -11008640.76247  -8562254.98045  22447460.4844                   22447459.3204
 11  8 26  0 54 30.0000000  0  8G10G29G12G05G04G25G02G30
 -26049138.41847 -20283926.88045  21707814.7274                   21707813.6724
   1636426.97746   1288169.61844  24482099.5004                   24482099.5084
 -27261111.15248 -21227229.39347  20791829.7344                   20791828.2664
 -27317542.16047 -21270656.66947  20499863.7114                   20499861.8984
 -23879337.85947 -18590318.93144  23512987.2034                   23512987.5744
 -13757558.40247 -10704620.78645  22345994.2734                   22345994.8834
 -32254704.81648 -25121216.32746  20969118.4534                   20969114.7894
 -11100410.53547  -8633763.80345  22429996.8754                   22429996.2274
 11  8 26  0 55  0.0000000  0  8G10G29G12G05G04G25G02G30
 -26011723.60948 -20254772.49245  21714934.7034                   21714933.3014
   1523451.59846   1200136.92843  24460601.6094                   24460600.0274
 -27292900.87548 -21252000.59747  20785780.7194                   20785778.9344
 -27386158.35948 -21324123.80047  20486806.4064                   20486804.8134
 -23830616.65647 -18552354.40544  23522258.5164                   23522258.4184
 -13851736.25847 -10778006.09545  22328072.8204                   22328073.5554
 -32262054.64848 -25126943.47346  20967719.8594                   20967715.8554
 -11191656.43447  -8704864.42645  22412633.7424                   22412632.3204
 11  8 26  0 55 30.0000000  0  8G10G29G12G05G04G25G02G30
 -25973835.42648 -20225249.20545  21722144.6564                   21722143.6024
   1410407.97346   1112051.09043  24439089.0474                   24439088.7814
 -27324101.26248 -21276312.59847  20779843.4774                   20779841.3954
 -27454212.83247 -21377153.21747  20473855.6564                   20473854.2074
 -23781921.83647 -18514410.40944  23531524.9534                   23531524.6134
 -13945441.86747 -10851023.42545  22310241.4224                   22310241.9734
 -32269251.64147 -25132551.52846  20966350.2894                   20966346.5744
 -11282380.59047  -8775558.50145  22395368.9454                   22395367.7934
 11  8 26  0 56  0.0000000  0  8G10G29G12G05G04G25G02G30
 -25935475.50448 -20195358.34745  21729443.8594                   21729443.1294
   1297297.84446   1023913.42243  24417565.1024                   24417564.6414
 -27354711.42248 -21300164.66047  20774018.2814                   20774016.5594
 -27521703.28548 -21429743.13447  20461012.8364                   20461011.2814
 -23733253.19547 -18476486.78744  23540786.2424                   23540786.2504
 -14038671.98447 -10923670.23845  22292500.0084                   22292501.1994
 -32276295.54348 -25138040.28446  20965010.0234                   20965005.6214
 -11372579.92647  -8845843.63045  22378204.7664                   22378203.5274
 11  8 26  0 56 30.0000000  0  8G10G29G12G05G04G25G02G30
 -25896645.97748 -20165101.56645  21736833.0554                   21736831.9494
   1184122.09846    935724.60843  24396027.7424                   24396028.1454
 -27384730.59448 -21323556.22447  20768305.9924                   20768303.8634
 -27588628.59048 -21481892.69147  20448277.2194                   20448275.2774
 -23684611.24647 -18438583.97944  23550042.3834                   23550042.5004
 -14131424.31647 -10995944.76846  22274850.1564                   22274850.9694
 -32283187.03948 -25143410.27746  20963698.2814                   20963694.3794
 -11462252.28947  -8915718.13445  22361140.3594                   22361139.4344
 11  8 26  0 57  0.0000000  0  8G10G29G12G05G04G25G02G30
 -25857355.19548 -20134485.37745  21744310.0394                   21744308.9884
   1070875.90646    847480.95243  24374478.1564                   24374477.8634
 -27414164.62548 -21346491.82647  20762704.8914                   20762703.0204
 -27654993.59448 -21533605.64347  20435648.2344                   20435646.8874
 -23636002.38747 -18400706.97744  23559292.8134                   23559292.5824
 -14223702.50047 -11067849.83245  22257290.0944                   22257290.7114
 -32289932.99648 -25148666.87146  20962415.0704                   20962411.3674
 -11551401.33647  -8985184.87045  22344176.0474                   22344175.0434
 11  8 26  0 57 30.0000000  0  8G10G29G12G05G04G25G02G30
 -25817608.57047 -20103513.97745  21751873.5554                   21751872.2234
    957557.21546    759180.73743  24352913.8674                   24352913.5664
 -27443016.53548 -21368973.82047  20757214.3204                   20757212.3404
 -27720800.02748 -21584883.34447  20423125.8204                   20423124.2034
 -23587430.18447 -18362858.48244  23568535.8754                   23568535.2774
 -14315507.18047 -11139385.93846  22239819.9454                   22239821.1684
 -32296536.89847 -25153812.77046  20961158.0474                   20961154.1094
 -11640028.00847  -9054244.56345  22327310.8594                   22327310.0514
 11  8 26  0 58  0.0000000  0  8G10G29G12G05G04G25G02G30
 -25777406.22348 -20072187.47345  21759523.8204                   21759522.5394
    844169.15246    670826.55043  24331337.5394                   24331336.8794
 -27471284.13348 -21391000.51446  20751835.6484                   20751833.5084
 -27786044.89548 -21635723.45547  20410710.1804                   20410708.4384
 -23538892.92247 -18325037.27244  23577772.3834                   23577772.4774
 -14406834.13347 -11210549.80446  22222441.3134                   22222441.9454
 -32302997.74248 -25158847.17646  20959928.3674                   20959924.9654
 -11728128.20747  -9122894.03345  22310546.1724                   22310545.2384
 11  8 26  0 58 30.0000000  0  8G10G29G12G05G04G25G02G30
 -25736747.21148 -20040505.12845  21767261.0944                   21767259.8444
    730716.01646    582421.56543  24309747.7424                   24309747.1764
 -27498963.87148 -21412569.12646  20746568.1254                   20746566.1994
 -27850723.55148 -21686122.36947  20398402.1954                   20398400.3674
 -23490387.69947 -18287241.01344  23587001.9844                   23587002.5164
 -14497677.60547 -11281336.91946  22205154.3834                   22205155.4144
 -32309312.41848 -25163767.69946  20958727.1024                   20958723.0784
 -11815696.35547  -9191128.90645  22293882.6174                   22293881.2934
 11  8 26  0 59  0.0000000  0  8G10G29G12G05G04G25G02G30
 -25695639.36748 -20008473.02045  21775083.3364                   21775081.9344
    617193.27047    493962.39043  24288145.0784                   24288144.4344
 -27526060.59848 -21433683.44946  20741411.5784                   20741409.8054
 -27914840.03948 -21736083.22547  20386201.2034                   20386199.5704
 -23441920.39847 -18249474.28243  23596224.9924                   23596225.1334
 -14588040.60248 -11351749.64646  22187958.9694                   22187959.7774
 -32315487.00448 -25168579.05246  20957552.0784                   20957548.2624
 -11902735.62547  -9258951.68745  22277319.7274                   22277317.7734
 11  8 26  0 59 30.0000000  0  8G10G29G12G05G04G25G02G30
 -25654082.43048 -19976091.00545  21782991.6884                   21782990.2234
    503604.40246    405451.68244  24266529.8364                   24266529.3054
 -27552572.09848 -21454341.76646  20736366.8364                   20736365.1054
 -27978390.94948 -21785603.37747  20374107.7194                   20374106.1604
 -23393488.98047 -18211735.51844  23605440.9614                   23605441.7034
 -14677918.60248 -11421784.42946  22170855.6644                   22170856.3054
 -32321520.10248 -25173280.15746  20956404.0004                   20956400.2424
 -11989241.74247  -9326359.02245  22260857.4534                   22260856.2304
 11  8 26  1  0  0.0000000  0  8G10G29G12G05G04G25G02G30
 -25612083.49648 -19943364.56545  21790983.7584                   21790982.0864
    389946.12946    316886.84244  24244901.3834                   24244900.9264
 -27578502.89548 -21474547.56947  20731432.4384                   20731430.5164
 -28041380.00848 -21834685.72447  20362121.4064                   20362119.3714
 -23345098.53947 -18174028.71843  23614649.7894                   23614650.0044
 -14767313.83648 -11491443.05246  22153844.1414                   22153844.8444
 -32327416.43748 -25177874.68846  20955281.7664                   20955278.1454
 -12075217.05547  -9393352.76545  22244496.9534                   22244495.8834
 11  8 26  1  0 30.0000000  0  8G10G29G12G05G04G25G02G30
 -25569640.27748 -19910291.92745  21799060.4064                   21799058.6884
    276224.19946    228272.44844  24223260.7504                   24223260.4534
 -27603847.84448 -21494296.86146  20726609.2664                   20726607.6954
 -28103801.25848 -21883325.61747  20350242.8914                   20350241.5744
 -23296744.72347 -18136350.43143  23623850.9304                   23623851.1174
 -14856219.36348 -11560720.05046  22136925.8524                   22136926.9924
 -32333172.18748 -25182359.66946  20954186.3914                   20954182.7194
 -12160654.78947  -9459927.61345  22228238.9304                   22228237.8794
 11  8 26  1  1  0.0000000  0  8G10G29G12G05G04G25G02G30
 -25526759.21148 -19876878.11745  21807220.5394                   21807218.7974
    162435.79346    139606.25544  24201607.1954                   24201607.3954
 -27628610.71948 -21513592.61046  20721897.0784                   20721895.1764
 -28165657.77748 -21931525.46747  20338471.9924                   20338470.2234
 -23248431.71547 -18098703.96943  23633044.5474                   23633044.8554
 -14944636.88348 -11629616.80046  22120100.9304                   22120101.9924
 -32338791.86348 -25186738.62546  20953117.1564                   20953113.3874
 -12245556.82847  -9526085.03845  22212082.6564                   22212081.4224
 11  8 26  1  1 30.0000000  0  8G10G29G12G05G04G25G02G30
 -25483437.52748 -19843120.96845  21815464.5634                   21815462.9534
     48586.80146     50892.82444  24179942.4454                   24179942.1254
 -27652787.57848 -21532431.72047  20717296.2344                   20717294.3054
 -28226943.63348 -21979280.64747  20326809.7734                   20326807.8484
 -23200155.14146 -18061085.92243  23642231.8134                   23642232.4924
 -15032559.31248 -11698127.76446  22103369.4614                   22103370.4454
 -32344271.18748 -25191008.21446  20952074.4454                   20952070.4384
 -12329916.32847  -9591819.70445  22196029.4774                   22196028.0664
 11  8 26  1  2  0.0000000  0  8G10G29G12G05G04G25G02G30
 -25439680.14147 -19809024.31945  21823791.4144                   21823789.9064
    -65324.06646    -37868.74544  24158266.2194                   24158265.9384
 -27676380.17648 -21550815.56347  20712806.8134                   20712805.1994
 -28287660.20348 -22026592.22347  20315255.5554                   20315254.1254
 -23151917.77746 -18023498.42443  23651410.7584                   23651411.6054
 -15119986.86748 -11766253.08546  22086732.3284                   22086733.6054
 -32349612.98448 -25195170.62646  20951058.0004                   20951053.8524
 -12413733.66847  -9657131.90645  22180079.5164                   22180078.4304
 11  8 26  1  2 30.0000000  0  8G10G29G12G05G04G25G02G30
 -25395490.71947 -19774591.01345  21832199.6884                   21832198.3404
   -179297.12546   -126678.84544  24136577.2584                   24136576.9494
 -27699389.64848 -21568745.02446  20708427.8594                   20708426.6054
 -28347807.92648 -22073460.53847  20303809.7114                   20303808.2234
 -23103721.18447 -17985942.65144  23660582.3204                   23660582.8954
 -15206918.69948 -11833992.13946  22070189.8834                   22070191.0274
 -32354819.45748 -25199227.60446  20950067.3134                   20950063.3134
 -12497008.06647  -9722021.02045  22164232.8594                   22164231.8404
 11  8 26  1  3  0.0000000  0  8G10G29G12G05G04G25G02G30
 -25350876.68448 -19739826.85445  21840689.6174                   21840688.5084
   -293335.66846   -215539.95644  24114876.9614                   24114876.3484
 -27721820.95748 -21586223.97146  20704159.9454                   20704158.0554
 -28407390.39848 -22119888.40747  20292471.7504                   20292470.0514
 -23055570.59047 -17948422.76844  23669744.5164                   23669745.3054
 -15293357.28548 -11901346.84146  22053741.6884                   22053742.3984
 -32359895.80548 -25203183.17746  20949101.0084                   20949097.4734
 -12579742.44947  -9786489.33845  22148488.9224                   22148488.2384
 11  8 26  1  3 30.0000000  0  8G10G29G12G05G04G25G02G30
 -25305835.40247 -19704729.76345  21849260.6094                   21849259.5274
   -407434.36346   -304447.89744  24093163.9844                   24093163.3874
 -27743669.30548 -21603248.65446  20700002.1414                   20700000.4344
 -28466401.74648 -22165871.23647  20281242.0784                   20281240.1884
 -23007461.30547 -17910935.05444  23678900.2274                   23678900.5124
 -15379295.75048 -11968311.81846  22037387.8444                   22037388.4304
 -32364837.93448 -25207034.16946  20948160.7424                   20948156.9024
 -12661929.95347  -9850531.52345  22132849.0004                   22132848.1804
 11  8 26  1  4  0.0000000  0  8G10G29G12G05G04G25G02G30
 -25260371.28548 -19669303.18745  21857912.3364                   21857911.3204
   -521593.17246   -393402.73944  24071440.4774                   24071440.1764
 -27764936.49648 -21619820.49247  20695955.1484                   20695953.2894
 -28524843.67248 -22211410.36247  20270120.9844                   20270119.1334
 -22959395.70747 -17873481.37544  23688046.7504                   23688046.5514
 -15464733.87548 -12034886.93146  22021129.7034                   22021130.1644
 -32369647.90648 -25210782.18546  20947245.4224                   20947241.6094
 -12743570.66047  -9914147.63645  22117313.6334                   22117312.4574
 11  8 26  1  4 30.0000000  0  8G10G29G12G05G04G25G02G30
 -25214485.34847 -19633547.90645  21866644.2734                   21866642.7464
   -635810.11346   -482402.84944  24049705.8134                   24049705.5164
 -27785621.93448 -21635939.02446  20692019.0704                   20692017.0594
 -28582713.69148 -22256503.85447  20259108.7814                   20259106.7504
 -22911372.90246 -17836061.04844  23697185.0164                   23697185.6254
 -15549668.28148 -12101069.53746  22004967.0084                   22004967.6804
 -32374325.54348 -25214427.07746  20946355.3364                   20946351.2034
 -12824661.43747  -9977335.23045  22101882.6024                   22101881.3444
 11  8 26  1  5  0.0000000  0  8G10G29G12G05G04G25G02G30
 -25168183.07848 -19597468.23345  21875455.1954                   21875453.7344
   -750086.98046   -571449.68544  24027959.5394                   24027958.6564
 -27805728.68448 -21651606.62447  20688192.7424                   20688190.5084
 -28640013.87548 -22301153.30947  20248204.6724                   20248202.7464
 -22863395.97347 -17798676.48844  23706314.3984                   23706315.3794
 -15634099.78548 -12166860.27446  21988899.8984                   21988900.5084
 -32378873.89848 -25217971.23346  20945489.7974                   20945485.8404
 -12905203.22747 -10040095.04145  22086555.9454                   22086554.2584
 11  8 26  1  5 30.0000000  0  8G10G29G12G05G04G25G02G30
 -25121465.35547 -19561064.82445  21884345.4844                   21884344.0044
   -864420.98446   -660541.02743  24006202.1174                   24006201.8164
 -27825254.53948 -21666821.59147  20684477.2034                   20684475.1094
 -28696741.97348 -22345356.99547  20237410.1254                   20237408.0944
 -22815463.69546 -17761326.67644  23715436.3674                   23715437.0004
 -15718024.77048 -12232256.32546  21972929.3674                   21972930.3444
 -32383292.23848 -25221414.07646  20944648.9304                   20944644.5664
 -12985192.68047 -10102424.47245  22071334.6414                   22071333.0944
 11  8 26  1  6  0.0000000  0  8G10G29G12G05G04G25G02G30
 -25074335.01647 -19524339.90245  21893314.1484                   21893312.3134
   -978810.94546   -749676.02243  23984434.2114                   23984434.2344
 -27844200.40648 -21681584.60946  20680871.9224                   20680869.6414
 -28752897.15248 -22389114.24047  20226724.0084                   20226721.8484
 -22767576.31247 -17724011.87944  23724549.3834                   23724549.4964
 -15801441.25448 -12297256.14246  21957055.8984                   21957056.1254
 -32387581.19548 -25224756.09946  20943832.7504                   20943828.9064
 -13064627.96947 -10164322.05845  22056218.1174                   22056217.5354
 11  8 26  1  6 30.0000000  0  8G10G29G12G05G04G25G02G30
 -25026792.83647 -19487294.06045  21902361.3284                   21902359.5864
  -1093254.83646   -838853.01744  23962656.5944                   23962655.8164
 -27862565.71948 -21695895.25347  20677377.0634                   20677374.9024
 -28808477.50048 -22432423.56847  20216147.2974                   20216145.5084
 -22719733.19947 -17686731.54844  23733653.4454                   23733653.2504
 -15884346.01648 -12361857.21146  21941279.5474                   21941280.4494
 -32391739.99248 -25227996.71346  20943041.4774                   20943037.5204
 -13143506.18447 -10225785.58145  22041207.9694                   22041206.6094
 11  8 26  1  7  0.0000000  0  8G10G29G12G05G04G25G02G30
 -24978846.06648 -19449932.95645  21911484.8674                   21911483.6094
  -1207755.49246   -928074.27944  23940867.8914                   23940866.9264
 -27880354.33648 -21709756.51946  20673991.9614                   20673989.9884
 -28863486.71148 -22475287.85247  20205679.1564                   20205677.5434
 -22671938.77347 -17649489.16943  23742747.8054                   23742748.6414
 -15966741.41848 -12426061.39346  21925600.0864                   21925601.3244
 -32395773.71948 -25231139.86646  20942273.8284                   20942269.7774
 -13221829.88747 -10286816.99245  22026303.7344                   22026302.6994
 11  8 26  1  7 30.0000000  0  8G10G29G12G05G04G25G02G30
 -24930494.33647 -19412256.28445  21920685.8134                   21920684.7934
  -1322308.93746  -1017336.59644  23919069.3204                   23919068.2154
 -27897564.48448 -21723167.03546  20670716.7974                   20670715.1094
 -28917921.27748 -22517704.36247  20195320.3914                   20195318.8914
 -22624190.84047 -17612283.01043  23751833.9694                   23751834.6094
 -16048622.78148 -12489865.01046  21910018.9774                   21910019.4654
 -32399680.06648 -25234183.75746  20941530.2584                   20941526.4144
 -13299594.59447 -10347412.82445  22011505.7734                   22011504.0824
 11  8 26  1  8  0.0000000  0  8G10G29G12G05G04G25G02G30
 -24881737.66047 -19374264.08345  21929964.3524                   21929962.7934
  -1436911.46146  -1106637.25844  23897260.9844                   23897260.2704
 -27914193.42248 -21736124.64746  20667552.6174                   20667551.1994
 -28971778.23848 -22559670.80447  20185072.0634                   20185069.9414
 -22576486.94946 -17575111.17643  23760912.2664                   23760912.0554
 -16129985.54348 -12553264.52446  21894535.5084                   21894536.5904
 -32403457.08248 -25237126.87446  20940811.7424                   20940807.8634
 -13376796.04747 -10407569.78145  21996814.3284                   21996813.1484
 11  8 26  1  8 30.0000000  0  8G10G29G12G05G04G25G02G30
 -23257163.18047 -18108361.89545  22239110.3914                   22239109.0044
     23859.28146     31625.66544  24175236.0084                   24175235.5124
 -26354823.33248 -20521031.08847  20964290.7424                   20964289.2854
 -27449637.46148 -21373587.03247  20474725.7814                   20474723.8284
 -20953411.58246 -16310377.14543  24069773.4064                   24069773.4454
 -14635407.73048 -11388658.41146  22178944.5164                   22178945.1764
 -30831687.69148 -24012371.50646  21239909.2974                   21239905.4494
 -11878012.66847  -9239686.58145  22282023.5944                   22282022.2384
 11  8 26  1  9  0.0000000  0  8G10G29G12G05G04G25G02G30
 -23207612.74247 -18069751.19445  22248539.4534                   22248537.9414
    -90846.21947    -57755.16944  24153408.1024                   24153407.6884
 -26370299.68448 -20533090.58646  20961345.7894                   20961343.8794
 -27502345.41048 -21414658.13347  20464695.5944                   20464693.8674
 -20905805.05947 -16273281.15843  24078832.4924                   24078832.5864
 -14715735.98448 -11451251.82846  22163658.5634                   22163659.5554
 -30835216.01648 -24015120.84146  21239238.0234                   21239233.9304
 -11954091.04347  -9298968.40345  22267546.2584                   22267545.2074
 11  8 26  1  9 30.0000000  0  8G10G29G12G05G04G25G02G30
 -23157666.05947 -18030831.71345  22258043.7584                   22258042.8324
   -205598.05147   -147172.17044  24131571.8134                   24131571.2304
 -26385197.34848 -20544699.16446  20958510.7814                   20958508.9454
 -27554475.00848 -21455278.56747  20454775.7664                   20454774.1484
 -20858244.49646 -16236220.99643  24087882.6644                   24087882.8524
 -14795541.06648 -11513437.58846  22148472.0554                   22148472.4024
 -30838617.69148 -24017771.49546  21238590.2974                   21238586.5354
 -12029602.28547  -9357808.30145  22253176.8674                   22253175.5664
 11  8 26  1 10  0.0000000  0  8G10G29G12G05G04G25G02G30
 -23107326.69147 -17991606.25745  22267623.1954                   22267622.0704
   -320396.01647   -236625.09544  24109726.6334                   24109726.1484
 -26399517.13748 -20555857.45247  20955785.8134                   20955783.7894
 -27606026.54348 -21495448.55647  20444965.8444                   20444964.0824
 -20810731.12146 -16199197.64943  24096924.1804                   24096924.6024
 -14874821.98448 -11575214.89546  22133385.5634                   22133385.9574
 -30841894.33648 -24020324.73446  21237967.0004                   21237963.0554
 -12104545.73447  -9416205.75345  22238915.3524                   22238914.8164
 11  8 26  1 10 30.0000000  0  8G10G29G12G05G04G25G02G30
 -23056599.40247 -17952078.51245  22277276.0634                   22277275.0554
   -435241.26647   -326114.89144  24087872.3834                   24087871.3444
 -26413262.35248 -20566568.00246  20953170.2114                   20953168.3594
 -27657001.39848 -21535169.19347  20435265.3284                   20435263.6684
 -20763267.03946 -16162212.64443  24105956.3984                   24105956.4884
 -14953578.89548 -11636583.90546  22118398.7894                   22118399.2934
 -30845048.04348 -24022782.16246  21237367.0704                   21237362.8984
 -12178921.80547  -9474161.09545  22224761.8204                   22224760.8714
 11  8 26  1 11  0.0000000  0  8G10G29G12G05G04G25G02G30
 -23005486.31247 -17912250.15245  22287002.8834                   22287001.6764
   -550132.38747   -415640.42544  24066009.1884                   24066008.4144
 -26426433.20748 -20576831.02047  20950664.0704                   20950662.1804
 -27707399.13748 -21574440.11947  20425675.1724                   20425673.4144
 -20715852.65646 -16125266.39943  24114979.1024                   24114978.9344
 -15031809.96148 -11697543.16446  22103511.8284                   22103512.5904
 -30848079.84447 -24025144.61346  21236790.3594                   21236786.2544
 -12252728.90647  -9531673.10445  22210717.3054                   22210716.2814
 11  8 26  1 11 30.0000000  0  8G10G29G12G05G04G25G02G30
 -22953991.82847 -17872124.60045  22296801.4454                   22296800.5664
   -665069.61347   -505201.88144  24044137.3524                   24044136.7424
 -26439031.75448 -20586648.07046  20948266.5474                   20948264.6564
 -27757221.09448 -21613262.39847  20416194.2424                   20416192.6954
 -20668489.69146 -16088360.22143  24123991.9924                   24123991.7074
 -15109514.86748 -11758092.40846  22088724.6334                   22088725.9224
 -30850991.35948 -24027413.32246  21236235.8834                   21236231.9614
 -12325966.95347  -9588741.67245  22196780.1884                   22196779.2464
 11  8 26  1 12  0.0000000  0  8G10G29G12G05G04G25G02G30
 -22902117.43047 -17831703.00345  22306673.0004                   22306672.0164
   -780050.33247   -594797.23344  24022256.2894                   24022256.2854
 -26451057.45748 -20596018.75746  20945978.0234                   20945976.1914
 -27806465.57848 -21651634.68647  20406822.9844                   20406821.5394
 -20621177.07446 -16051493.28543  24132995.2344                   24132995.4144
 -15186690.75848 -11818229.44646  22074038.5314                   22074039.3714
 -30853782.32447 -24029588.10946  21235704.7504                   21235701.1334
 -12398633.39147  -9645364.84745  22182952.4064                   22182951.1414
 11  8 26  1 12 30.0000000  0  8G10G29G12G05G04G25G02G30
 -22849866.66847 -17790988.14745  22316616.1644                   22316615.3794
   -895074.68047   -684426.58644  24000368.8284                   24000368.1484
 -26462511.91448 -20604944.31547  20943798.3914                   20943796.6604
 -27855133.18048 -21689557.45247  20397562.2504                   20397560.6174
 -20573916.40246 -16014666.78843  24141989.0004                   24141988.8404
 -15263337.03548 -11877953.78646  22059453.5314                   22059454.5984
 -30856454.35948 -24031670.21346  21235196.4694                   21235192.5864
 -12470727.93747  -9701542.40645  22169233.0704                   22169232.0554
 11  8 26  1 13  0.0000000  0  8G10G29G12G05G04G25G02G30
 -22797244.42247 -17749983.82745  22326629.8524                   22326628.5084
  -1010143.19147   -774090.30144  23978472.0634                   23978471.7584
 -26473397.66448 -20613426.72646  20941726.8674                   20941724.9844
 -27903225.73048 -21727032.13847  20388410.3754                   20388408.8014
 -20526709.73846 -15977882.38043  24150971.6954                   24150972.2894
 -15339454.01648 -11937265.70946  22044968.9534                   22044969.9024
 -30859009.93448 -24033661.57746  21234710.0634                   21234706.0594
 -12542251.17647  -9757274.79145  22155622.7034                   22155621.5944
 11  8 26  1 13 30.0000000  0  8G10G29G12G05G04G25G02G30
 -22744247.04747 -17708687.19845  22336715.3674                   22336714.3794
  -1125248.62947   -863782.78144  23956568.1334                   23956567.6604
 -26483709.62148 -20621462.02246  20939764.6024                   20939763.0004
 -27950736.64148 -21764053.60247  20379369.3754                   20379367.6374
 -20479551.46546 -15941135.71143  24159945.8914                   24159946.7464
 -15415033.93447 -11996159.11946  22030586.0394                   22030587.3524
 -30861443.44948 -24035557.83046  21234247.1414                   21234243.1844
 -12613195.59047  -9812556.11545  22142122.6174                   22142121.5594
 11  8 26  1 14  0.0000000  0  8G10G29G12G05G04G25G02G30
 -22690880.34447 -17667102.78745  22346870.5864                   22346869.2274
  -1240393.05147   -953505.68544  23934657.1414                   23934656.5004
 -26493451.50448 -20629053.10546  20937910.8054                   20937909.0704
 -27997668.96148 -21800624.21147  20370438.3444                   20370436.7194
 -20432444.75846 -15904429.20643  24168909.8834                   24168910.1524
 -15490078.30548 -12054635.24646  22016305.9144                   22016306.8714
 -30863758.57848 -24037361.84046  21233806.8594                   21233802.7344
 -12683562.93447  -9867387.81045  22128732.1094                   22128730.9884
 11  8 26  1 14 30.0000000  0  8G10G29G12G05G04G25G02G30
 -22637152.46947 -17625236.93145  22357094.6954                   22357093.7584
  -1355580.11747  -1043261.73044  23912737.4224                   23912737.0234
 -26502629.07848 -20636204.47546  20936164.2894                   20936162.5394
 -28044027.81248 -21836747.95947  20361616.8134                   20361614.6564
 -20385395.29346 -15867767.33143  24177863.5004                   24177863.6914
 -15564590.73048 -12112696.85146  22002126.9064                   22002127.5824
 -30865961.28148 -24039078.23246  21233387.0784                   21233383.3594
 -12753357.21947  -9921772.95345  22115450.5944                   22115449.5514
 11  8 26  1 15  0.0000000  0  8G10G29G12G05G04G25G02G30
 -22583060.43047 -17583087.30445  22367387.9304                   22367386.5784
  -1470803.14547  -1133045.83644  23890811.3054                   23890810.4414
 -26511237.90648 -20642912.65246  20934526.2274                   20934524.3834
 -28089807.47348 -21872420.39247  20352905.0784                   20352903.0314
 -20338397.59046 -15831145.80443  24186806.5784                   24186806.9304
 -15638563.99648 -12170338.33846  21988050.0634                   21988050.8874
 -30868046.05948 -24040702.73746  21232990.9144                   21232986.6254
 -12822571.42247  -9975706.08445  22102279.9534                   22102278.3634
 11  8 26  1 15 30.0000000  0  8G10G29G12G05G04G25G02G30
 -22528608.87547 -17540657.55545  22377749.8594                   22377748.5984
  -1586063.41847  -1222858.92044  23868877.4924                   23868877.1764
 -26519281.19148 -20649180.15647  20932995.5234                   20932993.5434
 -28135009.93448 -21907643.05747  20344303.6644                   20344301.8404
 -20291454.29346 -15794566.66343  24195739.3134                   24195740.0554
 -15711999.01248 -12227560.41346  21974075.8984                   21974076.7974
 -30870016.44948 -24042238.10846  21232615.3444                   21232611.7894
 -12891206.82847 -10029188.20845  22089219.1094                   22089217.4064
 11  8 26  1 16  0.0000000  0  8G10G29G12G05G04G25G02G30
 -22473802.87947 -17497951.60545  22388179.3054                   22388178.1134
  -1701361.48447  -1312701.43744  23846936.6334                   23846936.8794
 -26526761.52348 -20655008.99846  20931572.0704                   20931570.0354
 -28179637.05148 -21942417.40847  20335811.1644                   20335808.9534
 -20244567.66046 -15758031.63043  24204662.0704                   24204662.1844
 -15784896.21548 -12284363.39646  21960203.9224                   21960204.6914
 -30871874.69948 -24043686.10246  21232262.0234                   21232258.4144
 -12959264.03947 -10082219.77545  22076267.5864                   22076266.5434
 11  8 26  1 16 30.0000000  0  8G10G29G12G05G04G25G02G30
 -22418641.81247 -17454968.98445  22398675.8444                   22398674.5984
  -1816692.93747  -1402569.95344  23824989.7894                   23824989.5394
 -26533676.76648 -20660397.50046  20930256.0164                   20930254.4534
 -28223685.27048 -21976740.66047  20327428.9064                   20327427.0004
 -20197734.44546 -15721538.28843  24213573.8054                   24213574.2774
 -15857250.67247 -12340743.46546  21946435.1724                   21946436.0474
 -30873617.84048 -24045044.39146  21231930.2114                   21231926.4534
 -13026738.55547 -10134797.28145  22063427.5704                   22063426.3594
 11  8 26  1 17  0.0000000  0  9G26G10G29G12G05G04G25G02G30
   4545002.82456   3555839.59953  24884096.7114                   24884098.8714
 -22363127.67247 -17411711.22345  22409239.7894                   22409238.5944
  -1932055.42247  -1492462.68244  23803037.0554                   23803036.3324
 -26540026.67648 -20665345.48946  20929047.6884                   20929045.8524
 -28267153.92648 -22010612.31147  20319157.2894                   20319155.2814
 -20150954.21546 -15685086.20043  24222476.7734                   24222476.7114
 -15929060.15248 -12396698.88446  21932770.2034                   21932770.9494
 -30875245.71548 -24046312.87746  21231620.5164                   21231616.5554
 -13093628.35547 -10186919.18045  22050698.9454                   22050697.9494
 11  8 26  1 17 30.0000000  0  9G26G10G29G12G05G04G25G02G30
   4421610.65646   3459690.21043  24860615.0234                   24860618.4454
 -22307271.98047 -17368187.32545  22419868.8674                   22419867.7074
  -2047456.28147  -1582385.35244  23781077.0554                   23781075.9574
 -26545820.89548 -20669860.47246  20927945.2274                   20927943.5784
 -28310051.66448 -22044039.08847  20310994.0864                   20310992.0044
 -20104235.88746 -15648682.34643  24231366.1174                   24231366.9454
 -16000331.92248 -12452235.29746  21919207.9614                   21919208.8364
 -30876767.98047 -24047499.06146  21231330.6024                   21231326.9024
 -13159941.12947 -10238591.44545  22038080.2664                   22038078.7504
 11  8 26  1 18  0.0000000  0  9G26G10G29G12G05G04G25G02G30
   4298066.59846   3363422.33743  24837105.3524                   24837108.6414
 -22251082.27347 -17324403.16645  22430561.1804                   22430559.9104
  -2162899.45347  -1672340.96544  23759108.8754                   23759107.6024
 -26551065.33248 -20673947.06246  20926947.1884                   20926945.3874
 -28352383.16848 -22077024.64847  20302938.6954                   20302936.5664
 -20057584.37146 -15612330.51743  24240243.8834                   24240244.7854
 -16071069.35248 -12507355.35246  21905747.1414                   21905747.6844
 -30878189.27748 -24048606.57146  21231060.2974                   21231056.7274
 -13225680.49647 -10289816.88445  22025570.7344                   22025568.7624
 11  8 26  1 18 30.0000000  0  9G26G10G29G12G05G04G25G02G30
   4174375.04746   3267039.62943  24813567.1724                   24813569.9304
 -22194559.60246 -17280359.55345  22441317.3134                   22441316.1254
  -2278382.08247  -1762327.28744  23737133.4224                   23737132.0594
 -26555758.79748 -20677604.31146  20926053.8284                   20926052.4414
 -28394146.85248 -22109567.75147  20294991.3364                   20294989.1764
 -20010998.37546 -15576029.77443  24249108.5784                   24249109.7424
 -16141269.45348 -12562056.70546  21892388.3524                   21892389.2304
 -30879508.84448 -24049634.80446  21230809.5004                   21230805.6524
 -13290843.78547 -10340593.43945  22013170.4144                   22013168.9924
 11  8 26  1 19  0.0000000  0  9G26G10G29G12G05G04G25G02G30
   4050543.16446   3170547.55443  24790001.9534                   24790005.8094
 -22137702.20746 -17236055.13445  22452136.7814                   22452135.6884
  -2393898.04347  -1852339.62344  23715150.8524                   23715150.3324
 -26559898.93748 -20680830.40746  20925266.1724                   20925264.2344
 -28435338.53148 -22141665.12847  20287152.4064                   20287150.6294
 -19964473.81646 -15539776.84243  24257961.9224                   24257962.5234
 -16210926.53948 -12616334.94346  21879132.8674                   21879133.6414
 -30880722.84847 -24050580.78046  21230578.1954                   21230574.5124
 -13355425.69147 -10390916.96645  22000880.5944                   22000879.1294
 11  8 26  1 19 30.0000000  0  9G26G10G29G12G05G04G25G02G30
   3926576.46146   3073950.35443  24766412.7194                   24766415.0824
 -22080510.51646 -17191490.18745  22463019.9924                   22463018.9884
  -2509443.64547  -1942375.07144  23693163.5944                   23693162.4064
 -26563484.08247 -20683624.03346  20924583.8914                   20924582.2894
 -28475955.75048 -22173314.88447  20279423.3754                   20279421.3054
 -19918008.33246 -15503570.02643  24266804.0864                   24266804.9224
 -16280036.77348 -12670187.06246  21865981.5864                   21865982.2344
 -30881829.39547 -24051443.02246  21230367.9064                   21230363.8524
 -13419422.57847 -10440784.64045  21988702.5474                   21988701.2344
 11  8 26  1 20  0.0000000  0  9G26G10G29G12G05G04G25G02G30
   3802476.47746   2977249.31243  24742797.1024                   24742799.3284
 -22022988.42646 -17146667.81345  22473966.2894                   22473965.0004
  -2625019.30547  -2032433.92944  23671170.0944                   23671168.4614
 -26566516.44147 -20685986.91146  20924007.0634                   20924005.1054
 -28515999.74248 -22204517.96747  20271803.1884                   20271801.3594
 -19871603.59446 -15467410.49943  24275634.8444                   24275635.6804
 -16348600.13347 -12723613.04246  21852934.6884                   21852935.0904
 -30882830.39547 -24052223.01246  21230177.1094                   21230173.2814
 -13482834.92247 -10490196.82145  21976635.3914                   21976634.0904
 11  8 26  1 20 30.0000000  0  9G26G10G29G12G05G04G25G02G30
   3678253.90246   2880452.79943  24719157.7274                   24719159.3524
 -21965131.18046 -17101584.26845  22484976.0234                   22484974.8594
  -2740615.78947  -2122509.04044  23649172.5634                   23649172.1804
 -26568989.68447 -20687914.12746  20923536.2274                   20923534.5594
 -28555463.30548 -22235268.77247  20264293.4534                   20264291.6844
 -19825252.02346 -15431292.45043  24284455.1644                   24284455.9694
 -16416607.81648 -12776606.04046  21839993.0234                   21839993.6174
 -30883718.65247 -24052915.16746  21230008.3364                   21230004.2274
 -13545654.12547 -10539146.82145  21964681.4144                   21964679.9574
 11  8 26  1 21  0.0000000  0  9G26G10G29G12G05G04G25G02G30
   3553903.54346   2783556.62343  24695494.7894                   24695496.1684
 -21906949.62147 -17056248.01245  22496047.7814                   22496046.4304
  -2856239.75047  -2212605.54644  23627170.4924                   23627169.3524
 -26570912.91847 -20689412.76246  20923170.3984                   20923168.5634
 -28594354.46148 -22265573.54847  20256892.6954                   20256890.7114
 -19778962.06246 -15395222.38943  24293264.0004                   24293264.5904
 -16484066.45748 -12829171.22646  21827156.0864                   21827156.5514
 -30884502.52347 -24053525.96746  21229859.1724                   21229855.2154
 -13607887.14547 -10587640.05245  21952838.8054                   21952837.6054
 11  8 26  1 21 30.0000000  0  9G26G10G29G12G05G04G25G02G30
   3429429.03546   2686563.81143  24671807.4384                   24671809.3524
 -21848446.21146 -17010660.96645  22507180.7584                   22507179.2974
  -2971889.59447  -2302722.25144  23605162.4224                   23605161.9734
 -26572286.71548 -20690483.26146  20922909.0634                   20922906.9804
 -28632672.88348 -22295432.02947  20249600.9534                   20249599.2504
 -19732733.27746 -15359200.00643  24302060.8754                   24302061.9654
 -16550974.46148 -12881307.32846  21814424.3754                   21814424.6094
 -30885182.33647 -24054055.68146  21229729.5554                   21229725.7624
 -13669532.73047 -10635675.57045  21941107.4844                   21941106.8134
 11  8 26  1 22  0.0000000  0  9G26G10G29G12G05G04G25G02G30
   3304834.86746   2589477.68043  24648098.4454                   24648099.5824
 -21789622.14147 -16964824.04845  22518374.7734                   22518373.6994
  -3087562.14847  -2392856.68044  23583150.5784                   23583150.0124
 -26573110.43048 -20691125.12846  20922752.0634                   20922750.3634
 -28670417.38748 -22324843.29947  20242418.2814                   20242416.1484
 -19686564.23046 -15323224.17143  24310846.6884                   24310847.0944
 -16617328.85948 -12933012.07246  21801797.3054                   21801797.7034
 -30885756.91048 -24054503.41146  21229620.7504                   21229616.3054
 -13730588.44547 -10683251.44645  21929489.5864                   21929488.5044
 11  8 26  1 22 30.0000000  0  9G26G10G29G12G05G04G25G02G30
   3180127.86746   2492303.61343  24624366.5314                   24624367.9144
 -21730476.39846 -16918736.48345  22529629.6094                   22529628.3134
  -3203252.23447  -2483004.70944  23561135.9064                   23561134.8244
 -26573381.48448 -20691336.34646  20922700.5234                   20922698.5234
 -28707584.16448 -22353804.40447  20235345.9454                   20235344.0084
 -19640451.10246 -15287291.91043  24319621.5084                   24319622.0984
 -16683124.71947 -12984281.58346  21789277.0234                   21789277.1334
 -30886222.80548 -24054866.43846  21229531.4064                   21229527.8364
 -13791049.48047 -10730363.93845  21917984.0784                   21917983.0164
 11  8 26  1 23  0.0000000  0  9G26G10G29G12G05G04G25G02G30
   3055309.68446   2395042.94943  24600614.6414                   24600615.7154
 -21671012.91847 -16872401.32644  22540945.4224                   22540944.2034
  -3318960.32447  -2573166.78545  23539117.0004                   23539116.5164
 -26573103.05148 -20691119.39346  20922753.4534                   20922751.6914
 -28744174.94148 -22382316.67647  20228382.6954                   20228380.8204
 -19594395.92646 -15251404.64443  24328385.9224                   24328386.4494
 -16748362.24248 -13035116.03046  21776862.2974                   21776863.0864
 -30886582.22747 -24055146.49846  21229463.2664                   21229459.6524
 -13850916.52747 -10777013.59445  21906591.7424                   21906590.6764
 11  8 26  1 23 30.0000000  0  9G26G10G29G12G05G04G25G02G30
   2930377.57445   2297693.56143  24576840.8204                   24576841.1684
 -21611240.24247 -16825825.22644  22552319.5234                   22552318.8444
  -3434690.32847  -2663345.98944  23517094.9454                   23517093.5434
 -26572281.85547 -20690479.51846  20922909.8364                   20922907.9654
 -28780195.81247 -22410384.85647  20221528.2584                   20221526.1334
 -19548404.00846 -15215566.83043  24337137.9304                   24337138.0474
 -16813046.00847 -13085518.99146  21764553.4384                   21764553.7704
 -30886841.00847 -24055348.13746  21229414.0234                   21229410.2304
 -13910194.37547 -10823204.11845  21895311.7424                   21895310.4024
 11  8 26  1 24  0.0000000  0  9G26G10G29G12G05G04G25G02G30
   2805339.98846   2200261.93943  24553045.7424                   24553048.1564
 -21551155.80546 -16779006.22944  22563753.1724                   22563752.1724
  -3550435.69547  -2753537.14244  23495068.6484                   23495067.7114
 -26570913.41447 -20689413.22046  20923170.3284                   20923168.2274
 -28815641.59048 -22438004.92647  20214783.3524                   20214781.0904
 -19502470.37546 -15179774.36443  24345878.5084                   24345879.1214
 -16877169.37948 -13135485.27546  21752351.3914                   21752351.7974
 -30886993.99247 -24055467.33246  21229384.9534                   21229381.0394
 -13968876.82847 -10868930.71345  21884144.8054                   21884143.3484
 11  8 26  1 24 30.0000000  0  9G26G10G29G12G05G04G25G02G30
   2680199.76246   2102750.32643  24529232.8204                   24529234.5864
 -21490762.66847 -16731946.63644  22575245.6174                   22575244.5824
  -3666194.84446  -2843739.00844  23473040.8134                   23473039.8484
 -26568999.55548 -20687921.91646  20923534.3364                   20923533.1604
 -28850512.77747 -22465177.25147  20208147.5164                   20208145.0084
 -19456595.34046 -15144027.64543  24354608.1414                   24354608.3794
 -16940731.55947 -13185014.25746  21740255.9614                   21740256.7114
 -30887042.14547 -24055504.84446  21229375.3674                   21229371.3954
 -14026963.52047 -10914193.07845  21873091.3284                   21873090.0434
 11  8 26  1 25  0.0000000  0  9G26G10G29G12G05G04G25G02G30
   2554955.30546   2005157.54243  24505399.4534                   24505401.3324
 -21430068.11747 -16684652.20044  22586795.5944                   22586794.6604
  -3781971.48847  -2933954.53044  23451009.3284                   23451008.0824
 -26566545.94548 -20686010.01646  20924001.2274                   20923999.3134
 -28884814.24648 -22491905.63747  20201620.1254                   20201617.6644
 -19410783.80946 -15108330.29943  24363326.1644                   24363326.7464
 -17003736.08647 -13234108.69746  21728266.2194                   21728266.9614
 -30886990.60948 -24055464.67846  21229385.5314                   21229381.9304
 -14084458.27047 -10958994.20645  21862150.5474                   21862148.9734
 11  8 26  1 25 30.0000000  0  9G26G10G29G12G05G04G25G02G30
   2429612.75846   1907488.26643  24481546.9694                   24481549.4494
 -21369071.93747 -16637122.75045  22598402.7034                   22598401.3984
  -3897760.70746  -3024179.85244  23428975.0394                   23428973.7934
 -26563551.38748 -20683676.60246  20924571.2194                   20924569.7624
 -28918543.63348 -22518188.25447  20195201.4304                   20195199.4964
 -19365032.59846 -15072679.98143  24372032.1564                   24372032.9454
 -17066178.93447 -13282765.46646  21716383.7894                   21716384.8674
 -30886836.64848 -24055344.70846  21229414.7034                   21229411.4184
 -14141357.39147 -11003331.20145  21851322.7504                   21851321.1374
 11  8 26  1 26  0.0000000  0  9G26G10G29G12G05G04G25G02G30
   2304176.66446   1809746.07243  24457677.2894                   24457679.0984
 -21307775.27747 -16589359.12945  22610066.8444                   22610065.8364
  -4013559.67246  -3114412.78944  23406938.7974                   23406938.0164
 -26560015.37548 -20680921.27846  20925244.2584                   20925242.1174
 -28951699.31247 -22544023.81747  20188892.0314                   20188889.8324
 -19319340.39846 -15037075.67943  24380726.4534                   24380727.9184
 -17128057.28547 -13330982.38146  21704608.9924                   21704609.2814
 -30886579.23448 -24055144.11446  21229463.6254                   21229459.7424
 -14197658.49647 -11047202.19345  21840609.0474                   21840607.8244
 11  8 26  1 26 30.0000000  0  9G26G10G29G12G05G04G25G02G30
   2178648.99646   1711932.60643  24433789.9224                   24433791.9414
 -21246182.27047 -16541364.61344  22621787.9304                   22621786.7194
  -4129368.41446  -3204653.32145  23384901.6724                   23384900.8094
 -26555940.55548 -20677746.10946  20926019.6564                   20926018.1134
 -28984283.47348 -22569414.04347  20182691.7584                   20182689.4304
 -19273708.70746 -15001518.43343  24389410.6334                   24389410.6524
 -17189371.54747 -13378759.71046  21692941.2734                   21692942.0314
 -30886220.04747 -24054864.21746  21229532.1804                   21229528.6374
 -14253362.34847 -11090607.80645  21830008.8524                   21830007.5124
 11  8 26  1 27  0.0000000  0  9G26G10G29G12G05G04G25G02G30
   2053030.64546   1614048.39344  24409885.3524                   24409887.5474
 -21184298.05947 -16493143.17244  22633564.3134                   22633562.9414
  -4245187.59446  -3294901.98345  23362861.8834                   23362860.8874
 -26551330.73848 -20674154.04346  20926896.9694                   20926895.2344
 -29016298.69948 -22594360.94847  20176599.2274                   20176597.2664
 -19228139.77046 -14966010.21443  24398082.0234                   24398082.5784
 -17250123.09447 -13426098.56546  21681380.3834                   21681381.1844
 -30885762.03947 -24054507.30946  21229619.1954                   21229615.6094
 -14308470.62147 -11133549.33845  21819522.2894                   21819520.5204
 11  8 26  1 27 30.0000000  0  9G26G10G29G12G05G04G25G02G30
   1927324.02347   1516095.42443  24385964.1644                   24385965.0084
 -21122125.90247 -16444697.37644  22645394.9144                   22645393.9494
  -4361016.10546  -3385157.93145  23340820.3364                   23340819.2734
 -26546187.71148 -20670146.50946  20927875.7274                   20927873.9924
 -29047746.09447 -22618865.38447  20170614.7274                   20170613.0434
 -19182634.09447 -14930551.23843  24406741.2424                   24406741.6564
 -17310311.30947 -13472998.46746  21669927.2664                   21669927.6374
 -30885205.60947 -24054073.72246  21229725.3834                   21229721.5554
 -14362983.13347 -11176026.62645  21809148.8914                   21809147.5124
 11  8 26  1 28  0.0000000  0  9G26G10G29G12G05G04G25G02G30
   1801533.29347   1418076.94644  24362027.1024                   24362028.1764
 -21059667.48046 -16396028.47244  22657280.5234                   22657279.6564
  -4476851.46546  -3475419.20745  23318777.2974                   23318776.7194
 -26540512.14848 -20665723.99846  20928955.7344                   20928953.9804
 -29078624.98047 -22642926.82447  20164738.8364                   20164737.1994
 -19137190.91846 -14895141.02743  24415389.0864                   24415389.7194
 -17369934.25047 -13519457.88646  21658580.7344                   21658581.5744
 -30884550.49247 -24053563.22846  21229850.0004                   21229845.6884
 -14416898.31247 -11218038.45245  21798889.1564                   21798888.1294
 11  8 26  1 28 30.0000000  0  9G26G10G29G12G05G04G25G02G30
   1675661.66447   1319995.37944  24338074.2194                   24338075.7734
 -20996925.65246 -16347138.76744  22669219.7034                   22669218.7154
  -4592692.47747  -3565684.88344  23296734.1484                   23296732.8204
 -26534304.95748 -20660887.24246  20930136.9614                   20930134.8284
 -29108935.88348 -22666545.69847  20158970.8204                   20158968.8954
 -19091810.14546 -14859779.30643  24424024.7114                   24424025.2974
 -17428991.12148 -13565476.20746  21647342.9774                   21647343.5314
 -30883796.79347 -24052975.93046  21229993.3364                   21229989.2464
 -14470215.73847 -11259584.50745  21788743.2274                   21788742.2034
 11  8 26  1 29  0.0000000  0  9G26G10G29G12G05G04G25G02G30
   1549712.32047   1221853.30844  24314106.5704                   24314108.2934
 -20933902.98846 -16298030.20644  22681212.3914                   22681211.3404
  -4708537.39847  -3655953.60945  23274689.3134                   23274688.0204
 -26527568.29348 -20655637.89046  20931418.6174                   20931416.9494
 -29138679.18048 -22689722.26547  20153310.9064                   20153309.0314
 -19046491.91846 -14824466.42743  24432648.1954                   24432648.5554
 -17487480.79748 -13611052.56346  21636212.8914                   21636213.6804
 -30882945.12547 -24052312.26946  21230155.0554                   21230151.3954
 -14522934.68048 -11300664.20445  21778711.3674                   21778709.9454
 11  8 26  1 29 30.0000000  0  9G26G10G29G12G05G04G25G02G30
   1423690.18046   1123654.46743  24290125.8204                   24290126.7774
 -20870600.53946 -16248703.63644  22693258.5164                   22693257.5164
  -4824383.10947  -3746222.94845  23252644.0394                   23252643.2464
 -26520301.77348 -20649975.68046  20932801.6254                   20932799.7194
 -29167853.79748 -22712455.71147  20147759.2584                   20147757.2664
 -19001234.38746 -14789200.82543  24441260.9304                   24441261.2154
 -17545400.81647 -13656185.02146  21625191.0864                   21625191.9694
 -30881993.97747 -24051571.09946  21230336.4144                   21230332.3594
 -14575053.04347 -11341275.91745  21768793.6954                   21768792.5314
 11  8 26  1 30  0.0000000  0  9G26G10G29G12G05G04G25G02G30
   1297597.50046   1025400.63743  24266130.2424                   24266131.6174
 -20807022.16847 -16199162.04244  22705357.1804                   22705355.9614
  -4940228.93447  -3836492.38045  23230599.2424                   23230598.3754
 -26512507.80548 -20643902.47146  20934284.8984                   20934282.7934
 -29196461.44548 -22734747.35947  20142315.2504                   20142313.2814
 -18956038.77346 -14753983.43243  24449861.2344                   24449861.9844
 -17602751.29748 -13700873.68046  21614277.4844                   21614278.1484
 -30880944.80547 -24050753.56546  21230536.0554                   21230531.7274
 -14626571.36748 -11381420.06945  21758989.5004                   21758988.1454
 11  8 26  1 30 30.0000000  0  9G26G10G29G12G05G04G25G02G30
   1171436.27746    927093.43943  24242123.1724                   24242124.0664
 -20743171.68446 -16149408.41744  22717507.6804                   22717506.2854
  -5056074.59847  -3926761.67745  23208554.7194                   23208553.8714
 -26504188.90648 -20637420.21946  20935867.8204                   20935865.4804
 -29224503.64147 -22756598.39247  20136979.0784                   20136977.3054
 -18910905.95346 -14718815.05143  24458449.7344                   24458449.9224
 -17659532.37948 -13745118.66146  21603472.2894                   21603473.2894
 -30879798.99647 -24049860.72146  21230754.1954                   21230750.1294
 -14677490.11747 -11421097.00145  21749300.1804                   21749298.7894
 11  8 26  1 31  0.0000000  0  9G26G10G29G12G05G04G25G02G30
   1045206.72346    828732.99943  24218101.3754                   24218102.3914
 -20679054.77747 -16099447.21544  22729708.9224                   22729707.6764
  -5171921.44146  -4017031.89644  23186509.9304                   23186508.5434
 -26495349.65648 -20630532.50646  20937549.7814                   20937548.0354
 -29251983.70348 -22778011.41247  20131749.9224                   20131747.7704
 -18865839.13346 -14683698.01043  24467025.6094                   24467026.1334
 -17715746.28148 -13788921.68246  21592775.2034                   21592775.6994
 -30878559.66048 -24048894.98346  21230989.7504                   21230986.0354
 -14727811.96147 -11460308.84445  21739724.2274                   21739723.1764
 11  8 26  1 31 30.0000000  0  9G26G10G29G12G05G04G25G02G30
    918919.13346    730327.25343  24194069.1024                   24194070.0394
 -20614667.28546 -16049275.15244  22741961.6094                   22741959.8484
  -5287760.83246  -4107296.30744  23164466.2114                   23164464.9224
 -26485984.56648 -20623235.04346  20939331.9304                   20939330.0944
 -29278895.78548 -22798981.84747  20126628.6254                   20126626.6054
 -18820831.28546 -14648627.00243  24475589.8914                   24475591.0204
 -17771385.32848 -13832276.78046  21582187.5394                   21582188.5274
 -30877220.21548 -24047851.25846  21231244.8364                   21231240.6844
 -14777529.61347 -11499049.85945  21730263.1024                   21730261.7194
 11  8 26  1 32  0.0000000  0  9G26G10G29G12G05G04G25G02G30
    792572.19146    631875.35943  24170026.2034                   24170027.5004
 -20550016.42246 -15998897.85544  22754263.8364                   22754262.6764
  -5403595.58246  -4197557.08444  23142423.9144                   23142422.6764
 -26476100.10948 -20615532.89746  20941212.6884                   20941211.0594
 -29305244.88748 -22819513.59047  20121614.5164                   20121612.5744
 -18775887.11346 -14613605.59343  24484142.8284                   24484143.7234
 -17826453.28548 -13875186.84246  21571708.4304                   21571708.9454
 -30875785.85248 -24046733.57346  21231517.6334                   21231513.5204
 -14826647.26647 -11537323.35946  21720916.3914                   21720915.0434
 11  8 26  1 32 30.0000000  0  9G26G10G29G12G05G04G25G02G30
    666167.83646    533378.64843  24145972.2974                   24145972.6724
 -20485106.52746 -15948318.76344  22766615.5234                   22766614.6484
  -5519425.51246  -4287814.10044  23120381.5314                   23120381.1684
 -26465699.32848 -20607428.40146  20943192.1644                   20943190.3634
 -29331032.98848 -22839608.19047  20116707.2814                   20116704.8054
 -18731007.64546 -14578634.56643  24492683.2034                   24492683.7424
 -17880950.68747 -13917652.33746  21561337.7894                   21561338.6954
 -30874257.91048 -24045542.95146  21231808.7664                   21231804.6054
 -14875165.75847 -11575129.97645  21711683.5164                   21711682.4414
 11  8 26  1 33  0.0000000  0  9G26G10G29G12G05G04G25G02G30
   2115135.69146   1662444.64943  24421701.4844                   24421702.4924
 -18844520.01646 -14669939.72144  23078809.1484                   23078807.9884
  -4059823.24246  -3150461.62545  23398134.7274                   23398134.0904
 -24879361.80148 -19371321.25546  21245062.3524                   21245060.4064
 -27780837.92648 -21631663.97547  20411699.3984                   20411697.2934
 -17110772.39146 -13316113.66843  24801003.5314                   24801004.3094
 -16359452.86748 -12732069.59846  21850869.0554                   21850869.9344
 -29297214.73448 -22816678.13546  21531909.7974                   21531905.8674
 -13347661.13747 -10384866.62446  22002358.1804                   22002357.1414
 11  8 26  1 33 30.0000000  0  9G26G10G29G12G05G04G25G02G30
   1988626.33646   1563866.12843  24397627.5234                   24397627.9534
 -18779099.45346 -14618962.66644  23091258.2504                   23091256.6994
  -4175638.68047  -3240707.33945  23376096.0164                   23376095.2234
 -24867932.62948 -19362415.43146  21247237.1094                   21247235.0554
 -27805506.39548 -21650886.14747  20407005.1484                   20407002.9774
 -17066022.19946 -13281243.36543  24809519.6094                   24809519.8714
 -16412806.83648 -12773644.11546  21840716.1724                   21840716.6804
 -29295500.52348 -22815342.37046  21532236.1024                   21532231.7114
 -13394980.38747 -10421738.75845  21993353.5474                   21993352.3984
 11  8 26  1 34  0.0000000  0  8G26G10G29G12G05G25G02G30
   1862068.60947   1465249.93743  24373544.2344                   24373544.7504
 -18713428.90246 -14567790.84144  23103755.1254                   23103753.9654
  -4291445.58247  -3330946.41045  23354058.3594                   23354057.5394
 -24855992.70348 -19353111.60946  21249509.1254                   21249507.0944
 -27829616.86748 -21669673.50347  20402417.0474                   20402414.8914
 -16465589.10948 -12814773.13446  21830672.2504                   21830672.8404
 -29293694.59048 -22813935.14546  21532579.4454                   21532575.5474
 -13441700.58247 -10458144.09945  21984462.9064                   21984461.7464
 11  8 26  1 34 30.0000000  0  8G26G10G29G12G05G25G02G30
   1735465.26247   1366598.10843  24349452.7814                   24349452.7304
 -18647511.30546 -14516426.51744  23116298.6804                   23116297.6914
  -4407242.46547  -3421177.66845  23332023.5864                   23332021.9804
 -24843544.27048 -19343411.54646  21251877.9454                   21251876.2464
 -27853170.54347 -21688027.00347  20397934.9534                   20397932.7464
 -16517799.45748 -12855456.50746  21820736.7664                   21820737.6254
 -29291797.52048 -22812456.89146  21532940.8134                   21532936.8554
 -13487821.92647 -10494082.80945  21975686.2034                   21975685.0274
 11  8 26  1 35  0.0000000  0  8G26G10G29G12G05G25G02G30
   1608828.77047   1267920.52743  24325354.0944                   24325355.0634
 -18581340.00846 -14464864.47844  23128890.6564                   23128889.5784
  -4523018.61747  -3511392.79245  23309991.5314                   23309990.8364
 -24830579.51248 -19333309.14546  21254345.0554                   21254343.4884
 -27876159.30948 -21705940.31047  20393560.1334                   20393558.1374
 -16569427.89848 -12895686.45546  21810912.1024                   21810912.9804
 -29289800.33248 -22810900.65346  21533320.4384                   21533316.6954
 -13533334.89847 -10529547.45645  21967025.7584                   21967024.5594
 11  8 26  1 35 30.0000000  0  8G26G10G29G12G05G25G02G30
   1482164.40247   1169221.22843  24301250.1334                   24301251.0824
 -18514916.07846 -14413105.62144  23141530.7584                   23141529.4804
  -4638770.52047  -3601589.01245  23287964.6254                   23287963.4304
 -24817098.60948 -19322804.56646  21256910.1564                   21256908.4224
 -27898582.03547 -21723412.54047  20389293.3754                   20389291.2304
 -16620472.10248 -12935461.14746  21801199.1644                   21801199.4384
 -29287701.58248 -22809265.24846  21533719.9694                   21533715.5084
 -13578237.53547 -10564536.50146  21958481.1414                   21958479.5004
 11  8 26  1 36  0.0000000  0  8G26G10G29G12G05G25G02G30
   1355476.12547   1070503.29544  24277142.4534                   24277142.4884
 -18448241.53147 -14361151.44944  23154218.2274                   23154217.1684
  -4754495.88347  -3691764.56645  23265942.9064                   23265942.2234
 -24803103.06248 -19311898.95246  21259573.8364                   21259572.0084
 -27920438.96948 -21740443.90147  20385134.3284                   20385131.9224
 -16670930.90248 -12974779.67346  21791597.0314                   21791597.7584
 -29285500.93748 -22807550.45846  21534138.6564                   21534134.5354
 -13622529.17247 -10599049.43045  21950052.5944                   21950050.9804
 11  8 26  1 36 30.0000000  0  8G26G10G29G12G05G25G02G30
   1228760.48447    971764.00544  24253029.3984                   24253030.0664
 -18381325.63347 -14309009.24244  23166952.5864                   23166950.9964
  -4870199.40647  -3781923.08945  23243924.8594                   23243924.0004
 -24788600.98848 -19300598.65746  21262333.2504                   21262331.4344
 -27941737.12148 -21757039.84947  20381081.2274                   20381079.2664
 -16720810.30548 -13013646.72746  21782105.0864                   21782105.7114
 -29283205.08248 -22805761.47346  21534575.7424                   21534571.6334
 -13666216.09447 -10633091.18345  21941739.0554                   21941737.6134
 11  8 26  1 37  0.0000000  0  8G26G10G29G12G05G25G02G30
   1102023.69547    873008.25643  24228911.8284                   24228912.4804
 -18314168.61347 -14256679.09844  23179731.7894                   23179730.5354
  -4985877.02047  -3872061.42845  23221912.3594                   23221911.1214
 -24773591.28148 -19288902.79746  21265189.6254                   21265187.5904
 -27962475.04348 -21773199.24847  20377134.7734                   20377132.6094
 -16770107.02348 -13052059.74546  21772724.1884                   21772724.6254
 -29280811.59848 -22803896.41546  21535031.3524                   21535027.0594
 -13709295.58648 -10666659.59145  21933541.1724                   21933539.7814
 11  8 26  1 37 30.0000000  0  8G26G10G29G12G05G25G02G30
    975261.09847    774232.40144  24204789.8594                   24204789.5744
 -18246781.07047 -14204169.35444  23192555.4614                   23192554.0204
  -5101534.78547  -3962184.32145  23199903.1484                   23199902.4574
 -24758083.61748 -19276818.91346  21268140.7344                   21268138.8954
 -27982661.74648 -21788929.12447  20373293.1484                   20373291.1994
 -16818828.64548 -13090024.64746  21763452.7894                   21763453.3984
 -29278328.62148 -22801961.62846  21535503.5634                   21535499.3364
 -13751775.57048 -10699760.87345  21925457.5634                   21925455.9414
 11  8 26  1 38  0.0000000  0  8G26G10G29G12G05G25G02G30
    848477.80946    675440.42343  24180662.6884                   24180663.8714
 -18179163.75447 -14151480.57544  23205422.4774                   23205421.0904
  -5217169.39547  -4052289.17345  23177898.9064                   23177897.4144
 -24742078.16448 -19264347.14446  21271186.2504                   21271184.6024
 -28002295.99648 -21804228.51647  20369557.2274                   20369555.0554
 -16866972.83248 -13127539.59646  21754291.4694                   21754292.1374
 -29275754.64848 -22799955.92646  21535993.6414                   21535989.7154
 -13793654.21547 -10732393.55445  21917488.5944                   21917487.0944
 11  8 26  1 38 30.0000000  0  8G26G10G29G12G05G25G02G30
    721676.11747    576634.11743  24156533.9694                   24156533.5164
 -18111320.77747 -14098615.95444  23218332.5004                   23218331.1134
  -5332780.10947  -4142375.40945  23155898.7974                   23155897.9694
 -24725578.21148 -19251490.05246  21274326.6024                   21274324.5004
 -28021380.39548 -21819099.44847  20365925.5704                   20365923.3914
 -16914540.47748 -13164605.30146  21745239.5314                   21745239.8204
 -29273091.21148 -22797880.49146  21536500.1644                   21536496.0234
 -13834932.72748 -10764558.62545  21909633.4614                   21909631.9494
 11  8 26  1 39  0.0000000  0  8G26G10G29G12G05G25G02G30
    594862.32847    477818.34044  24132401.7274                   24132401.8054
 -18043251.78547 -14045575.20244  23231285.5554                   23231284.6024
  -5448362.28147  -4232439.38745  23133904.3134                   23133903.0864
 -24708582.84448 -19238246.91446  21277559.9924                   21277558.4804
 -28039912.52747 -21833540.05047  20362398.8834                   20362396.6884
 -16961528.09047 -13201219.03146  21736298.3204                   21736298.5204
 -29270335.31248 -22795733.05446  21537024.6644                   21537020.7154
 -13875608.12948 -10796253.70946  21901892.8834                   21901891.9844
 11  8 26  1 39 30.0000000  0  8G26G10G29G12G05G25G02G30
    468036.36747    378993.07344  24108267.1884                   24108267.5204
 -17974963.02047 -13992363.23144  23244280.7894                   23244279.5274
  -5563917.58247  -4322482.45945  23111914.6174                   23111913.4804
 -24691097.14848 -19224621.70846  21280887.8834                   21280886.1094
 -28057896.91448 -21847553.83947  20358976.7344                   20358974.4024
 -17007938.75448 -13237383.19046  21727466.4534                   21727467.0314
 -29267490.62548 -22793516.40146  21537565.7194                   21537562.0044
 -13915683.89848 -10827481.56345  21894266.9064                   21894265.4734
 11  8 26  1 40  0.0000000  0  8G26G10G29G12G05G25G02G30
    341202.35947    280161.59044  24084131.8284                   24084131.6844
 -17906456.17247 -13938981.29444  23257317.2894                   23257316.0474
  -5679443.52747  -4412502.65445  23089930.7274                   23089929.4774
 -24673122.35948 -19210615.38346  21284308.6024                   21284306.3674
 -28075333.96148 -21861141.11847  20355658.2584                   20355656.3244
 -17053771.30148 -13273096.86846  21718744.9614                   21718745.5084
 -29264556.44548 -22791230.03646  21538124.2584                   21538120.6134
 -13955159.30148 -10858241.61245  21886755.0634                   21886753.5084
 11  8 26  1 40 30.0000000  0  8G26G10G29G12G05G25G02G30
    214361.94546    181325.07343  24059994.4064                   24059994.3554
 -17837735.95347 -13885433.08944  23270394.6254                   23270393.4414
  -5794940.41447  -4502500.22145  23067952.4844                   23067951.1214
 -24654662.02048 -19196230.71446  21287821.3674                   21287819.5234
 -28092226.56648 -21874304.16547  20352443.9304                   20352441.9184
 -17099027.41048 -13308361.39146  21710133.0704                   21710133.4844
 -29261535.03148 -22788875.67346  21538699.5234                   21538695.3364
 -13994036.48048 -10888535.51246  21879356.9224                   21879355.3554
 11  8 26  1 41  0.0000000  0  8G26G10G29G12G05G25G02G30
     87518.70746     82486.36244  24035856.7114                   24035857.0984
 -17768804.68047 -13831720.44844  23283511.2894                   23283510.3134
  -5910406.13347  -4592473.50545  23045979.9224                   23045979.1134
 -24635718.11348 -19181469.23346  21291425.9224                   21291424.1374
 -28108575.52348 -21887043.59047  20349332.4454                   20349330.6094
 -17143706.33648 -13343176.15046  21701630.8914                   21701631.2894
 -29258426.33648 -22786453.30846  21539290.7274                   21539287.0864
 -14032315.17648 -10918363.06246  21872072.7344                   21872071.3914
 11  8 26  1 41 30.0000000  0  8G26G10G29G12G05G25G02G30
    -39322.09446    -16350.46543  24011719.9844                   24011719.9964
 -17699663.38347 -13777844.14844  23296668.0084                   23296667.6764
  -6025837.07447  -4682419.71245  23024014.3674                   23024012.8674
 -24616290.81648 -19166331.09446  21295123.0474                   21295121.1524
 -28124380.21148 -21899358.91547  20346324.9844                   20346323.1564
 -17187806.14848 -13377539.65146  21693239.0004                   21693239.5594
 -29255228.71548 -22783961.66346  21539899.2424                   21539895.1844
 -14069993.84447 -10947723.05746  21864902.4614                   21864901.2584
 11  8 26  1 42  0.0000000  0  8G26G10G29G12G05G25G02G30
   -166159.64846   -115184.75543  23987583.1174                   23987582.9224
 -17630317.19947 -13723808.18544  23309864.6564                   23309863.9384
  -6141234.00447  -4772339.39345  23002055.1024                   23002054.2734
 -24596384.81248 -19150819.92546  21298910.8054                   21298909.1524
 -28139644.34448 -21911253.03147  20343420.5474                   20343418.5474
 -17231329.15648 -13411453.69246  21684956.9304                   21684957.1604
 -29251944.95348 -22781402.88146  21540524.3524                   21540519.9264
 -14107075.20748 -10976617.63846  21857846.1954                   21857844.6054
 11  8 26  1 42 30.0000000  0  8G26G10G29G12G05G25G02G30
   -292984.34846   -214009.04944  23963448.9384                   23963449.2664
 -17560763.05147 -13669610.21444  23323100.1804                   23323099.3444
  -6256589.07447  -4862226.46745  22980103.9454                   22980102.4574
 -24575995.89548 -19134932.47746  21302790.6804                   21302789.3794
 -28154362.68048 -21922721.85047  20340619.5164                   20340617.9224
 -17274269.15248 -13444913.43846  21676785.6024                   21676786.1094
 -29248569.22748 -22778772.44546  21541166.7274                   21541162.6724
 -14143553.57048 -11005042.33346  21850904.8594                   21850903.2154
 11  8 26  1 43  0.0000000  0  8G26G10G29G12G05G25G02G30
   -419796.46946   -312823.50344  23939317.1884                   23939317.8874
 -17491007.06647 -13615254.93444  23336374.6804                   23336373.7424
  -6371904.29347  -4952082.48845  22958160.1254                   22958158.7304
 -24555129.61748 -19118673.05746  21306761.6254                   21306759.7304
 -28168540.31248 -21933769.33747  20337922.0234                   20337919.7974
 -17316629.57448 -13477921.56646  21668724.6564                   21668725.1134
 -29245105.40647 -22776073.36446  21541825.3364                   21541821.7114
 -14179432.78148 -11033000.17545  21844077.3674                   21844075.7384
 11  8 26  1 43 30.0000000  0  8G26G10G29G12G05G25G02G30
   -546597.05146   -411628.99743  23915188.2114                   23915187.9884
 -17421056.10947 -13560747.71644  23349685.7424                   23349685.1024
  -6487182.17247  -5041909.41245  22936223.5394                   22936221.9614
 -24533792.95348 -19102047.09446  21310821.8674                   21310820.1684
 -28182182.47748 -21944399.58147  20335325.8984                   20335324.0044
 -17358414.53148 -13510481.28046  21660773.2194                   21660773.8164
 -29241557.64548 -22773308.87546  21542500.6644                   21542496.8674
 -14214717.45348 -11060494.73145  21837362.5234                   21837361.5004
 11  8 26  1 44  0.0000000  0  8G26G10G29G12G05G25G02G30
   -673379.73046   -510420.55343  23891062.1174                   23891061.7304
 -17350909.95347 -13506088.39044  23363034.9064                   23363033.7274
  -6602417.98847  -5131703.54945  22914295.0234                   22914293.3244
 -24511984.98448 -19085053.88846  21314971.8284                   21314970.3594
 -28195287.95348 -21954611.63047  20332831.8674                   20332830.0944
 -17399621.13348 -13542590.32246  21652932.0084                   21652932.6134
 -29237923.39148 -22770476.99246  21543192.5084                   21543188.5234
 -14249405.04748 -11087524.04446  21830762.0944                   21830760.6604
 11  8 26  1 44 30.0000000  0  8G26G10G29G12G05G25G02G30
   -800141.44146   -609195.76944  23866940.0314                   23866939.7194
 -17280572.05147 -13451279.65344  23376418.9534                   23376418.0164
  -6717610.30147  -5221463.78045  22892374.4614                   22892373.0164
 -24489707.62548 -19067694.91846  21319210.9774                   21319209.4144
 -28207858.30148 -21964406.69147  20330439.9614                   20330437.8834
 -17440249.65648 -13574248.92446  21645200.1564                   21645200.9614
 -29234203.27048 -22767578.19946  21543900.5084                   21543896.3954
 -14283496.35547 -11114088.70445  21824274.6414                   21824273.3484
 11  8 26  1 45  0.0000000  0  8G26G10G29G12G05G25G02G30
   -926879.66847   -707952.68444  23842822.5314                   23842821.8244
 -17210046.37547 -13396324.64944  23389839.6954                   23389838.1454
  -6832758.32047  -5311189.48445  22870462.2504                   22870461.2734
 -24466964.76248 -19049973.23446  21323538.9614                   21323536.9654
 -28219895.75848 -21973786.51447  20328149.1484                   20328147.1334
 -17480301.20348 -13605457.91846  21637578.8914                   21637579.4694
 -29230398.42648 -22764613.38146  21544624.1564                   21544620.5664
 -14316992.85548 -11140189.88145  21817900.4454                   21817899.0354
 11  8 26  1 45 30.0000000  0  8G26G10G29G12G05G25G02G30
  -1053588.99646   -806687.07243  23818710.0234                   23818709.8954
 -17139333.17647 -13341223.45144  23403295.9774                   23403295.0434
  -6947858.34847  -5400877.79245  22848559.5784                   22848558.4304
 -24443756.47748 -19031888.87046  21327955.1254                   21327953.4264
 -28231399.63748 -21982750.56547  20325960.0084                   20325958.0234
 -17519773.58648 -13636215.61946  21630067.5394                   21630068.2584
 -29226507.16048 -22761581.24446  21545364.9774                   21545360.9144
 -14349892.99248 -11165826.34646  21811639.7424                   21811638.5744
 11  8 26  1 46  0.0000000  0  8G26G10G29G12G05G25G02G30
  -1180266.51246   -905396.71144  23794603.6334                   23794603.9224
 -17068435.29747 -13285978.33743  23416787.1804                   23416786.4454
  -7062908.91047  -5490527.54245  22826666.2814                   22826665.2274
 -24420085.26648 -19013443.79346  21332459.8204                   21332457.9384
 -28242371.76648 -21991300.26647  20323872.0164                   20323870.0824
 -17558667.36748 -13666522.45646  21622666.5394                   21622666.4614
 -29222529.94548 -22758482.11546  21546121.4844                   21546118.0314
 -14382197.50848 -11190998.71146  21805492.5704                   21805491.2304
 11  8 26  1 46 30.0000000  0  8G26G10G29G12G05G25G02G30
  -1306911.63346  -1004081.09044  23770504.2584                   23770504.0474
 -16997358.85947 -13230594.16344  23430312.9304                   23430311.9344
  -7177911.51247  -5580139.92345  22804781.7734                   22804780.2464
 -24395956.52048 -18994642.19146  21337051.2424                   21337049.5004
 -28252816.41048 -21999438.93647  20321884.3674                   20321882.3754
 -17596985.58248 -13696380.79946  21615374.7424                   21615375.4264
 -29218469.88748 -22755318.43646  21546894.3364                   21546890.5514
 -14413910.09448 -11215709.83346  21799457.6884                   21799456.1454
 11  8 26  1 47  0.0000000  0  8G26G10G29G12G05G25G02G30
  -1433520.48046  -1102737.17844  23746411.2114                   23746411.3714
 -16926105.78147 -13175072.28244  23443871.9384                   23443871.2544
  -7292863.49647  -5669712.83245  22782907.2504                   22782905.6454
 -24371371.54348 -18975485.09046  21341729.8674                   21341728.2894
 -28262734.09848 -22007167.00047  20319997.2894                   20319994.9104
 -17634727.72748 -13725790.27046  21608192.4694                   21608193.3444
 -29214326.64848 -22752089.94046  21547682.5394                   21547678.5434
 -14445030.61748 -11239959.60246  21793535.5784                   21793534.6134
 11  8 26  1 47 30.0000000  0  8G26G10G29G12G05G25G02G30
  -1560086.88346  -1201360.25744  23722326.5704                   23722326.4304
 -16854676.33647 -13119413.01744  23457464.2894                   23457464.0984
  -7407760.28147  -5759242.75345  22761043.0164                   22761041.7194
 -24346329.84448 -18955972.09446  21346495.0864                   21346493.2234
 -28272123.92248 -22014483.74147  20318210.4224                   20318208.2854
 -17671891.36748 -13754748.93946  21601120.7274                   21601120.9614
 -29210097.91447 -22748794.81646  21548487.1414                   21548483.1294
 -14475557.13748 -11263746.50546  21787726.2504                   21787725.2154
 11  8 26  1 48  0.0000000  0  8G26G10G29G12G05G25G02G30
  -1686608.28946  -1299948.20644  23698249.7814                   23698249.5554
 -16783074.12147 -13063619.11543  23471089.9534                   23471088.4264
  -7522601.23047  -5848729.14545  22739189.2344                   22739187.8014
 -24320834.96148 -18936105.98146  21351346.5084                   21351344.8244
 -28280988.40248 -22021391.11747  20316523.5704                   20316521.2934
 -17708477.41848 -13783257.56646  21594158.2894                   21594159.1254
 -29205784.52048 -22745433.73846  21549308.2034                   21549304.2774
 -14505491.04348 -11287071.64246  21782030.5704                   21782028.6454
 11  8 26  1 48 30.0000000  0  8G26G10G29G12G05G25G02G30
  -1813081.81646  -1398498.89044  23674182.4534                   23674182.6334
 -16711302.43747 -13007693.14844  23484747.8204                   23484746.3594
  -7637385.18047  -5938171.12145  22717346.8054                   22717345.7194
 -24294890.40247 -18915889.45846  21356283.5004                   21356281.8524
 -28289329.53948 -22027890.69847  20314936.2894                   20314934.1954
 -17744486.80148 -13811316.81646  21587305.9304                   21587306.7384
 -29201387.22348 -22742007.27346  21550144.9844                   21550140.8524
 -14534833.68748 -11309936.04446  21776446.8284                   21776445.2854
 11  8 26  1 49  0.0000000  0  9G26G10G29G12G05G15G25G02G30
  -1939502.42246  -1497008.29844  23650125.9144                   23650125.1914
 -16639361.81247 -12951635.56844  23498437.4224                   23498436.5204
  -7752108.29747  -6027565.71445  22695515.5234                   22695514.2234
 -24268495.86347 -18895322.31546  21361306.4774                   21361304.7934
 -28297146.58648 -22033981.90147  20313448.5634                   20313446.3754
   6118178.12156   4781890.58754  24562518.4224                   24562520.1214
 -17779917.80147 -13838925.39746  21580563.3834                   21580564.8324
 -29196904.17248 -22738513.97446  21550998.1334                   21550994.1334
 -14563583.79347 -11332338.73446  21770975.5944                   21770974.6094
 11  8 26  1 49 30.0000000  0  9G26G10G29G12G05G15G25G02G30
  -2065873.69146  -1595479.31544  23626077.5634                   23626077.6524
 -16567262.63747 -12895454.43743  23512157.7974                   23512156.5044
  -7866776.08247  -6116917.19045  22673694.9224                   22673693.6724
 -24241661.52347 -18874412.45346  21366413.1414                   21366411.2194
 -28304448.80948 -22039671.93247  20312059.0554                   20312056.7734
   5993256.12146   4684549.17544  24538746.7424                   24538747.5944
 -17814778.24648 -13866089.38946  21573930.0314                   21573930.7154
 -29192343.36348 -22734960.09946  21551865.7584                   21551861.9384
 -14591749.62948 -11354286.15845  21765616.0704                   21765614.5744
 11  8 26  1 50  0.0000000  0  9G26G10G29G12G05G15G25G02G30
  -2192194.11446  -1693910.67444  23602039.9534                   23602039.3404
 -16495009.49647 -12839153.27844  23525906.9304                   23525905.9924
  -7981388.68747  -6206225.67545  22651884.9534                   22651883.3874
 -24214391.50847 -18853163.11946  21371602.0704                   21371600.5004
 -28311239.47748 -22044963.36047  20310767.0474                   20310764.4384
   5868195.50846   4587099.69544  24514947.3054                   24514948.9774
 -17849070.17248 -13892810.36346  21567404.4924                   21567405.1994
 -29187706.69148 -22731347.09146  21552748.6254                   21552744.3794
 -14619333.76648 -11375780.30745  21760366.6334                   21760365.4144
 11  8 26  1 50 30.0000000  0  9G26G10G29G12G05G15G25G02G30
  -2318461.39146  -1792300.64844  23578012.3984                   23578011.2074
 -16422606.30547 -12782735.24744  23539684.4064                   23539683.5394
  -8095945.42247  -6295490.60345  22630085.6954                   22630084.1294
 -24186689.16447 -18831576.89046  21376873.7034                   21376872.2034
 -28317521.19948 -22049858.19847  20309571.7034                   20309568.9494
   5742997.88346   4489543.51644  24491122.9614                   24491124.9344
 -17882794.99648 -13919089.46146  21560986.7664                   21560987.3524
 -29182995.22748 -22727675.82246  21553645.1644                   21553641.2074
 -14646338.10947 -11396822.67846  21755228.2114                   21755226.8634
 11  8 26  1 51  0.0000000  0  9G26G10G29G12G05G15G25G02G30
  -2444669.81646  -1890644.75644  23553995.4614                   23553994.6524
 -16350053.34447 -12726200.48244  23553490.7584                   23553490.2504
  -8210441.91447  -6384708.60345  22608297.5084                   22608295.8554
 -24158554.89147 -18809654.11146  21382227.4534                   21382226.1374
 -28323293.52348 -22054356.10347  20308472.8364                   20308470.9964
   5617667.75046   4391884.00344  24467273.3444                   24467274.4414
 -17915950.73448 -13944925.11846  21554677.6094                   21554678.1214
 -29178207.06247 -22723944.78146  21554556.3134                   21554552.1334
 -14672761.03147 -11417411.97846  21750200.0084                   21750198.7624
 11  8 26  1 51 30.0000000  0  9G26G10G29G12G05G15G25G02G30
  -2570810.19546  -1988935.84944  23529991.5704                   23529990.7234
 -16277347.37947 -12669546.48643  23567326.8054                   23567325.4964
  -8324870.97747  -6473874.06845  22586522.4534                   22586520.6914
 -24129984.92247 -18787391.82846  21387664.2664                   21387662.4144
 -28328552.24248 -22058453.80547  20307472.4774                   20307469.9494
   5492213.53546   4294127.86644  24443399.9694                   24443401.2934
 -17948532.12947 -13970313.21946  21548477.7274                   21548477.8014
 -29173336.49648 -22720149.51846  21555483.0784                   21555479.0124
 -14698597.76647 -11437544.53245  21745283.4064                   21745282.4224
 11  8 26  1 52  0.0000000  0  9G26G10G29G12G05G15G25G02G30
  -2696878.09447  -2087170.46144  23506001.5554                   23506001.1214
 -16204490.64147 -12612775.07043  23581191.0314                   23581189.3674
  -8439229.85947  -6562984.85445  22564760.9064                   22564759.1604
 -24100981.32047 -18764791.63446  21393183.5634                   21393181.8594
 -28333298.09448 -22062151.85847  20306569.3054                   20306567.1764
   5366638.44946   4196277.50544  24419503.3134                   24419505.1134
 -17980538.80548 -13995253.49246  21542387.3444                   21542387.5434
 -29168382.91848 -22716289.58046  21556425.7734                   21556421.6954
 -14723848.46148 -11457220.40645  21740478.3594                   21740477.5474
 11  8 26  1 52 30.0000000  0  9G26G10G29G12G05G15G25G02G30
  -2822874.78947  -2185349.59844  23482025.2114                   23482024.0904
 -16131490.50047 -12555891.85943  23595082.3914                   23595080.9804
  -8553521.24247  -6652043.02945  22543011.5474                   22543010.0594
 -24071551.57047 -18741859.37446  21398783.9384                   21398782.5204
 -28337537.08248 -22065454.95947  20305762.4454                   20305760.0434
   5240940.24246   4098331.19343  24395583.2424                   24395584.7034
 -18011975.74248 -14019749.80546  21536404.6484                   21536405.2194
 -29163350.87148 -22712368.49346  21557383.2734                   21557378.5984
 -14748518.57447 -11476443.89746  21735784.0864                   21735782.6604
 11  8 26  1 53  0.0000000  0  9G26G10G29G12G05G15G25G02G30
  -2948795.03547  -2283469.19444  23458063.1414                   23458062.3054
 -16058347.53547 -12498897.34843  23609000.9454                   23609000.0904
  -8667741.46947  -6741045.75645  22521276.0864                   22521275.0744
 -24041695.73847 -18718595.10346  21404464.9614                   21404463.6954
 -28341269.32448 -22068363.19647  20305052.2034                   20305049.7464
   5115123.57446   4000292.61243  24371641.8364                   24371642.0354
 -18042841.65248 -14043801.16046  21530531.0314                   21530531.3914
 -29158238.74247 -22708385.01246  21558355.9534                   21558351.9384
 -14772607.21147 -11495214.28046  21731200.1024                   21731198.3794
 11  8 26  1 53 30.0000000  0  9G26G10G29G12G05G15G25G02G30
  -3074631.89547  -2381523.76344  23434116.9454                   23434116.1334
 -15985060.96546 -12441790.93543  23622946.7664                   23622945.8954
  -8781885.39847  -6829989.02145  22499555.1564                   22499553.9494
 -24011413.17247 -18694998.31746  21410227.5084                   21410226.1764
 -28344493.32847 -22070875.40347  20304439.0084                   20304436.5634
   4989194.48946   3902166.34743  24347677.8914                   24347678.1994
 -18073133.65248 -14067405.31446  21524766.7274                   21524767.2974
 -29153043.60247 -22704336.83846  21559344.9774                   21559340.6454
 -14796112.00847 -11513529.71845  21726727.2194                   21726725.9694
 11  8 26  1 54  0.0000000  0  9G26G10G29G12G05G15G25G02G30
  -3200382.39547  -2479511.05344  23410187.0784                   23410186.3014
 -15911634.13747 -12384575.27843  23636920.0004                   23636918.9264
  -8895951.70747  -6918871.82345  22477849.1024                   22477847.8204
 -23980707.07847 -18671071.50546  21416070.7274                   21416069.1724
 -28347211.05548 -22072993.10247  20303921.7974                   20303919.3714
   4863154.31346   3803953.53643  24323692.9454                   24323692.4344
 -18102852.82848 -14090563.11446  21519111.1804                   21519111.9574
 -29147765.97747 -22700224.38546  21560348.5314                   21560344.6094
 -14819034.48047 -11531391.40145  21722365.1094                   21722364.0744
 11  8 26  1 54 30.0000000  0  9G26G10G29G12G05G15G25G02G30
  -3326043.58247  -2577428.78444  23386274.6254                   23386273.8874
 -15838070.29347 -12327252.79743  23650918.5474                   23650917.7154
  -9009939.02347  -7007693.07245  22456157.9924                   22456156.6994
 -23949579.95748 -18646816.61746  21421994.2344                   21421992.9344
 -28349424.97748 -22074718.21447  20303500.5164                   20303497.9024
   4737005.17246   3705655.91943  24299687.4614                   24299687.2774
 -18132000.27048 -14113275.39446  21513564.6174                   21513565.2464
 -29142406.50847 -22696048.17646  21561368.8364                   21561364.4454
 -14841376.14548 -11548800.47846  21718113.8524                   21718112.5044
 11  8 26  1 55  0.0000000  0  9G26G10G29G12G05G15G25G02G30
  -3451615.96547  -2675277.28644  23362378.6094                   23362378.2344
 -15764376.08647 -12269828.76243  23664942.0784                   23664940.9574
  -9123849.42247  -7096454.37545  22434481.8284                   22434479.8914
 -23918039.28548 -18622239.49046  21427996.3984                   21427994.4024
 -28351140.78148 -22076055.19447  20303173.9304                   20303171.6054
   4610745.70746   3607272.22643  24275659.8914                   24275660.9384
 -18160580.55948 -14135545.74346  21508126.2274                   21508126.6484
 -29136969.12148 -22691811.26246  21562403.3834                   21562399.3914
 -14863142.05948 -11565760.93045  21713972.0314                   21713970.5164
 11  8 26  1 55 30.0000000  0  9G26G10G29G12G05G15G25G02G30
  -3577089.53547  -2773048.80644  23338502.3204                   23338502.0744
 -15690547.57847 -12212300.10643  23678991.1334                   23678989.9964
  -9237674.53947  -7185149.24745  22412821.7584                   22412819.8284
 -23886080.73448 -18597336.73946  21434077.6484                   21434075.9184
 -28352353.69147 -22077000.30947  20302943.1414                   20302940.7704
   4484384.96546   3508809.62043  24251614.4384                   24251614.9654
 -18188587.75448 -14157369.52146  21502796.3134                   21502797.0904
 -29131447.72348 -22687508.85446  21563453.8364                   21563449.7894
 -14884326.82448 -11582268.52946  21709940.4924                   21709939.5044
 11  8 26  1 56  0.0000000  0  9G26G10G29G12G05G15G25G02G30
  -3702463.93047  -2870743.04744  23314643.8364                   23314643.7384
 -15616590.66047 -12154671.32843  23693064.6804                   23693064.1054
  -9351415.47747  -7273778.50045  22391177.3284                   22391175.8674
 -23853710.09848 -18572112.87446  21440237.8204                   21440236.0744
 -28353068.50448 -22077557.29247  20302807.1484                   20302804.8404
   4357922.71946   3410267.93143  24227549.0784                   24227549.3914
 -18216025.70348 -14178749.72546  21497575.0234                   21497575.6484
 -29125845.35548 -22683143.36646  21564520.2974                   21564515.7934
 -14904934.69948 -11598326.60045  21706018.9384                   21706018.1094
 11  8 26  1 56 30.0000000  0  9G26G10G29G12G05G15G25G02G30
  -3827738.38747  -2968359.39644  23290805.1804                   23290804.2114
 -15542510.94946 -12096946.89443  23707161.9224                   23707160.5594
  -9465073.08247  -7362342.81245  22369548.8674                   22369547.3054
 -23820932.30547 -18546571.74346  21446475.0164                   21446473.4414
 -28353289.84848 -22077729.75447  20302764.9844                   20302762.2974
   4231358.73046   3311646.96844  24203464.5394                   24203465.1844
 -18242897.84048 -14199689.04546  21492461.2584                   21492462.4774
 -29120165.09448 -22678717.19346  21565601.1414                   21565597.0704
 -14924969.58648 -11613938.18046  21702206.2734                   21702205.6024
 11  8 26  1 57  0.0000000  0  9G26G10G29G12G05G15G25G02G30
  -3952908.02347  -3065894.09144  23266986.5474                   23266985.5084
 -15468309.79347 -12039127.85543  23721281.4774                   23721280.9574
  -9578644.39547  -7450839.89045  22347936.8754                   22347935.7974
 -23787749.00447 -18520714.62846  21452789.5784                   21452787.9184
 -28353018.39148 -22077518.20847  20302816.7814                   20302814.1914
   4104696.63747   3212949.54044  24179361.2424                   24179362.6914
 -18269203.52748 -14220186.99246  21487455.6334                   21487456.3204
 -29114405.58247 -22674229.25145  21566696.9534                   21566692.7384
 -14944431.35948 -11629103.18446  21698502.8674                   21698501.9104
 11  8 26  1 57 30.0000000  0  9G26G10G29G12G05G15G25G02G30
  -4077964.47347  -3163340.58644  23243188.7584                   23243187.5904
 -15393984.39147 -11981211.93743  23735425.2114                   23735424.8054
  -9692121.98847  -7539263.94745  22326342.7424                   22326341.1564
 -23754158.19548 -18494539.99246  21459182.0394                   21459180.3874
 -28352250.73048 -22076920.00747  20302962.7894                   20302960.4804
   3977944.12947   3114181.65844  24155241.1954                   24155241.4454
 -18294938.45348 -14240240.18046  21482558.3834                   21482559.0354
 -29108561.64547 -22669675.53746  21567808.9384                   21567804.9694
 -14963316.18048 -11643818.62145  21694909.4534                   21694907.9534
 11  8 26  1 58  0.0000000  0  9G26G10G29G12G05G15G25G02G30
  -2627485.04347  -2033096.76144  23519205.6724                   23519205.1374
 -13744125.19546 -10695607.41843  24049382.8914                   24049382.5784
  -8230085.80547  -6400014.90245  22604558.6334                   22604557.3284
 -22144748.34047 -17240454.39346  21765442.3204                   21765440.1024
 -26775574.11748 -20848340.82447  20602994.2114                   20602991.9224
   5426522.71147   4242944.51044  24430895.9304                   24430896.6484
 -16744687.67247 -13032252.56446  21777561.3674                   21777561.9224
 -27527218.90647 -21437460.40346  21868728.6644                   21868724.5044
 -13406209.82848 -10430488.98145  21991216.8054                   21991215.6994
 11  8 26  1 58 30.0000000  0  9G26G10G29G12G05G15G25G02G30
  -2752311.58647  -2130364.11444  23495452.1094                   23495450.9884
 -13669567.04746 -10637510.22143  24063571.0004                   24063570.2624
  -8343378.53947  -6488294.93445  22582999.9774                   22582998.0944
 -22110357.06647 -17213656.01246  21771986.5784                   21771985.0864
 -26773827.34848 -20846979.68547  20603326.4384                   20603324.5434
   5299589.71547   4144035.90444  24406741.5554                   24406741.9184
 -16769290.75047 -13051423.80146  21772879.5084                   21772880.6094
 -27521214.22347 -21432781.43646  21869871.4224                   21869867.2934
 -13423951.80148 -10444313.88646  21987840.6954                   21987839.2974
 11  8 26  1 59  0.0000000  0  9G26G10G29G12G05G15G25G02G30
  -2877016.00447  -2227536.31244  23471721.1804                   23471720.4144
 -13594894.28546 -10579323.64543  24077781.0164                   24077780.1334
  -8456573.63347  -6576498.85745  22561459.9694                   22561458.2734
 -22075567.08647 -17186546.94446  21778606.6414                   21778605.2344
 -26771591.69148 -20845237.61147  20603752.1804                   20603749.4534
   5172572.49647   4045061.69744  24382570.1174                   24382570.7154
 -16793327.07448 -13070153.40246  21768305.9534                   21768306.4734
 -27515127.48447 -21428038.50846  21871029.3754                   21871025.0514
 -13441122.22348 -10457693.43245  21984573.1094                   21984571.7234
 11  8 26  1 59 30.0000000  0  9G26G10G29G12G05G15G25G02G30
  -3001594.97347  -2324610.73944  23448014.6254                   23448013.5984
 -13520110.09046 -10521050.28143  24092012.0474                   24092010.8674
  -8569669.71947  -6664625.64045  22539938.2424                   22539936.3874
 -22040382.48047 -17159130.38546  21785302.2504                   21785300.7544
 -26768869.55948 -20843116.45347  20604269.9774                   20604267.8284
   5045472.71547   3946023.14944  24358383.8524                   24358384.2464
 -16816797.97748 -13088442.42846  21763839.0234                   21763839.9924
 -27508958.76647 -21423231.72046  21872203.1804                   21872199.5354
 -13457722.91848 -10470629.02045  21981414.1254                   21981412.7274
 11  8 26  2  0  0.0000000  0  9G26G10G29G12G05G15G25G02G30
  -3126048.16847  -2421587.22444  23424332.0234                   23424330.9184
 -13445220.29346 -10462694.58743  24106262.8444                   24106261.7194
  -8682668.00847  -6752676.22445  22518435.2734                   22518434.1054
 -22004808.73047 -17131410.59446  21792072.1724                   21792070.1844
 -26765666.21148 -20840620.33447  20604879.3834                   20604877.4494
   4918290.12947   3846920.07444  24334181.8134                   24334182.6684
 -16839707.46147 -13106293.98046  21759479.5634                   21759480.3984
 -27502711.31647 -21418363.57846  21873391.8364                   21873388.2974
 -13473758.25848 -10483124.09646  21978362.7504                   21978361.4494
 11  8 26  2  0 30.0000000  0  9G26G10G29G12G05G15G25G02G30
  -3250374.21547  -2518464.53744  23400673.5944                   23400672.0634
 -13370229.35246 -10404260.08343  24120533.6954                   24120531.8754
  -8795568.42647  -6840650.54345  22496950.8754                   22496949.4024
 -21968850.44947 -17103391.16746  21798914.6094                   21798912.9184
 -26761985.29348 -20837752.06947  20605579.8204                   20605577.5944
   4791025.56647   3747753.07944  24309964.0234                   24309964.6094
 -16862058.33248 -13123710.25446  21755226.6024                   21755227.1134
 -27496387.27347 -21413435.74245  21874595.5164                   21874591.4844
 -13489231.59448 -10495181.24545  21975418.1804                   21975416.9774
 11  8 26  2  1  0.0000000  0  9G26G10G29G12G05G15G25G02G30
  -3374560.51247  -2615233.01144  23377041.6804                   23377040.1764
 -13295131.18046 -10345742.05143  24134823.7194                   24134822.9884
  -8908360.30147  -6928540.28445  22475487.7274                   22475485.7154
 -21932501.52747 -17075067.35446  21805831.3674                   21805829.7544
 -26757819.91048 -20834506.30347  20606372.8054                   20606370.1524
   4663690.42247   3648531.09244  24285733.1884                   24285732.5434
 -16883842.73848 -13140685.13046  21751080.8674                   21751082.0944
 -27489977.94947 -21408441.48446  21875815.5004                   21875810.9614
 -13504135.52748 -10506794.71346  21972582.2194                   21972581.0984
 11  8 26  2  1 30.0000000  0  9G26G10G29G12G05G15G25G02G30
  -3498613.22747  -2711897.37944  23353435.2734                   23353433.7664
 -13219937.88746 -10287149.92843  24149132.7344                   24149131.8244
  -9021051.25847  -7016351.39445  22454042.8674                   22454041.4184
 -21895774.53147 -17046448.93346  21812820.6334                   21812818.8284
 -26753181.89148 -20830892.25447  20607255.1484                   20607253.2274
   4536277.82046   3549248.73244  24261486.2114                   24261487.0394
 -16905071.26248 -13157226.83946  21747041.6484                   21747042.4144
 -27483493.12147 -21403388.37046  21877049.1954                   21877045.4614
 -13518481.18048 -10517973.15445  21969852.6174                   21969851.1524
 11  8 26  2  2  0.0000000  0  9G26G10G29G12G05G15G25G02G30
  -3622522.98847  -2808450.37544  23329855.6884                   23329855.0314
 -13144646.16046 -10228481.03743  24163460.0704                   24163459.4964
  -9133633.70747  -7104077.94645  22432619.3204                   22432617.7304
 -21858666.10548 -17017533.27746  21819881.7734                   21819880.1684
 -26748067.27348 -20826906.83047  20608228.7114                   20608225.7974
   4408795.93046   3449912.41043  24237227.2504                   24237227.7894
 -16925739.00048 -13173331.58846  21743108.4614                   21743109.0234
 -27476926.86747 -21398271.80746  21878298.9614                   21878295.2114
 -13532264.08648 -10528713.09746  21967229.4774                   21967228.4614
 11  8 26  2  2 30.0000000  0  9G26G10G29G12G05G15G25G02G30
  -3746288.61347  -2904891.04844  23306303.6644                   23306302.6334
 -13069261.20346 -10169739.56143  24177805.9614                   24177804.6604
  -9246107.63347  -7191719.95945  22411216.3284                   22411214.6134
 -21821181.80948 -16988324.76146  21827014.9064                   21827013.4454
 -26742480.43048 -20822553.42947  20609291.5554                   20609289.3134
   4281245.26647   3350522.44743  24212955.1484                   24212955.3674
 -16945849.48048 -13189002.09246  21739281.9304                   21739282.7194
 -27470281.69147 -21393093.74746  21879563.5474                   21879559.4414
 -13545488.12948 -10539017.56145  21964713.0784                   21964711.8094
 11  8 26  2  3  0.0000000  0  9G26G10G29G12G05G15G25G02G30
  -3869903.70747  -3001214.41944  23282780.5944                   23282779.8324
 -12993782.69946 -10110925.20543  24192168.6564                   24192167.9534
  -9358468.49647  -7279273.85045  22389834.5234                   22389833.1134
 -21783321.53147 -16958823.25346  21834220.0394                   21834218.1374
 -26736420.60947 -20817831.48147  20610444.7734                   20610442.5634
   4153631.17246   3251083.06043  24188670.5634                   24188670.4454
 -16965400.85548 -13204236.94546  21735561.5084                   21735561.9104
 -27463554.85947 -21387852.05746  21880843.4454                   21880839.7194
 -13558152.04748 -10548885.57145  21962303.1644                   21962301.9264
 11  8 26  2  3 30.0000000  0  9G26G10G29G12G05G15G25G02G30
  -3993366.58647  -3097419.21044  23259286.6644                   23259285.5274
 -12918214.81246 -10052041.15343  24206548.2274                   24206548.5864
  -9470716.16847  -7366739.55846  22368474.1484                   22368472.8674
 -21745089.32848 -16929031.93346  21841495.1884                   21841493.4534
 -26729891.47748 -20812743.84247  20611687.3364                   20611685.2584
   4025954.55947   3151594.98943  24164374.6724                   24164374.9224
 -16984395.91448 -13219038.29346  21731946.4924                   21731947.1564
 -27456747.84847 -21382547.90946  21882138.4694                   21882135.0514
 -13570259.05548 -10558319.61245  21959999.4064                   21959998.2424
 11  8 26  2  4  0.0000000  0  9G26G10G29G12G05G15G25G02G30
  -4116673.53547  -3193502.45344  23235821.5084                   23235820.7114
 -12842560.07846  -9993089.43843  24220945.2894                   24220944.6844
  -9582848.32447  -7454115.24046  22347136.4304                   22347134.9104
 -21706488.68048 -16898953.52546  21848840.6644                   21848838.9384
 -26722895.23848 -20807292.20647  20613018.5864                   20613016.5984
   3898218.12946   3052060.29644  24140067.2814                   24140067.8874
 -17002835.73448 -13233406.99046  21728437.7114                   21728438.2504
 -27449860.88747 -21377181.44446  21883449.0944                   21883445.2974
 -13581810.68448 -10567320.89845  21957801.2194                   21957799.4574
 11  8 26  2  4 30.0000000  0  9G26G10G29G12G05G15G25G02G30
  -4239818.56247  -3289459.55144  23212388.0704                   23212387.2034
 -12766819.10246  -9934070.49943  24235358.4774                   24235358.1484
  -9694860.71947  -7541397.60946  22325820.9924                   22325819.6054
 -21667519.88747 -16868588.23846  21856256.2504                   21856254.4024
 -26715431.80147 -20801476.55047  20614438.9534                   20614436.3834
   3770426.95747   2952482.92043  24115749.3204                   24115748.6954
 -17020719.14148 -13247342.12546  21725034.6484                   21725035.0234
 -27442891.80947 -21371751.00945  21884775.6254                   21884771.6644
 -13592806.28148 -10575888.90445  21955708.6334                   21955707.9184
 11  8 26  2  5  0.0000000  0  9G26G10G29G12G05G15G25G02G30
  -4362798.23047  -3385287.79144  23188985.4064                   23188984.6764
 -12690993.90246  -9874985.93043  24249787.3834                   24249786.5784
  -9806751.26247  -7628585.05246  22304529.6724                   22304527.8134
 -21628185.74647 -16837938.26346  21863740.8834                   21863739.3094
 -26707503.10948 -20795298.33547  20615947.2194                   20615945.4694
   3642583.60247   2852864.89144  24091421.1484                   24091421.8634
 -17038047.17648 -13260844.48646  21721737.0704                   21721737.8954
 -27435840.53947 -21366256.50746  21886117.6094                   21886113.3484
 -13603247.27748 -10584024.75045  21953721.7194                   21953720.7304
 11  8 26  2  5 30.0000000  0  9G26G10G29G12G05G15G25G02G30
  -4485612.14147  -3480986.87644  23165614.4384                   23165613.3874
 -12615090.03546  -9815840.05743  24264231.6094                   24264230.6174
  -9918520.64547  -7715678.05546  22283260.0784                   22283258.4574
 -21588491.95347 -16807008.04046  21871294.5474                   21871292.6334
 -26699113.96148 -20788761.32947  20617543.8834                   20617541.8134
   3514687.73047   2753205.92244  24067083.5394                   24067083.1564
 -17054824.09448 -13273917.41146  21718544.8984                   21718545.6334
 -27428709.91848 -21360700.18946  21887474.4064                   21887470.3554
 -13613138.37148 -10591732.11345  21951839.8134                   21951838.2424
 11  8 26  2  6  0.0000000  0  9G26G10G29G12G05G15G25G02G30
  -4608259.50447  -3576556.17644  23142276.0474                   23142274.2114
 -12539113.33646  -9756637.53743  24278689.3834                   24278687.7344
 -10030170.44547  -7802677.89446  22262014.0084                   22262011.8754
 -21548444.54347 -16775802.28346  21878915.2194                   21878913.6644
 -26690269.58248 -20781869.59847  20619227.0864                   20619224.7584
   3386739.38347   2653506.06444  24042735.5554                   24042735.1414
 -17071053.92648 -13286564.03646  21715456.2034                   21715456.7894
 -27421502.81647 -21355084.27046  21888845.4144                   21888841.6254
 -13622484.13748 -10599014.54145  21950061.2664                   21950059.9144
 11  8 26  2  6 30.0000000  0  9G26G10G29G12G05G15G25G02G30
  -4730728.83647  -3671986.72044  23118970.5634                   23118968.8364
 -12463058.46946  -9697373.98042  24293162.6884                   24293160.8364
 -10141690.55947  -7889576.65146  22240792.2034                   22240790.7234
 -21508038.32847 -16744316.92446  21886604.1804                   21886602.8794
 -26680964.43447 -20774618.82247  20620997.4614                   20620995.4144
   3258748.80947   2553773.33744  24018379.8834                   24018379.3244
 -17086730.14848 -13298779.28146  21712473.2114                   21712473.7074
 -27414211.73847 -21349402.91846  21890233.0004                   21890229.1954
 -13631278.48848 -10605867.27445  21948387.5784                   21948386.4654
 11  8 26  2  7  0.0000000  0  9G26G10G29G12G05G15G25G02G30
  -4853023.63747  -3767281.32044  23095698.5474                   23095697.3914
 -12386934.94146  -9638056.94843  24307648.4774                   24307645.8524
 -10253086.34047  -7976378.54045  22219594.2974                   22219592.5124
 -21467283.55947 -16712559.96746  21894359.3594                   21894358.1414
 -26671207.82848 -20767016.27347  20622854.0234                   20622852.0164
   3130711.46147   2454004.11244  23994015.2584                   23994015.3914
 -17101861.14148 -13310569.66946  21709593.7034                   21709594.3364
 -27406843.85947 -21343661.72346  21891635.4224                   21891631.4574
 -13639530.27747 -10612297.23945  21946817.2424                   21946816.0354
 11  8 26  2  7 30.0000000  0  9G26G10G29G12G05G15G25G02G30
  -4975138.45347  -3862435.68344  23072460.7034                   23072459.8524
 -12310743.29746  -9578686.87543  24322146.7664                   24322145.2894
 -10364353.52047  -8063080.21446  22198420.8914                   22198419.4574
 -21426180.89148 -16680531.92046  21902181.2424                   21902179.8794
 -26660999.64548 -20759061.83747  20624796.6334                   20624794.5944
   3002632.22747   2354202.26744  23969642.5164                   23969641.8404
 -17116446.18448 -13321934.64546  21706818.3594                   21706818.7234
 -27399396.89147 -21337858.89446  21893052.3054                   21893048.2304
 -13647239.27747 -10618304.26445  21945350.7974                   21945349.5354
 11  8 26  2  8  0.0000000  0  9G26G10G29G12G05G15G25G02G30
  -5097066.88747  -3957444.78044  23049258.1484                   23049257.6684
 -12234483.35546  -9519263.56243  24336659.0474                   24336658.0514
 -10475487.09847  -8149677.76746  22177272.7974                   22177271.0664
 -21384730.78947 -16648233.13746  21910068.5234                   21910067.4574
 -26650339.63748 -20750755.32347  20626825.4304                   20626823.1914
   2874516.52046   2254371.98344  23945262.7424                   23945261.8244
 -17130483.88748 -13332873.12246  21704146.9924                   21704147.5784
 -27391868.34047 -21331992.50745  21894484.9384                   21894481.1804
 -13654404.43748 -10623887.50845  21943986.9614                   21943985.8014
 11  8 26  2  8 30.0000000  0  9G26G10G29G12G05G15G25G02G30
  -5218807.52347  -4052307.54344  23026091.9454                   23026091.1484
 -12158159.48846  -9459790.45243  24351182.2814                   24351181.6564
 -10586487.24247  -8236171.36746  22156150.2504                   22156148.3984
 -21342938.07847 -16615667.38346  21918021.8204                   21918020.2974
 -26639231.89848 -20742099.92447  20628939.1414                   20628936.8984
   2746365.11746   2154513.91944  23920876.0474                   23920875.6024
 -17143977.54748 -13343387.66746  21701579.3524                   21701579.8444
 -27384259.87547 -21326063.83546  21895933.0164                   21895929.0474
 -13661029.65648 -10629050.03645  21942726.2974                   21942724.6804
 11  8 26  2  9  0.0000000  0  9G26G10G29G12G05G15G25G02G30
  -5340357.59447  -4147021.80644  23002961.9614                   23002960.8014
 -12081775.40646  -9400270.35243  24365718.1724                   24365718.0514
 -10697352.74647  -8322560.04046  22135053.0234                   22135051.2274
 -21300806.75048 -16582837.76846  21926039.0864                   21926037.8524
 -26627679.42248 -20733097.99447  20631137.3914                   20631134.9964
   2618179.44546   2054629.09944  23896483.1884                   23896482.5434
 -17156929.46548 -13353480.06946  21699114.7034                   21699115.0234
 -27376572.56647 -21320073.73946  21897395.8984                   21897391.9224
 -13667117.54347 -10633793.83245  21941567.9384                   21941567.1134
 11  8 26  2  9 30.0000000  0  9G26G10G29G12G05G15G25G02G30
  -5461705.82847  -4241578.79644  22979869.6174                   22979868.9844
 -12005325.37146  -9340698.92943  24380266.8134                   24380265.0314
 -10808073.76647  -8408836.11846  22113983.3674                   22113982.0634
 -21258331.70748 -16549740.33746  21934121.6174                   21934120.4694
 -26615676.43748 -20723745.00946  20633421.5234                   20633419.1414
   2489970.65247   1954726.26044  23872085.5004                   23872085.1644
 -17169333.10948 -13363145.24146  21696754.3364                   21696754.9344
 -27368798.59847 -21314016.12246  21898875.3054                   21898870.9574
 -13672662.17247 -10638114.32245  21940512.4844                   21940511.3244
 11  8 26  2 10  0.0000000  0  9G26G10G29G12G05G15G25G02G30
  -5582852.74247  -4335978.90844  22956816.4144                   22956815.5044
 -11928816.51646  -9281081.63143  24394825.7114                   24394823.9344
 -10918652.79347  -8495001.56746  22092941.0314                   22092939.3324
 -21215520.25848 -16516380.76846  21942268.8444                   21942267.1524
 -26603229.75048 -20714046.28447  20635790.0084                   20635787.4924
   2361736.69946   1854803.85544  23847683.7894                   23847682.6294
 -17181194.43048 -13372387.82446  21694497.5554                   21694497.5864
 -27360942.35547 -21307894.39445  21900370.0234                   21900366.3634
 -13677669.88748 -10642016.44046  21939559.8914                   21939558.4184
 11  8 26  2 10 30.0000000  0  9G26G10G29G12G05G15G25G02G30
  -5703796.09847  -4430220.43245  22933801.6954                   22933800.4774
 -11852252.29746  -9221421.26643  24409395.1254                   24409393.8204
 -11029088.59447  -8581055.40446  22071925.6414                   22071924.0984
 -21172376.42248 -16482762.19446  21950478.5554                   21950476.8554
 -26590342.74248 -20704004.43647  20638242.7114                   20638240.3054
   2233479.53947   1754863.32144  23823276.9844                   23823275.9414
 -17192515.75448 -13381209.63346  21692342.7664                   21692343.2774
 -27353004.82448 -21301709.32145  21901880.3834                   21901876.6564
 -13682143.41048 -10645502.30645  21938708.5704                   21938707.0514
 11  8 26  2 11  0.0000000  0  9G26G10G29G12G05G15G25G02G30
  -5824532.50447  -4524300.67645  22910826.1254                   22910825.2074
 -11775635.15646  -9161719.55443  24423974.8594                   24423973.3204
 -11139379.28947  -8666996.15846  22050938.4144                   22050936.5664
 -21128903.65248 -16448887.31646  21958751.1954                   21958749.6604
 -26577018.12948 -20693621.61246  20640777.8284                   20640775.4344
   2105201.43847   1654906.47944  23798866.1724                   23798865.7584
 -17203298.92248 -13389612.09446  21690291.0864                   21690291.3874
 -27344986.26247 -21295461.10445  21903406.3914                   21903402.3484
 -13686085.11347 -10648573.76445  21937958.2424                   21937956.9304
 11  8 26  2 11 30.0000000  0  9G26G10G29G12G05G15G25G02G30
  -5945060.02347  -4618218.17045  22887890.3284                   22887889.2624
 -11698969.64146  -9101980.24843  24438563.7814                   24438562.7074
 -11249524.50047  -8752823.56546  22029978.1024                   22029976.3244
 -21085106.66848 -16414759.80446  21967085.7034                   21967084.1564
 -26563259.22348 -20682900.36946  20643396.1954                   20643394.0394
   1976903.63346   1554934.26944  23774451.8364                   23774451.1454
 -17213546.98848 -13397597.59646  21688340.3444                   21688341.5204
 -27336888.23847 -21289150.98245  21904947.4144                   21904943.5634
 -13689498.45747 -10651233.49645  21937308.7814                   21937307.2344
 11  8 26  2 12  0.0000000  0  9G26G10G29G12G05G15G25G02G30
  -6065369.40647  -4711965.64144  22864996.1804                   22864995.6024
 -11622252.37946  -9042200.62543  24453161.8674                   24453161.7304
 -11359516.54347  -8838531.60446  22009047.5944                   22009045.6994
 -21040982.32848 -16380377.19846  21975482.1024                   21975480.4534
 -26549062.85248 -20671838.25547  20646097.8984                   20646095.0554
   1848594.50047   1454953.25444  23750035.5234                   23750034.1844
 -17223255.73048 -13405162.83646  21686493.1334                   21686494.1914
 -27328704.94148 -21282774.39745  21906504.7734                   21906501.4024
 -13692379.69947 -10653478.61345  21936760.3204                   21936759.1094
 11  8 26  2 12 30.0000000  0  9G26G10G29G12G05G15G25G02G30
  -6185461.48047  -4805543.81145  22842143.5554                   22842142.4694
 -11545490.32446  -8982385.98643  24467769.1564                   24467769.3014
 -11469358.00447  -8924122.31346  21988145.4144                   21988143.7934
 -20996538.50448 -16345745.66746  21983939.5474                   21983937.8444
 -26534435.96948 -20660440.65947  20648881.1564                   20648878.4064
   1720271.93847   1354961.76144  23725616.0864                   23725614.7704
 -17232431.46548 -13412312.75746  21684747.2114                   21684747.3164
 -27320440.84448 -21276334.86245  21908077.4694                   21908073.0984
 -13694735.61747 -10655314.38045  21936312.1644                   21936310.6174
 11  8 26  2 13  0.0000000  0  9G26G10G29G12G05G15G25G02G30
  -6305333.32047  -4898950.36445  22819332.5164                   22819331.0824
 -11468686.41846  -8922538.79643  24482385.4924                   24482384.9774
 -11579047.14547  -9009594.33646  21967272.2424                   21967270.6804
 -20951778.71548 -16310867.91046  21992457.1564                   21992455.4884
 -26519381.48048 -20648709.87547  20651745.9924                   20651743.2304
   1591938.59847   1254961.88844  23701195.4454                   23701194.2344
 -17241076.07848 -13419048.81046  21683101.9384                   21683102.4694
 -27312096.52348 -21269832.79845  21909665.3674                   21909661.0124
 -13696568.48447 -10656742.57245  21935963.0164                   21935961.8954
 11  8 26  2 13 30.0000000  0  9G26G10G29G12G05G15G25G02G30
  -6424978.98047  -4992180.72645  22796564.2974                   22796563.5164
 -11391840.79746  -8862659.07043  24497007.9224                   24497007.7114
 -11688579.53948  -9094944.21846  21946429.0394                   21946426.8364
 -20906703.84447 -16275744.63746  22001034.4844                   22001032.9774
 -26503899.27748 -20636645.81046  20654692.0474                   20654689.1454
   1463599.42647   1154957.42044  23676772.7734                   23676771.7734
 -17249189.02748 -13425370.58446  21681558.1954                   21681558.6254
 -27303669.98447 -21263266.67945  21911268.5474                   21911264.9494
 -13697878.23447 -10657763.15545  21935714.5234                   21935712.6804
 11  8 26  2 14  0.0000000  0  9G26G10G29G12G05G15G25G02G30
  -6544395.27747  -5085232.32345  22773840.3834                   22773839.0664
 -11314956.28146  -8802749.19343  24511639.4384                   24511638.3014
 -11797953.49648  -9180170.64646  21925615.6174                   21925613.6724
 -20861317.12947 -16240378.37846  22009671.0004                   22009669.7894
 -26487992.00448 -20624250.51746  20657718.8914                   20657716.5944
   1335256.90647   1054950.38944  23652350.2814                   23652349.3984
 -17256772.10948 -13431279.46546  21680115.4454                   21680115.4774
 -27295161.07048 -21256636.35945  21912887.8984                   21912883.8484
 -13698667.14847 -10658377.89045  21935564.2424                   21935563.2544
 11  8 26  2 14 30.0000000  0  9G26G10G29G12G05G15G25G02G30
  -6663580.50847  -5178103.86845  22751160.2194                   22751158.8794
 -11238036.90246  -8742811.96243  24526276.5554                   24526274.9614
 -11907168.77348  -9265273.41946  21904832.7194                   21904830.7114
 -20815623.43047 -16204772.89646  22018366.7114                   22018364.5984
 -26471663.86348 -20611527.26846  20660826.0314                   20660823.3794
   1206911.89847    954941.41444  23627926.6644                   23627925.8834
 -17263828.92248 -13436778.26846  21678772.0394                   21678772.5864
 -27286571.74248 -21249943.38045  21914522.1174                   21914518.0634
 -13698939.23447 -10658589.89845  21935512.5394                   21935510.9654
 11  8 26  2 15  0.0000000  0  8G26G29G12G05G15G25G02G30
  -6782527.86747  -5270790.06444  22728525.3134                   22728523.7424
 -12016219.85948  -9350248.25946  21884080.9534                   21884079.1844
 -20769622.28547 -16168927.86246  22027120.6724                   22027118.6524
 -26454914.00048 -20598475.41746  20664013.3594                   20664010.5394
   1078570.43047    854935.17144  23603503.9614                   23603502.8324
 -17270357.85548 -13441865.75046  21677530.2034                   21677530.6094
 -27277898.68448 -21243185.15045  21916172.7584                   21916169.1764
 -13698693.34847 -10658398.29145  21935558.7424                   21935557.8674
 11  8 26  2 15 30.0000000  0  8G26G29G12G05G15G25G02G30
  -6901234.37547  -5363288.60245  22705936.1484                   22705935.1604
 -12125105.59848  -9435094.24946  21863360.5004                   21863358.6094
 -20723317.55147 -16132846.25546  22035931.5314                   22035930.2664
 -26437745.55148 -20585097.38646  20667280.5004                   20667277.9344
    950234.88347    754933.57444  23579082.5314                   23579081.2664
 -17276361.18448 -13446543.66246  21676387.3674                   21676388.1884
 -27269142.18448 -21236361.90545  21917839.2194                   21917835.4774
 -13697932.20347 -10657805.19345  21935703.9774                   21935702.6604
 11  8 26  2 16  0.0000000  0  8G26G29G12G05G15G25G02G30
  -7019689.73847  -5455591.45245  22683394.9774                   22683393.8134
 -12233817.02748  -9519804.41946  21842673.1334                   21842671.9184
 -20676705.64848 -16096525.30246  22044801.4844                   22044799.9064
 -26420154.12148 -20571389.76247  20670628.0084                   20670625.2814
    821914.27047    654943.59044  23554663.9844                   23554663.1484
 -17281834.09848 -13450808.26446  21675345.8834                   21675346.7734
 -27260295.70748 -21229468.53145  21919522.5234                   21919518.2584
 -13696651.42648 -10656807.19345  21935947.7894                   21935946.1294
 11  8 26  2 16 30.0000000  0  9G26G21G29G12G05G15G25G02G30
  -7137892.59447  -5547697.50245  22660901.8754                   22660900.3634
   7748721.06616                  25095895.063
 -12342353.95748  -9604378.59946  21822019.8364                   21822017.7664
 -20629792.10247 -16059969.28046  22053729.1414                   22053728.0314
 -26402143.81648 -20557355.74046  20674055.1414                   20674052.8324
    693609.62547    554966.05844  23530248.6334                   23530247.3794
 -17286780.23048 -13454662.40046  21674404.6724                   21674405.5904
 -27251361.20748 -21222506.57145  21921222.7894                   21921218.5314
 -13694855.06647 -10655407.43845  21936289.4534                   21936288.3444
 11  8 26  2 17  0.0000000  0  9G26G21G29G12G05G15G25G02G30
  -7255842.50447  -5639606.45445  22638456.5554                   22638455.1134
   7661240.49246   5980189.45153  25079247.6954                   25079244.5824
 -12450717.77348  -9688817.88746  21801398.4144                   21801396.8014
 -20582582.72747 -16023182.74946  22062712.9924                   22062710.8554
 -26383720.83648 -20543000.15746  20677561.2894                   20677558.1724
    565320.41047    455000.54944  23505835.2424                   23505834.7304
 -17291204.84848 -13458110.15246  21673562.7194                   21673563.6374
 -27242342.10548 -21215478.67945  21922938.7584                   21922935.0634
 -13692548.87947 -10653610.41345  21936728.1564                   21936726.7664
 11  8 26  2 17 30.0000000  0  9G26G21G29G12G05G15G25G02G30
  -7373541.15647  -5731319.64245  22616059.3364                   22616057.4104
   7573757.26646   5912020.87943  25062600.3054                   25062598.2934
 -12558911.26648  -9773124.46646  21780809.8134                   21780807.8324
 -20535086.32848 -15986172.56846  22071751.0394                   22071749.5744
 -26364892.43748 -20528328.66646  20681143.8674                   20681141.5204
    437044.32447    355045.26444  23481425.5164                   23481424.1644
 -17295114.71548 -13461156.79946  21672818.3364                   21672819.7034
 -27233243.19548 -21208388.60945  21924670.6564                   21924666.3164
 -13689739.93747 -10651421.63745  21937262.9224                   21937261.6914
 11  8 26  2 18  0.0000000  0  9G26G21G29G12G05G15G25G02G30
  -7490984.43747  -5822833.84645  22593709.8914                   22593708.9964
   7486271.21546   5843850.10143  25045952.0784                   25045950.5864
 -12666931.78948  -9857296.25546  21760254.2894                   21760252.4064
 -20487305.38347 -15948940.66646  22080843.7274                   22080842.0984
 -26345660.62148 -20513342.81446  20684803.2734                   20684801.1054
    308784.71147    255102.80244  23457018.3134                   23457016.4384
 -17298511.23448 -13463803.44146  21672172.3914                   21672173.4304
 -27224064.30948 -21201236.20645  21926417.0234                   21926412.9344
 -13686430.12547 -10648842.56145  21937892.6884                   21937891.2384
 11  8 26  2 18 30.0000000  0  9G26G21G29G12G05G15G25G02G30
  -7608169.67247  -5914146.97345  22571410.5474                   22571409.2194
   7398781.02046   5775675.93042  25029302.5944                   25029300.6054
 -12774778.22748  -9941332.41446  21739731.5784                   21739729.5274
 -20439243.31648 -15911489.71246  22089989.4844                   22089987.8244
 -26326028.42648 -20498044.99147  20688539.3204                   20688536.9804
    180543.60947    155174.76844  23432614.7814                   23432614.0634
 -17301396.85548 -13466051.98346  21671623.1884                   21671623.9964
 -27214805.74248 -21194021.71345  21928178.9384                   21928175.0904
 -13682622.38347 -10645875.49245  21938617.5394                   21938615.9414
 11  8 26  2 19  0.0000000  0  9G26G21G29G12G05G15G25G02G30
  -7725086.88347  -6005251.22245  22549161.7584                   22549160.6884
   7311292.04746   5707502.85242  25012654.8284                   25012652.4694
 -12882442.18748 -10025226.35446  21719243.8364                   21719242.0784
 -20390897.45747 -15873817.59146  22099189.1644                   22099187.3794
 -26305992.72748 -20482432.74246  20692351.7894                   20692349.5204
     52329.55147     55267.82744  23408216.1174                   23408215.3954
 -17303767.52048 -13467899.24646  21671172.4844                   21671173.2424
 -27205461.21948 -21186740.24845  21929957.2274                   21929953.0944
 -13678313.07847 -10642517.58245  21939437.2974                   21939435.7074
 11  8 26  2 19 30.0000000  0  9G26G21G29G12G05G15G25G02G30
  -7841734.38747  -6096145.32745  22526964.1174                   22526963.3484
   7223801.97746   5639328.83642  24996005.3134                   24996003.6804
 -12989923.23448 -10108977.79046  21698790.7274                   21698789.2464
 -20342272.38347 -15835927.92446  22108442.3284                   22108440.6994
 -26285556.99248 -20466508.78746  20696240.8834                   20696238.4574
    -75855.96547    -44616.91144  23383823.2194                   23383822.0634
 -17305626.66048 -13469347.91946  21670818.4924                   21670818.6644
 -27196032.31248 -21179393.02745  21931751.6884                   21931747.4264
 -13673506.02347 -10638771.82745  21940352.0004                   21940350.3834
 11  8 26  2 20  0.0000000  0  9G26G21G29G12G05G15G25G02G30
  -7958108.52347  -6186826.42945  22504819.7584                   22504818.2274
   7136309.97346   5571153.38342  24979355.5004                   24979355.1054
 -13097219.04748 -10192584.85946  21678373.1174                   21678371.4924
 -20293371.27047 -15797823.16145  22117747.9144                   22117745.7854
 -26264723.48048 -20450274.86146  20700205.3674                   20700202.9614
   -204010.02747   -144477.14144  23359436.3364                   23359435.8874
 -17306976.05548 -13470399.39346  21670561.9774                   21670562.3014
 -27186518.93748 -21171979.97945  21933561.6024                   21933557.9734
 -13668203.44947 -10634639.95145  21941361.0394                   21941359.9694
 11  8 26  2 20 30.0000000  0  9G26G21G29G12G05G15G25G02G30
  -8074204.53547  -6277290.79745  22482726.8364                   22482725.3754
   7048816.73046   5502977.00842  24962705.9694                   24962705.5354
 -13204326.33648 -10276045.04046  21657991.2194                   21657989.2384
 -20244196.24248 -15759504.94846  22127105.3524                   22127103.9924
 -26243493.67248 -20433732.15146  20704245.3594                   20704242.7664
   -332128.61347   -244309.70844  23335056.0164                   23335054.5314
 -17307816.58248 -13471054.35046  21670401.5634                   21670402.3984
 -27176919.80548 -21164500.12645  21935388.4844                   21935384.4964
 -13662406.65648 -10630122.96545  21942464.3284                   21942462.7464
 11  8 26  2 21  0.0000000  0  9G26G21G29G12G05G15G25G02G30
  -8190021.00447  -6367537.32545  22460687.4144                   22460685.8674
   6961319.03946   5434797.13742  24946055.7504                   24946055.2274
 -13311244.93048 -10359358.20546  21637645.2194                   21637643.7194
 -20194752.39847 -15720977.28046  22136514.4144                   22136513.3524
 -26221872.20748 -20416884.25446  20708359.4924                   20708357.3674
   -460210.94547   -344114.04344  23310682.7664                   23310681.1414
 -17308152.23848 -13471315.89946  21670337.7584                   21670338.4654
 -27167237.19548 -21156955.21745  21937230.7664                   21937226.7734
 -13656120.05147 -10625224.32945  21943660.5704                   21943659.3324
 11  8 26  2 21 30.0000000  0  9G26G21G29G12G05G15G25G02G30
  -8305558.46147  -6457566.46445  22438701.3914                   22438700.1644
   6873812.14146   5366610.11742  24929404.8914                   24929402.2304
 -13417976.93448 -10442525.96046  21617334.9304                   21617332.8554
 -20145047.01247 -15682245.80945  22145973.2034                   22145970.9614
 -26199865.90648 -20399736.46646  20712547.2344                   20712545.0474
   -588258.36747   -443891.14944  23286315.8364                   23286315.5634
 -17307989.14848 -13471188.81946  21670368.9144                   21670369.8244
 -27157474.77048 -21149348.11545  21939088.6094                   21939084.6374
 -13649350.10548 -10619949.03845  21944948.7974                   21944947.4024
 11  8 26  2 22  0.0000000  0  9G26G21G29G12G05G15G25G02G30
  -8420804.31647  -6547368.37645  22416771.4224                   22416770.0274
   6786304.87146   5298422.80542  24912751.2894                   24912750.6564
 -13524511.09448 -10525539.55446  21597061.9774                   21597059.9024
 -20095073.84447 -15643305.67346  22155482.5864                   22155480.9804
 -26177468.11748 -20382283.64346  20716809.6254                   20716807.3164
   -716258.95747   -543631.79844  23261958.4924                   23261957.2624
 -17307320.17648 -13470667.53346  21670496.1254                   21670496.9884
 -27147623.41048 -21141671.71945  21940963.4534                   21940959.3484
 -13642090.26648 -10614292.01345  21946329.8444                   21946328.6174
 11  8 26  2 22 30.0000000  0  9G26G21G29G12G05G15G25G02G30
  -6960333.89147  -5409339.39845  22694689.5944                   22694688.0354
   8274216.57846   6457834.61743  25195891.4384                   25195890.5824
 -12055424.19148  -9380796.47446  21876620.2424                   21876617.8914
 -18469420.28147 -14376562.65345  22464834.3674                   22464832.5434
 -24579264.43048 -19136930.11046  21020937.6644                   21020935.5394
    731211.89146    584267.66044  23537403.0474                   23537401.5434
 -15730729.88348 -12242155.60646  21970511.2814                   21970511.9064
 -25562265.82848 -19906328.14045  22242646.4304                   22242642.8204
 -12058925.62548  -9380657.23145  22247596.3984                   22247595.1374
 11  8 26  2 23  0.0000000  0  9G26G21G29G12G05G15G25G02G30
  -7074989.63347  -5498681.51345  22672870.9304                   22672869.8984
   8186702.19546   6389641.82843  25179238.6024                   25179237.2114
 -12161559.62148  -9463499.39246  21856422.7664                   21856420.9104
 -18418925.27747 -14337215.90646  22474443.1804                   22474442.1914
 -24556094.53948 -19118875.65047  21025346.5234                   21025344.3794
    603309.96546    484603.90744  23513063.8204                   23513062.3914
 -15729058.87948 -12240853.51046  21970829.5394                   21970830.0314
 -25552239.74648 -19898515.60245  22244554.5474                   22244550.7114
 -12050696.75448  -9374245.12845  22249162.7344                   22249161.1334
 11  8 26  2 23 30.0000000  0  9G26G21G29G12G05G15G25G02G30
  -7189347.53947  -5587791.51745  22651109.6884                   22651107.9734
   8099180.58646   6321443.33343  25162583.7034                   25162582.3364
 -12267495.09048  -9546046.47546  21836264.2424                   21836262.3674
 -18368176.36747 -14297671.31546  22484100.4224                   22484098.5514
 -24532544.76248 -19100525.16646  21029828.4064                   21029825.6764
    475459.10947    384979.95145  23488734.5864                   23488733.2274
 -15726892.54748 -12239165.43646  21971241.4384                   21971242.0904
 -25542128.63747 -19890636.81845  22246478.4694                   22246474.5944
 -12041989.69547  -9367460.39345  22250819.4614                   22250818.2304
 11  8 26  2 24  0.0000000  0  9G26G21G29G12G05G15G25G02G30
  -7303404.38747  -5676666.91945  22629405.1174                   22629404.0554
   8011650.76246   6253238.36143  25145926.7504                   25145925.4264
 -12373228.74248  -9628436.29346  21816143.7504                   21816141.5234
 -18317177.44147 -14257931.88945  22493804.9064                   22493803.5904
 -24508618.02048 -19081880.94446  21034381.1254                   21034378.6604
    347661.93047    285397.81944  23464415.5554                   23464413.9064
 -15724233.28948 -12237093.27946  21971747.5234                   21971748.3164
 -25531932.91447 -19882692.11345  22248418.8444                   22248414.6684
 -12032807.28147  -9360305.27645  22252566.6254                   22252565.6914
 11  8 26  2 24 30.0000000  0  9G26G21G29G12G05G15G25G02G30
  -7417155.49247  -5765304.09945  22607759.1254                   22607757.6804
   7924112.85246   6185027.21843  25129269.0234                   25129267.9224
 -12478756.86348  -9710665.98046  21796062.2274                   21796060.6564
 -18265930.56647 -14217999.26545  22503556.8444                   22503555.3754
 -24484315.71548 -19062944.08446  21039005.8134                   21039003.4304
    219922.23047    185860.48045  23440107.4144                   23440106.1484
 -15721082.02048 -12234637.73646  21972347.1094                   21972347.9224
 -25521650.99648 -19874680.23345  22250375.7194                   22250371.4924
 -12023150.76248  -9352780.73045  22254404.2504                   22254403.2194
 11  8 26  2 25  0.0000000  0  9G26G21G29G12G05G15G25G02G30
  -7530597.20347  -5853700.21145  22586171.7424                   22586170.3554
   7836566.56346   6116809.45143  25112609.3054                   25112608.6094
 -12584077.58248  -9792734.02746  21776020.2894                   21776018.7074
 -18214438.47747 -14177875.58445  22513355.5704                   22513354.4414
 -24459640.24648 -19043716.43846  21043701.2584                   21043698.8634
     92243.19947     86370.40744  23415810.6484                   23415809.5594
 -15717440.64848 -12231800.28846  21973040.1484                   21973040.5824
 -25511282.80948 -19866601.12045  22252348.4224                   22252344.3954
 -12013022.55547  -9344888.61945  22256331.3284                   22256330.2934
 11  8 26  2 25 30.0000000  0  9G26G21G29G12G05G15G25G02G30
  -7643725.91447  -5941852.40745  22564644.1884                   22564642.1564
   7749011.16046   6048584.61143  25095947.3754                   25095947.1954
 -12689188.62948  -9874638.70646  21756018.5554                   21756016.5594
 -18162704.55147 -14137563.44945  22523200.5314                   22523198.7274
 -24434594.11348 -19024199.96746  21048467.8524                   21048465.0084
    -35372.32447    -13070.18644  23391526.7734                   23391524.9844
 -15713311.41448 -12228582.69146  21973825.7584                   21973826.4844
 -25500828.05147 -19858454.58245  22254338.1884                   22254333.9694
 -12002425.20348  -9336630.93645  22258348.1804                   22258347.1564
 11  8 26  2 26  0.0000000  0  9G26G21G29G12G05G15G25G02G30
  -7756534.64847  -6029755.27145  22543177.1954                   22543175.5944
   7661449.52346   5980354.95643  25079285.5004                   25079284.2774
 -12794084.35248  -9956375.59046  21736057.4924                   21736055.5704
 -18110728.27747 -14097062.45445  22533090.8914                   22533089.2344
 -24409176.28148 -19004393.85546  21053304.3984                   21053302.1724
   -162918.20747   -112456.50544  23367255.2274                   23367253.6844
 -15708693.05148 -12224983.95146  21974704.6644                   21974705.4264
 -25490283.24647 -19850237.85845  22256344.4064                   22256340.4774
 -11991357.88748  -9328007.04845  22260454.0944                   22260452.5434
 11  8 26  2 26 30.0000000  0  9G26G21G29G12G05G15G25G02G30
  -7869023.09847  -6117408.56145  22521771.4304                   22521769.4384
   7573877.78546   5912117.29343  25062620.8984                   25062619.9654
 -12898765.24248 -10037945.06746  21716137.2734                   21716135.6134
 -18058516.07447 -14056377.61945  22543026.8134                   22543025.0864
 -24383392.63748 -18984302.69846  21058210.9384                   21058208.4614
   -290394.35947   -211788.49345  23342997.4144                   23342995.9224
 -15703590.75448 -12221008.12746  21975675.7034                   21975676.1454
 -25479651.13747 -19841953.11345  22258367.5704                   22258363.5634
 -11979826.19547  -9319021.30545  22262649.1094                   22262647.2704
 11  8 26  2 27  0.0000000  0  9G26G21G29G12G05G15G25G02G30
  -7981185.50047  -6204807.78445  22500427.3674                   22500425.8244
   7486297.33246   5843872.95543  25045954.9694                   25045953.8484
 -13003227.28948 -10119344.02946  21696259.1724                   21696256.9774
 -18006068.70347 -14015509.56345  22553007.2664                   22553005.6884
 -24357243.10248 -18963926.42746  21063186.8594                   21063184.4574
   -417795.64847   -311062.16544  23318753.6254                   23318752.2464
 -15698004.61348 -12216655.26546  21976738.4454                   21976739.3094
 -25468929.44947 -19833598.56945  22260408.3754                   22260404.0594
 -11967830.63347  -9309674.09445  22264931.3834                   22264930.1844
 11  8 26  2 27 30.0000000  0  9G26G21G29G12G05G15G25G02G30
  -8093021.50047  -6291952.69645  22479145.7424                   22479144.1254
   7398704.31646   5775618.73243  25029286.5164                   25029285.5904
 -13107471.31648 -10200573.09046  21676421.7504                   21676419.8914
 -17953393.06647 -13974463.60945  22563031.4614                   22563029.7464
 -24330733.56248 -18943269.63546  21068231.6174                   21068229.0394
   -545122.24647   -410277.64144  23294523.3204                   23294522.2344
 -15691939.90248 -12211929.49946  21977892.5784                   21977893.4384
 -25458121.10547 -19825176.46845  22262464.5864                   22262460.6024
 -11955376.71148  -9299969.73145  22267301.4844                   22267300.0204
 11  8 26  2 28  0.0000000  0  9G26G21G29G12G05G15G25G02G30
  -8204529.89847  -6378842.31245  22457926.3204                   22457924.6524
   7311095.69946   5707352.39943  25012615.2034                   25012614.0234
 -13211497.52348 -10281632.43946  21656626.0704                   21656624.4184
 -17900494.19947 -13933243.74045  22573097.1644                   22573095.2774
 -24303868.98448 -18922336.20346  21073343.6484                   21073340.7774
   -672373.91847   -509434.70145  23270309.0634                   23270307.2274
 -15685401.28948 -12206834.45646  21979136.9224                   21979137.3444
 -25447228.30147 -19816688.57945  22264537.7974                   22264533.6484
 -11942469.59048  -9289912.21745  22269757.0784                   22269755.9144
 11  8 26  2 28 30.0000000  0  9G26G21G29G12G05G15G25G02G30
  -8315705.11347  -6465472.29745  22436770.3594                   22436769.0744
   7223473.02046   5639075.09743  24995941.0164                   24995939.7384
 -13315301.49248 -10362518.61146  21636872.7894                   21636871.1564
 -17847373.19147 -13891850.73945  22583205.8594                   22583204.3444
 -24276649.68448 -18901126.34046  21078523.1484                   21078520.6524
   -799545.49247   -608529.36445  23246108.7034                   23246107.2894
 -15678388.85548 -12201370.22446  21980471.3754                   21980471.8984
 -25436248.82047 -19808133.15145  22266626.9454                   22266622.9454
 -11929109.85547  -9279502.00745  22272299.6024                   22272298.5274
 11  8 26  2 29  0.0000000  0  9G26G21G29G12G05G15G25G02G30
  -8426540.03147  -6551837.11245  22415679.2114                   22415677.6334
   7135839.15646   5570789.09943  24979264.8914                   24979263.1254
 -13418877.32048 -10443227.00846  21617163.2274                   21617161.3054
 -17794029.63747 -13850284.34345  22593356.9064                   22593355.5744
 -24249074.85548 -18879639.45746  21083770.4064                   21083768.0744
   -926630.43447   -707556.51845  23221924.6334                   23221923.7584
 -15670901.31648 -12195535.76746  21981895.9144                   21981896.5084
 -25425178.97347 -19799507.29145  22268733.4144                   22268729.4384
 -11915296.43447  -9268738.28945  22274928.1334                   22274927.0314
 11  8 26  2 29 30.0000000  0  9G26G21G29G12G05G15G25G02G30
  -8537033.84047  -6637936.14445  22394653.3284                   22394651.2894
   7048190.60246   5502491.66443  24962585.2344                   24962584.6174
 -13522225.65248 -10523758.14146  21597496.1884                   21597494.4654
 -17740469.62147 -13808549.27145  22603549.0784                   22603547.3364
 -24221149.59048 -18857879.49246  21089084.5784                   21089081.9144
  -1053628.39847   -806515.90545  23197758.0394                   23197756.5164
 -15662943.60948 -12189334.94246  21983410.4384                   21983410.9574
 -25414021.07047 -19790812.80745  22270856.9694                   22270852.7584
 -11901034.75847  -9257625.27845  22277642.1334                   22277640.5824
 11  8 26  2 30  0.0000000  0  9G26G21G29G12G05G15G25G02G30
  -8647180.71147  -6723764.82645  22373692.6564                   22373690.8634
   6960529.26246   5434184.25043  24945903.8054                   24945902.6804
 -13625341.77348 -10604108.32946  21577874.5474                   21577872.4414
 -17686693.95747 -13766646.17245  22613782.0704                   22613780.8554
 -24192874.01248 -18835846.57046  21094465.1174                   21094462.7274
  -1180534.39147   -905403.59745  23173609.2974                   23173607.4144
 -15654515.65648 -12182767.70446  21985014.2504                   21985014.8914
 -25402772.28147 -19782047.53145  22272997.2894                   22272992.8094
 -11886325.15247  -9246163.22445  22280440.5394                   22280439.7894
 11  8 26  2 30 30.0000000  0  9G26G21G29G12G05G15G25G02G30
  -8756975.70347  -6809319.31145  22352799.3364                   22352797.7074
   6872855.68446   5365867.23543  24929220.3054                   24929219.4414
 -13728222.16448 -10684274.81446  21558296.6334                   21558294.5704
 -17632704.30147 -13724576.31245  22624056.1024                   22624054.7934
 -24164249.13748 -18813541.46346  21099912.2344                   21099909.8204
  -1307344.02747  -1004216.23745  23149477.3754                   23149476.0394
 -15645618.50848 -12175834.85646  21986707.0944                   21986707.9734
 -25391431.28947 -19773210.37745  22275155.6094                   22275151.6334
 -11871168.95347  -9234353.17645  22283325.2344                   22283323.5234
 11  8 26  2 31  0.0000000  0  9G26G21G29G12G05G15G25G02G30
  -8866418.80947  -6894599.60745  22331972.8674                   22331971.3404
   6785165.93446   5297537.65543  24912533.2814                   24912531.8014
 -13830867.53148 -10764258.19646  21538763.9844                   21538762.0164
 -17578507.32047 -13682344.89745  22634369.3594                   22634367.9804
 -24135281.02348 -18790968.89246  21105424.7424                   21105422.1454
  -1434057.41847  -1102953.89545  23125364.7194                   23125363.2034
 -15636257.59448 -12168540.63646  21988488.3834                   21988489.3164
 -25380001.00447 -19764303.65145  22277330.5554                   22277326.8324
 -11855572.00847  -9222199.69545  22286292.9304                   22286291.9614
 11  8 26  2 31 30.0000000  0  9G26G21G29G12G05G15G25G02G30
  -8975504.94547  -6979601.72945  22311214.3054                   22311212.8674
   6697460.27046   5229195.63243  24895844.0784                   24895842.0984
 -13933274.41448 -10844055.72546  21519276.5704                   21519274.6024
 -17524104.62947 -13639953.20545  22644721.4454                   22644720.3484
 -24105971.01648 -18768129.91146  21111002.3834                   21110999.3244
  -1560670.32447  -1201613.21845  23101271.4304                   23101269.7194
 -15626433.99648 -12160885.88746  21990358.0784                   21990358.4384
 -25368480.13747 -19755326.34245  22279522.8914                   22279518.7344
 -11839535.71947  -9209703.88545  22289344.4534                   22289343.9574
 11  8 26  2 32  0.0000000  0  9G26G21G29G12G05G15G25G02G30
  -9084230.78147  -7064323.12545  22290524.6954                   22290522.5634
   6609738.80546   5160841.38443  24879149.8364                   24879148.3444
 -14035440.77347 -10923665.83046  21499834.6954                   21499832.5904
 -17469499.35247 -13597403.63745  22655112.8834                   22655110.6804
 -24076321.54348 -18745026.42146  21116644.2894                   21116641.3094
  -1687180.12547  -1300192.21145  23077197.3054                   23077195.0634
 -15616150.24647 -12152872.58346  21992315.0314                   21992315.8954
 -25356868.43047 -19746278.24845  22281732.6094                   22281728.2584
 -11823062.94147  -9196867.94145  22292479.1724                   22292478.2664
 11  8 26  2 32 30.0000000  0  9G26G21G29G12G05G15G25G02G30
  -9192594.96947  -7148762.71945  22269904.1564                   22269901.9224
   6521998.25846   5092472.15343  24862453.7584                   24862452.4184
 -14137366.53548 -11003088.45746  21480438.9454                   21480437.2814
 -17414697.09447 -13554700.55445  22665541.5864                   22665539.7934
 -24046337.59448 -18721662.28746  21122349.8984                   21122347.3054
  -1813585.61347  -1398689.93545  23053142.6954                   23053141.0984
 -15605410.82847 -12144504.20346  21994358.4224                   21994358.9804
 -25345167.62147 -19737160.71545  22283959.1484                   22283954.4614
 -11806158.73847  -9183695.82745  22295696.2664                   22295695.4694
 11  8 26  2 33  0.0000000  0  9G26G21G29G12G05G15G25G02G30
  -9300591.63747  -7232915.92145  22249352.5554                   22249350.8324
   6434240.36346   5024089.43343  24845754.3054                   24845752.4734
 -14239046.46148 -11082319.51446  21461089.8834                   21461087.8524
 -17359698.61747 -13511844.62545  22676007.4534                   22676006.1684
 -24016018.70348 -18698037.16746  21128119.5164                   21128117.0594
  -1939881.39847  -1497102.17445  23029109.2814                   23029107.6454
 -15594215.51248 -12135780.58446  21996489.0394                   21996489.6484
 -25333374.98847 -19727971.61945  22286203.0784                   22286199.2934
 -11788823.10547  -9170187.52445  22298995.1024                   22298994.2934
 11  8 26  2 33 30.0000000  0  9G26G21G29G12G05G15G25G02G30
  -9408217.05147  -7316779.85245  22228871.9454                   22228869.9614
   6346464.65646   4955692.88143  24829051.2974                   24829048.9304
 -14340478.36748 -11161357.33046  21441788.0634                   21441785.8404
 -17304506.78947 -13468837.99345  22686509.7894                   22686508.3204
 -23985367.76248 -18674153.30946  21133952.2504                   21133949.4654
  -2066064.55147  -1595426.64045  23005097.1884                   23005096.1374
 -15582566.68048 -12126703.56846  21998705.6484                   21998706.3714
 -25321490.36347 -19718710.88745  22288464.6024                   22288460.9884
 -11771058.72747  -9156345.15145  22302375.3524                   22302374.6174
 11  8 26  2 34  0.0000000  0  9G26G21G29G12G05G15G25G02G30
  -9515467.19947  -7400351.36245  22208462.9454                   22208461.1094
   6258671.45346   4887282.67043  24812344.8754                   24812341.9454
 -14441659.62148 -11240199.82646  21422533.5394                   21422531.8324
 -17249124.09447 -13425682.65845  22697048.7974                   22697047.2934
 -23954386.52348 -18650012.06846  21139847.5704                   21139845.0664
  -2192131.38347  -1693660.47745  22981107.8524                   22981106.4344
 -15570466.17248 -12117274.58846  22001008.3524                   22001009.4184
 -25309512.40647 -19709377.39745  22290744.0704                   22290739.9494
 -11752867.94147  -9142170.49145  22305837.0474                   22305836.0314
 11  8 26  2 34 30.0000000  0  9G26G21G29G12G05G15G25G02G30
  -9622339.83647  -7483628.69245  22188125.7814                   22188124.0824
   6170858.83246   4818857.29843  24795633.9144                   24795632.2774
 -14542589.01648 -11318846.06146  21403327.2814                   21403325.7544
 -17193554.90247 -13382381.99945  22707623.7814                   22707621.8594
 -23923078.66448 -18625616.32646  21145805.5554                   21145802.8244
  -2318079.97747  -1791802.17945  22957140.3834                   22957138.8284
 -15557917.54348 -12107496.43846  22003396.2974                   22003396.8524
 -25297442.32447 -19699972.12445  22293041.2664                   22293036.5904
 -11734254.52747  -9127666.53345  22309379.5394                   22309378.2974
 11  8 26  2 35  0.0000000  0  9G26G21G29G12G05G15G25G02G30
  -9728833.07047  -7566610.40645  22167860.6024                   22167859.1214
   6083024.14146   4750414.72743  24778920.1724                   24778917.4774
 -14643266.08248 -11397295.67646  21384169.0634                   21384167.2854
 -17137804.30947 -13338940.00045  22718232.2114                   22718230.6414
 -23891448.48848 -18600969.43246  21151824.5004                   21151822.0474
  -2443909.18047  -1889850.85445  22933196.4774                   22933194.0944
 -15544924.95347 -12097372.33746  22005868.2584                   22005869.4104
 -25285281.66847 -19690496.26845  22295354.7814                   22295350.9344
 -11715223.09847  -9112836.83545  22313000.1954                   22312999.3094
 11  8 26  2 35 30.0000000  0  9G26G21G29G12G05G15G25G02G30
  -9834940.71147  -7649291.64945  22147669.1024                   22147667.1214
   5995169.97746   4681957.09443  24762201.7114                   24762200.0554
 -14743685.30548 -11475544.36146  21365060.1174                   21365058.0984
 -17081872.74247 -13295356.97045  22728875.8204                   22728874.3794
 -23859495.76648 -18576071.19146  21157905.0634                   21157902.7464
  -2569612.98047  -1987801.80845  22909275.3914                   22909273.7734
 -15531488.01248 -12086901.99346  22008425.6334                   22008426.2234
 -25273027.21947 -19680947.34945  22297686.7114                   22297682.7544
 -11695773.59047  -9097681.37145  22316701.9534                   22316700.5434
 11  8 26  2 36  0.0000000  0 10G26G21G29G12G05G15G25G02G30G18
  -9940658.14547  -7731668.84545  22127551.7974                   22127550.1214
   5907297.09846   4613484.81643  24745480.1094                   24745477.8754
 -14843843.33648 -11553589.53146  21346000.7034                   21345998.7304
 -17025761.70747 -13251634.10645  22739553.7504                   22739551.5704
 -23827221.84448 -18550922.68046  21164046.4384                   21164044.0354
  -2695187.28547  -2085651.85545  22885379.2194                   22885377.8794
 -15517608.03148 -12076086.43146  22011066.6644                   22011067.1724
 -25260677.29747 -19671324.01545  22300037.3834                   22300033.2384
 -11675907.59047  -9082201.36745  22320481.8444                   22320481.3014
   9274758.63756   7241347.07753  24645759.5634                   24645759.4774
 11  8 26  2 36 30.0000000  0 10G26G21G29G12G05G15G25G02G30G18
 -10045988.93047  -7813744.74245  22107507.8134                   22107506.1094
   5819397.50846   4544991.70343  24728752.7194                   24728750.7814
 -14943744.67648 -11631434.68946  21326990.1564                   21326987.8554
 -16969481.61347 -13207779.49145  22750263.2504                   22750261.3364
 -23794636.02348 -18525531.12346  21170247.2974                   21170245.0634
  -2820636.05547  -2183404.07945  22861507.2664                   22861505.4844
 -15503294.51648 -12064933.04046  22013790.5164                   22013791.0554
 -25248238.80147 -19661631.67745  22302404.3054                   22302400.3754
 -11655634.94147  -9066404.48745  22324339.7344                   22324338.3754
   9153938.23846   7147201.54643  24622768.2664                   24622767.5594
 11  8 26  2 37  0.0000000  0 10G26G21G29G12G05G15G25G02G30G18
 -10150933.87947  -7895520.00545  22087537.4224                   22087535.7974
   5731466.17246   4476473.85243  24712020.1564                   24712018.2664
 -15043391.71948 -11709081.68546  21308027.7114                   21308025.5984
 -16913040.20747 -13163799.18845  22761003.2894                   22761001.7894
 -23761745.35248 -18499902.01446  21176506.3054                   21176503.9694
  -2945960.73847  -2281059.61545  22837658.6094                   22837656.8794
 -15488554.29348 -12053447.14446  22016595.5314                   22016596.3284
 -25235715.83647 -19651873.51945  22304787.2894                   22304782.7384
 -11634963.02047  -9050296.48845  22328273.9694                   22328272.2114
   9033275.23846   7053178.73343  24599806.3054                   24599806.3014
 11  8 26  2 37 30.0000000  0 10G26G21G29G12G05G15G25G02G30G18
 -10255488.53147  -7976991.12645  22067641.6724                   22067639.6844
   5643503.79346   4407931.83243  24695281.3674                   24695279.3954
 -15142781.07448 -11786527.89446  21289114.7734                   21289112.7274
 -16856439.22747 -13119694.52145  22771774.7194                   22771772.7934
 -23728551.23048 -18474036.45846  21182822.8204                   21182820.0744
  -3071157.27747  -2378615.31345  22813834.9614                   22813832.9774
 -15473388.81248 -12041629.88146  22019481.5474                   22019482.0634
 -25223106.91448 -19642048.37845  22307186.7584                   22307182.4844
 -11613893.41047  -9033878.60245  22332283.0314                   22332281.7194
   8912771.77746   6959280.15243  24576875.5864                   24576875.5354
 11  8 26  2 38  0.0000000  0 10G26G21G29G12G05G15G25G02G30G18
 -10359640.31247  -8058148.33945  22047821.9614                   22047819.9734
   5555518.74646   4339372.14243  24678538.2274                   24678536.6844
 -15241900.94148 -11863764.10746  21270252.6414                   21270250.4264
 -16799672.41847 -13075460.64845  22782576.5944                   22782574.9844
 -23695047.22348 -18447929.43346  21189198.2504                   21189195.7234
  -3196213.24247  -2476061.46445  22790037.3674                   22790035.4144
 -15457791.37148 -12029476.01746  22022449.5394                   22022449.9574
 -25210402.39848 -19632148.72545  22309603.9924                   22309600.5664
 -11592419.78947  -9017145.90545  22336369.0944                   22336368.0824
   8792438.64546   6865514.28942  24553975.7194                   24553976.6484
 11  8 26  2 38 30.0000000  0 10G26G21G29G12G05G15G25G02G30G18
 -10463391.05147  -8138993.01845  22028078.9774                   22028076.8164
   5467505.14146   4270790.19943  24661789.8914                   24661787.9454
 -15340754.46948 -11940792.78146  21251441.5474                   21251439.2974
 -16742748.54747 -13031104.40145  22793409.2584                   22793407.0744
 -23661241.24648 -18421587.10146  21195631.5864                   21195628.7734
  -3321130.93447  -2573399.87445  22766265.9774                   22766263.9024
 -15441769.90248 -12016991.74746  22025498.2424                   22025498.7504
 -25197607.44547 -19622178.62345  22312038.8444                   22312035.1914
 -11570550.47747  -9000104.87545  22340531.0554                   22340529.6134
   8672271.47746   6771877.81743  24531108.9064                   24531108.9964
 11  8 26  2 39  0.0000000  0 10G26G21G29G12G05G15G25G02G30G18
 -10566732.35247  -8219518.68845  22008413.8284                   22008411.9304
   5379467.64846   4202189.61243  24645036.7194                   24645035.2114
 -15439334.29748 -12017608.18746  21232681.9924                   21232680.3094
 -16685665.90647 -12986624.42345  22804271.8674                   22804270.1884
 -23627130.77048 -18395007.50346  21202122.6254                   21202119.8054
  -3445902.37947  -2670624.32845  22742522.7974                   22742520.9774
 -15425321.88348 -12004175.10146  22028628.4304                   22028628.8524
 -25184716.37147 -19612133.62945  22314491.7734                   22314487.9414
 -11548283.21147  -8982753.77345  22344768.0704                   22344766.7624
   8552276.41446   6678375.36742  24508274.4064                   24508274.5824
 11  8 26  2 39 30.0000000  0 10G26G21G29G12G05G15G25G02G30G18
 -10669661.03147  -8299722.79745  21988826.9064                   21988824.9184
   5291405.37947   4133569.76743  24628279.6414                   24628277.1214
 -15537638.35548 -12094208.71946  21213975.8134                   21213973.3554
 -16628427.68047 -12942023.22745  22815163.6484                   22815162.2074
 -23592718.25848 -18368192.55246  21208670.7974                   21208668.2194
  -3570524.52747  -2767732.44445  22718807.5164                   22718806.3594
 -15408450.15248 -11991028.29646  22031838.8284                   22031839.3094
 -25171729.58647 -19602014.04045  22316963.0864                   22316959.0474
 -11525621.23847  -8965095.11245  22349080.4304                   22349079.0824
   8432454.83245   6585008.14542  24485473.5704                   24485471.6994
 11  8 26  2 40  0.0000000  0 10G26G21G29G12G05G15G25G02G30G18
 -10772175.44147  -8379604.10145  21969319.1564                   21969317.1764
   5203315.78546   4064928.60843  24611516.6644                   24611514.7424
 -15635665.90648 -12170593.77746  21195321.3284                   21195319.3284
 -16571038.86347 -12897304.66145  22826084.5944                   22826082.7734
 -23558008.36748 -18341145.86246  21215275.8364                   21215273.3674
  -3694996.60947  -2864723.62445  22695121.6174                   22695119.9964
 -15391159.13747 -11977554.75346  22035129.0944                   22035129.8164
 -25158648.28147 -19591820.79045  22319451.9694                   22319448.6684
 -11502569.20747  -8947132.46945  22353467.7814                   22353465.8874
   8312805.70346   6491775.28542  24462704.7664                   24462703.3444
 11  8 26  2 40 30.0000000  0 10G26G21G29G12G05G15G25G02G30G18
 -10874271.82047  -8459159.68545  21949890.5784                   21949889.0514
   5115198.98447   3996266.26843  24594748.1414                   24594745.9064
 -15733414.30148 -12246761.32646  21176720.6174                   21176718.1804
 -16513501.41047 -12852470.30645  22837033.2814                   22837032.0594
 -23523002.91448 -18313868.89846  21221937.1254                   21221934.5704
  -3819314.80147  -2961594.86745  22671464.5704                   22671462.8634
 -15373450.83248 -11963756.08646  22038498.9694                   22038499.6764
 -25145471.60547 -19581553.24145  22321959.6174                   22321955.4304
 -11479129.50047  -8928867.77245  22357927.8984                   22357926.3594
   8193331.28946   6398678.53143  24439969.7274                   24439968.4104
 11  8 26  2 41  0.0000000  0 10G26G21G29G12G05G15G25G02G30G18
 -10975944.71547  -8538385.27345  21930542.7114                   21930541.1804
   5027056.33246   3927583.71743  24577975.3444                   24577973.5594
 -15830879.12548 -12322707.91746  21158173.3674                   21158171.5274
 -16455817.60947 -12807521.91345  22848010.4304                   22848008.7704
 -23487702.58248 -18286362.13946  21228654.5634                   21228652.2194
  -3943474.03147  -3058342.26545  22647837.5784                   22647835.8984
 -15355325.87548 -11949632.72746  22041947.9614                   22041948.7384
 -25132197.19547 -19571209.54745  22324485.7974                   22324481.7114
 -11455303.06247  -8910301.71045  22362461.7114                   22362460.5514
   8074033.89146   6305719.80143  24417267.6024                   24417266.6484
 11  8 26  2 41 30.0000000  0 10G26G21G29G12G05G15G25G02G30G18
 -11077189.52747  -8617277.28945  21911276.4844                   21911274.8914
   4938888.69146   3858881.78844  24561197.5704                   24561195.4344
 -15928056.89848 -12398430.82546  21139681.4384                   21139679.0084
 -16397989.01647 -12762460.66845  22859014.9064                   22859013.4774
 -23452108.24248 -18258626.28346  21235427.9694                   21235425.5554
  -4067470.15247  -3154962.58345  22624242.2114                   22624240.6644
 -15336785.71148 -11935185.82646  22045475.7194                   22045476.8954
 -25118823.59047 -19560788.55345  22327030.7194                   22327027.1024
 -11431091.56247  -8891435.62045  22367069.0164                   22367067.9844
   7954916.65246   6212901.24943  24394600.4614                   24394598.6254
 11  8 26  2 42  0.0000000  0 10G26G21G29G12G05G15G25G02G30G18
 -11178002.16047  -8695832.54845  21892092.4534                   21892090.6334
   4850696.16046   3790160.33743  24544414.4534                   24544413.1564
 -16024943.99248 -12473927.23646  21121244.4304                   21121242.1684
 -16340017.83647 -12717288.33945  22870046.4534                   22870044.7154
 -23416222.28148 -18230663.19046  21242256.8914                   21242254.3524
  -4191299.09447  -3251452.61845  22600678.4534                   22600676.5274
 -15317832.09048 -11920416.75346  22049082.6954                   22049083.6134
 -25105349.68747 -19550289.38945  22329594.7584                   22329590.8364
 -11406497.16047  -8872271.13945  22371749.4064                   22371747.8444
   7835981.20346   6120224.53643  24371967.4224                   24371966.4884
 11  8 26  2 42 30.0000000  0 10G26G21G29G12G05G15G25G02G30G18
 -11278383.28947  -8774051.56145  21872990.5164                   21872988.8714
   4762474.21946   3721416.05443  24527626.5784                   24527624.4804
 -16121543.11348 -12549199.25046  21102862.1094                   21102859.9494
 -16281911.04747 -12672010.34945  22881103.3754                   22881102.0664
 -23380051.12948 -18202477.88146  21249140.1644                   21249137.6454
  -4314961.93047  -3347813.20845  22577146.1564                   22577143.9104
 -15298471.75048 -11905330.75946  22052767.0704                   22052767.4454
 -25091778.91447 -19539714.75145  22332177.6094                   22332173.0824
 -11381526.97747  -8852813.84445  22376500.8834                   22376499.8524
   7717224.60546   6027687.15443  24349368.6174                   24349368.3484
 11  8 26  2 43  0.0000000  0 10G26G21G29G12G05G15G25G02G30G18
 -11378329.71947  -8851931.85345  21853971.1334                   21853969.9304
   4674221.93047   3652648.13944  24510832.7974                   24510831.1174
 -16217851.61348 -12624244.80946  21084535.0634                   21084533.0434
 -16223672.02347 -12626629.29245  22892186.3054                   22892184.5004
 -23343597.45748 -18174072.40746  21256077.0474                   21256074.4264
  -4438455.86347  -3444042.19745  22553645.6094                   22553643.8954
 -15278707.49648 -11889930.02146  22056528.2034                   22056528.4144
 -25078111.27347 -19529064.63045  22334778.3284                   22334773.6994
 -11356184.04747  -8833066.10445  22381323.5474                   22381322.0634
   7598648.00046   5935290.00043  24326803.6954                   24326803.7034
 11  8 26  2 43 30.0000000  0 10G26G21G29G12G05G15G25G02G30G18
 -11477834.36347  -8929467.90545  21835036.1644                   21835034.4304
   4585942.75046   3583859.24144  24494033.6644                   24494032.4304
 -16313863.15648 -12699058.96146  21066264.8524                   21066262.6374
 -16165300.12547 -12581144.71245  22903293.7734                   22903292.7734
 -23306859.83248 -18145445.68646  21263067.9304                   21263065.3404
  -4561773.79347  -3540134.04845  22530179.1334                   22530176.9804
 -15258538.20348 -11874213.68146  22060366.1254                   22060366.6914
 -25064342.10547 -19518335.39845  22337398.2814                   22337394.0084
 -11330467.48447  -8813027.20245  22386217.2664                   22386215.5864
   7480256.41046   5843037.02543  24304274.4534                   24304273.8634
 11  8 26  2 44  0.0000000  0 10G26G21G29G12G05G15G25G02G30G18
 -11576888.89847  -9006653.20245  21816186.9844                   21816185.4384
   4497641.04746   3515052.82644  24477229.7814                   24477228.5784
 -16409570.43748 -12773636.04746  21048052.2664                   21048050.0314
 -16106793.48847 -12535555.15745  22914427.5164                   22914425.7504
 -23269835.65248 -18116595.67246  21270113.5234                   21270110.9414
  -4684907.86347  -3636082.61545  22506747.4614                   22506746.0434
 -15237961.55148 -11858179.90846  22064281.6954                   22064282.3954
 -25050466.28947 -19507523.05645  22340038.7664                   22340034.9144
 -11304375.21547  -8792695.55445  22391182.0784                   22391181.5704
   7362055.73046   5750932.78543  24281781.7504                   24281781.2894
 11  8 26  2 44 30.0000000  0 10G26G21G29G12G05G15G25G02G30G18
 -11675499.86347  -9083492.86945  21797421.8754                   21797419.9144
   4409306.61746   3446220.87543  24460421.0164                   24460418.8014
 -16504981.05148 -12847981.93746  21029896.1174                   21029894.1294
 -16048165.16447 -12489870.75145  22925584.5944                   22925582.6484
 -23232537.75848 -18087532.37846  21277210.8524                   21277208.4184
  -4807865.01247  -3731893.34445  22483349.0634                   22483347.5394
 -15216990.12948 -11841838.52646  22068272.5314                   22068273.1764
 -25036493.57447 -19496635.19645  22342697.8984                   22342693.1804
 -11277920.29747  -8772081.32145  22396216.2034                   22396215.1524
   7244037.08246   5658970.32143  24259323.5394                   24259322.9304
 11  8 26  2 45  0.0000000  0 10G26G21G29G12G05G15G25G02G30G18
 -11773659.72347  -9159981.03245  21778742.4694                   21778740.5084
   4320942.98046   3377366.21243  24443605.8134                   24443603.0824
 -16600088.44948 -12922091.58346  21011797.9534                   21011795.2194
 -15989414.09047 -12444090.71645  22936764.0554                   22936762.2734
 -23194963.99248 -18058254.12146  21284361.2664                   21284358.2194
  -4930637.67647  -3827560.29445  22459986.0164                   22459983.9924
 -15195622.41848 -11825188.34846  22072338.6484                   22072339.1214
 -25022419.38347 -19485668.28245  22345375.7734                   22345372.0394
 -11251101.41847  -8751183.47745  22401319.9224                   22401318.4344
   7126206.07446   5567154.17343  24236900.6564                   24236900.4804
 11  8 26  2 45 30.0000000  0 10G26G21G29G12G05G15G25G02G30G18
 -11871367.61347  -9236117.01645  21760149.1644                   21760146.8834
   4232547.34046   3308486.57743  24426784.3134                   24426782.6454
 -16694892.50048 -12995964.82246  20993757.1564                   20993754.8834
 -15930545.85947 -12398219.37845  22947966.3834                   22947964.8404
 -23157119.46148 -18028764.85946  21291562.5394                   21291560.0634
  -5053225.14547  -3923082.94845  22436659.0234                   22436657.0594
 -15173863.54747 -11808233.37946  22076479.0084                   22076479.7154
 -25008245.53947 -19474623.71345  22348073.0784                   22348069.0514
 -11223923.99247  -8730006.25545  22406491.8134                   22406490.1414
   7008561.31646   5475483.10043  24214514.0784                   24214512.4144
 11  8 26  2 46  0.0000000  0 10G26G21G29G12G05G15G25G02G30G18
 -11968617.25847  -9311895.91745  21741643.2344                   21741641.3094
   4144122.28146   3239584.02843  24409957.1954                   24409955.8874
 -16789388.00448 -13069597.65146  20975775.3914                   20975773.0594
 -15871560.20747 -12352256.55745  22959191.1334                   22959189.1054
 -23119003.78548 -17999064.33446  21298815.8444                   21298813.0594
  -5175621.35247  -4018456.56945  22413367.4144                   22413365.3594
 -15151713.28948 -11790973.42146  22080694.2814                   22080694.8634
 -24993968.58647 -19463498.81545  22350789.5554                   22350785.7934
 -11196388.15647  -8708549.74645  22411731.3284                   22411730.2154
   6891107.07846   5383960.44743  24192162.7424                   24192160.8164
 11  8 26  2 46 30.0000000  0 10G26G21G29G12G05G15G25G02G30G18
 -12065404.84847  -9387314.79045  21723225.4534                   21723222.7544
   4055667.67646   3170658.48543  24393125.1094                   24393122.5314
 -16883572.00447 -13142987.73046  20957852.5394                   20957850.4264
 -15812459.57447 -12306204.12245  22970437.4304                   22970435.8164
 -23080618.47348 -17969153.70946  21306119.9224                   21306117.7974
  -5297822.55147  -4113678.21845  22390113.6884                   22390111.7274
 -15129173.64548 -11773410.05446  22084983.4304                   22084984.1484
 -24979587.45748 -19452292.71045  22353526.5394                   22353522.8674
 -11168496.01247  -8686815.59745  22417039.6484                   22417038.1644
   6773845.03946   5292587.68743  24169847.9614                   24169846.5984
 11  8 26  2 47  0.0000000  0 10G26G21G29G12G05G15G25G02G30G18
 -10586307.84447  -8234771.64345  22004688.0864                   22004686.0434
   5542601.96946   4329308.69143  24676079.2584                   24676077.1454
 -15402023.15247 -11988534.03646  21239782.0234                   21239779.7194
 -14177833.51247 -11032469.54445  23281496.5704                   23281495.2114
 -21466551.60548 -16711439.25146  21613266.9614                   21613264.3754
  -3844405.93747  -2981145.74245  22666689.7274                   22666687.3364
 -13530832.23447 -10527949.19746  22389137.4924                   22389138.0784
 -23389686.40647 -18213408.75945  22656074.5164                   22656070.7704
  -9564835.84047  -7437210.26245  22722205.5234                   22722204.8954
   8232196.02746   6428965.20743  24447363.0314                   24447361.2584
 11  8 26  2 47 30.0000000  0 10G26G21G29G12G05G15G25G02G30G18
 -10682167.28147  -8309467.27245  21986446.5704                   21986444.5164
   5454081.03946   4260331.45243  24659234.5944                   24659231.8554
 -15495582.90647 -12061437.70846  21221977.7814                   21221975.6334
 -14118518.38347 -10986249.99745  23292783.8594                   23292782.3204
 -21427640.91848 -16681119.24146  21620671.3134                   21620668.5354
  -3966214.23047  -3076061.25745  22643510.1884                   22643507.9184
 -13507527.99647 -10509790.05346  22393572.0554                   22393573.0984
 -23375101.82447 -18202044.15145  22658850.1564                   22658845.6484
  -9536246.40647  -7414932.76845  22727646.2504                   22727644.3954
   8115315.82846   6337889.89842  24425120.7814                   24425119.5864
 11  8 26  2 48  0.0000000  0 10G26G21G29G12G05G15G25G02G30G18
 -10777554.28947  -8383794.76545  21968294.7814                   21968293.1294
   5365529.83246   4191330.59443  24642383.0394                   24642381.5944
 -15588823.81247 -12134092.90546  21204234.9534                   21204232.3914
 -14059097.38747 -10939947.94845  23304091.8134                   23304089.4304
 -21388468.00448 -16650594.88846  21628125.3984                   21628122.9844
  -4087817.91847  -3170817.33945  22620369.7974                   22620367.7114
 -13483842.26647 -10491333.64746  22398079.4694                   22398079.5474
 -23360411.33647 -18190596.99245  22661645.4534                   22661641.3794
  -9507309.45347  -7392384.48345  22733152.9064                   22733151.6214
   7998631.58246   6246967.29342  24402917.0394                   24402915.2114
 11  8 26  2 48 30.0000000  0 10G26G21G29G12G05G15G25G02G30G18
 -10872466.28547  -8457752.14646  21950233.7424                   21950231.9964
   5276947.07846   4122305.15143  24625526.3914                   24625525.1214
 -15681743.65247 -12206497.94246  21186552.8834                   21186550.3204
 -13999574.26647 -10893566.30245  23315418.0864                   23315416.1994
 -21349035.73848 -16619868.44746  21635629.3204                   21635626.5164
  -4209214.38347  -3265411.93545  22597268.5474                   22597266.8634
 -13459778.34048 -10472582.53246  22402658.6254                   22402659.4344
 -23345615.18047 -18179067.52845  22664461.3674                   22664457.0004
  -9478028.67647  -7369568.28345  22738724.5864                   22738723.0864
   7882143.73446   6156197.69142  24380749.7974                   24380748.5634
 11  8 26  2 49  0.0000000  0 10G26G21G29G12G05G15G25G02G30G18
 -10966902.83247  -8531339.03945  21932263.3444                   21932261.2234
   5188329.66446   4053252.75943  24608662.7114                   24608661.2464
 -15774342.77347 -12278653.03646  21168931.8914                   21168929.1604
 -13939954.10947 -10847109.06545  23326763.3914                   23326761.5784
 -21309349.26648 -16588943.91646  21643181.5704                   21643179.3634
  -4330403.41047  -3359844.89145  22574206.6724                   22574205.1524
 -13435341.68447 -10453540.98246  22407309.1484                   22407309.5904
 -23330715.60547 -18167457.46445  22667296.2424                   22667291.7544
  -9448409.75846  -7346488.58945  22744360.8594                   22744359.3714
   7765850.70747   6065579.94243  24358619.9844                   24358618.4804
 11  8 26  2 49 30.0000000  0 10G26G21G29G12G05G15G25G02G30G18
 -11060858.64847  -8604551.32445  21914383.9844                   21914382.0824
   5099679.01246   3984174.45343  24591793.1254                   24591791.1024
 -15866617.13747 -12350555.09446  21151372.6564                   21151370.4264
 -13880238.52047 -10800577.45744  23338127.3134                   23338125.2074
 -21269409.02748 -16557821.64846  21650781.9844                   21650779.0044
  -4451379.88747  -3454112.23745  22551185.6954                   22551183.9494
 -13410533.04748 -10434209.57546  22412029.6954                   22412030.2774
 -23315710.18747 -18155764.90945  22670151.6414                   22670147.4454
  -9418453.68047  -7323146.19145  22750061.1484                   22750059.6414
   7649755.40247   5975116.18543  24336527.4614                   24336525.8164
 11  8 26  2 50  0.0000000  0 10G26G21G29G12G05G15G25G02G30G18
 -11154331.27347  -8677387.09945  21896596.5474                   21896594.3134
   5010994.33646   3915069.61743  24574917.1954                   24574914.9884
 -15958564.69547 -12422202.50646  21133875.5784                   21133873.1844
 -13820431.21547 -10753974.38145  23349507.3834                   23349506.2584
 -21229218.18048 -16526504.10146  21658430.1564                   21658427.5704
  -4572141.07447  -3548211.81945  22528205.5164                   22528203.4224
 -13385355.72347 -10414590.88346  22416821.1884                   22416821.3014
 -23300598.92647 -18143989.90845  22673027.4064                   22673023.1644
  -9388164.01247  -7299543.84345  22755824.9614                   22755824.3244
   7533858.57847   5884807.13343  24314473.3914                   24314471.8754
 11  8 26  2 50 30.0000000  0 10G26G21G29G12G05G15G25G02G30G18
 -11247319.14147  -8749845.15945  21878901.2584                   21878899.6604
   4922273.22346   3845936.39343  24558034.2584                   24558031.5274
 -16050185.08247 -12493594.97046  21116440.8524                   21116437.8954
 -13760537.01247 -10707303.61445  23360905.5314                   23360903.3284
 -21188781.05948 -16494994.65246  21666124.7424                   21666122.1054
  -4692685.92647  -3642142.83345  22505266.7814                   22505264.9614
 -13359814.57447 -10394688.68245  22421681.1804                   22421681.1294
 -23285383.81247 -18132133.97745  22675922.6484                   22675918.3834
  -9357545.89547  -7275685.56745  22761651.3444                   22761650.1604
   7418159.28947   5794651.98743  24292456.2034                   24292455.2854
 11  8 26  2 51  0.0000000  0 10G26G21G29G12G05G15G25G02G30G18
 -11339816.76647  -8821921.19545  21861299.6334                   21861297.8284
   4833517.81646   3776776.45543  24541144.1724                   24541142.2234
 -16141473.67647 -12564728.90246  21099068.7504                   21099066.5274
 -13700556.08647 -10660565.25545  23372319.2114                   23372318.1844
 -21148097.67648 -16463293.31746  21673866.6644                   21673864.2384
  -4813008.50047  -3735900.63545  22482370.0634                   22482368.1524
 -13333909.81647 -10374503.15146  22426610.5084                   22426611.4304
 -23270061.10947 -18120194.20945  22678838.2584                   22678833.7814
  -9326599.75447  -7251571.70045  22767540.2584                   22767539.0634
   7302661.14547   5704653.61843  24270477.5004                   24270476.3554
 11  8 26  2 51 30.0000000  0 10G26G21G29G12G05G15G25G02G30G18
 -11431818.66047  -8893610.95045  21843792.2974                   21843790.6094
   4744730.19546   3707591.35943  24524247.7274                   24524245.8714
 -16232425.27047 -12635600.22846  21081761.4534                   21081758.9454
 -13640489.14546 -10613759.87545  23383749.9844                   23383748.6804
 -21107167.89148 -16431399.96246  21681655.4304                   21681653.0044
  -4933103.53547  -3829481.14145  22459516.6954                   22459514.8954
 -13307641.73447 -10354034.51846  22431609.3134                   22431609.9344
 -23254627.81247 -18108168.27145  22681774.9534                   22681770.8834
  -9295326.17247  -7227202.67445  22773491.4224                   22773489.8324
   7187367.60946   5614814.63943  24248538.1804                   24248536.4924
 11  8 26  2 52  0.0000000  0 10G26G21G29G12G05G15G25G02G30G18
 -11523324.28947  -8964913.99345  21826379.2504                   21826377.3874
   4655906.83646   3638378.45643  24507345.8284                   24507343.5554
 -16323040.57047 -12706209.51946  21064517.6884                   21064515.3094
 -13580342.39546 -10566892.27245  23395195.6334                   23395194.1484
 -21065997.21948 -16399318.91346  21689489.7664                   21689487.4344
  -5052970.85247  -3922884.20545  22436706.5394                   22436704.5274
 -13281016.09447 -10333287.27246  22436675.7974                   22436676.6024
 -23239086.94547 -18096058.52745  22684732.3204                   22684728.4734
  -9263731.11347  -7202583.14145  22779503.9304                   22779502.3284
   7072276.95746   5525133.80043  24226636.6644                   24226635.0274
 11  8 26  2 52 30.0000000  0 10G26G21G29G12G05G15G25G02G30G18
 -11614328.38747  -9035826.23745  21809062.0084                   21809060.1844
   4567049.66046   3569139.21443  24490436.6954                   24490434.1684
 -16413315.03148 -12776553.22246  21047338.9694                   21047336.8984
 -13520116.42646 -10519962.99245  23406655.9384                   23406654.9494
 -21024585.56248 -16367050.08246  21697370.1644                   21697367.7464
  -5172605.08647  -4016105.64245  22413941.1254                   22413938.8554
 -13254033.49247 -10312261.86446  22441810.9454                   22441811.2304
 -23223435.63747 -18083862.70445  22687711.2034                   22687706.6454
  -9231815.51647  -7177713.83745  22785577.1954                   22785575.3954
   6957392.10946   5435613.25943  24204774.7584                   24204773.3364
 11  8 26  2 53  0.0000000  0 10G26G21G29G12G05G15G25G02G30G18
 -11704830.20747  -9106347.10745  21791839.8204                   21791837.4024
   4478155.94546   3499871.48843  24473521.4774                   24473518.6564
 -16503248.31648 -12846631.07046  21030225.4304                   21030222.8954
 -13459816.45747 -10472976.02345  23418130.7194                   23418129.4694
 -20982937.74648 -16334597.24446  21705295.8674                   21705292.9384
  -5292005.35547  -4109144.76245  22391219.6484                   22391217.8014
 -13226699.12147 -10290962.35846  22447012.2734                   22447012.5234
 -23207675.89847 -18071582.42745  22690709.9384                   22690705.4774
  -9199584.74647  -7152598.95945  22791710.3834                   22791709.4384
   6842712.02046   5346252.33843  24182951.5394                   24182950.0314
 11  8 26  2 53 30.0000000  0 10G26G21G29G12G05G15G25G02G30G18
 -11794828.32447  -9176475.46845  21774713.8134                   21774711.9104
   4389223.94546   3430573.86043  24456597.8054                   24456595.3484
 -16592839.58248 -12916442.41946  21013176.7584                   21013174.2774
 -13399447.12146 -10425935.01344  23429618.8204                   23429616.7154
 -20941057.77048 -16301963.49046  21713265.2194                   21713262.4694
  -5411170.03547  -4202000.31345  22368543.3674                   22368541.7734
 -13199017.32047 -10269392.11746  22452279.6414                   22452280.6254
 -23191808.83647 -18059218.49045  22693729.5164                   22693725.4734
  -9167043.36747  -7127242.03845  22797903.3134                   22797901.1254
   6728236.30946   5257050.71243  24161167.0314                   24161165.5634
 11  8 26  2 54  0.0000000  0 10G26G21G29G12G05G15G25G02G30G18
 -11884317.12547  -9246206.97346  21757684.7344                   21757682.4654
   4300255.41046   3361247.83343  24439667.4534                   24439664.7974
 -16682084.42248 -12985983.82846  20996193.9844                   20996191.6524
 -13339009.05947 -10378840.44445  23441119.4534                   23441117.8594
 -20898945.77048 -16269148.94246  21721278.7114                   21721276.1294
  -5530093.65247  -4294668.01745  22345913.2584                   22345911.2114
 -13170988.57447 -10247551.52845  22457613.5704                   22457613.8244
 -23175830.89847 -18046768.17245  22696770.0394                   22696766.4494
  -9134192.14147  -7101643.68745  22804154.4924                   22804153.0634
   6613968.37146   5168010.93043  24139423.4774                   24139421.1884
 11  8 26  2 54 30.0000000  0 10G26G21G29G12G05G15G25G02G30G18
 -11973293.21147  -9315538.94945  21740753.2734                   21740751.1804
   4211250.40646   3291893.28843  24422730.3134                   24422727.7584
 -16770980.07048 -13055253.14546  20979277.5944                   20979275.3794
 -13278505.07847 -10331694.52445  23452633.1414                   23452632.1484
 -20856603.78148 -16236155.18346  21729335.8834                   21729333.4844
  -5648772.85247  -4387145.27645  22323328.9534                   22323327.1764
 -13142615.36347 -10225442.54345  22463012.8524                   22463013.2304
 -23159741.29747 -18034230.84945  22699831.5554                   22699827.7584
  -9101033.79747  -7075806.02245  22810464.1954                   22810462.7034
   6499909.30546   5079133.89143  24117718.1414                   24117716.7974
 11  8 26  2 55  0.0000000  0 10G26G21G29G12G05G15G25G02G30G18
 -12061752.65247  -9384468.35346  21723919.3834                   21723917.5704
   4122209.41446   3222510.81143  24405786.5864                   24405783.4454
 -16859523.13347 -13124247.71347  20962428.2734                   20962426.2274
 -13217936.86346 -10284498.52644  23464158.9454                   23464157.7664
 -20814033.18748 -16202983.29846  21737436.5864                   21737434.3094
  -5767203.52047  -4479428.86445  22300792.4614                   22300790.3634
 -13113899.64847 -10203066.66446  22468477.1414                   22468478.0004
 -23143539.04747 -18021605.72845  22702914.9694                   22702910.4304
  -9067570.47747  -7049730.69745  22816832.0164                   22816830.3134
   6386061.23446   4990421.22543  24096053.7974                   24096051.7854
 11  8 26  2 55 30.0000000  0 10G26G21G29G12G05G15G25G02G30G18
 -12149694.41847  -9452994.35845  21707185.1564                   21707183.4414
   4033130.03946   3153098.34943  24388835.3284                   24388832.4224
 -16947713.34448 -13192967.34147  20945646.3284                   20945644.1684
 -13157309.55946 -10237256.51144  23475695.6414                   23475693.7384
 -20771238.54348 -16169636.81946  21745580.3914                   21745577.9924
  -5885384.67247  -4571518.02145  22278303.3204                   22278301.4144
 -13084846.38747 -10180427.75245  22474005.7344                   22474006.1454
 -23127225.86747 -18008894.20145  22706019.3674                   22706014.9884
  -9033807.31647  -7023421.73245  22823256.7974                   22823256.0904
   6272423.17646   4901872.20443  24074428.5634                   24074427.2344
 11  8 26  2 56  0.0000000  0 10G26G21G29G12G05G15G25G02G30G18
 -12237113.74647  -9521113.26645  21690549.6954                   21690547.7464
   3944013.77047   3083657.23143  24371876.8364                   24371874.3954
 -17035546.55948 -13261408.78046  20928932.3674                   20928929.8444
 -13096624.64846 -10189969.58944  23487244.0164                   23487242.3404
 -20728220.59448 -16136116.34446  21753766.3834                   21753763.9924
  -6003311.40647  -4663408.93545  22255862.9224                   22255860.6174
 -13055456.81247 -10157526.79746  22479598.2274                   22479599.0354
 -23110799.26647 -17996094.27045  22709144.7734                   22709141.3834
  -8999745.91847  -6996880.40245  22829738.8204                   22829737.0084
   6158997.49647   4813488.71643  24052844.2584                   24052842.7464
 11  8 26  2 56 30.0000000  0 10G26G21G29G12G05G15G25G02G30G18
 -12324010.69147  -9588825.13945  21674013.8674                   21674011.4804
   3854857.40646   3014184.76043  24354910.7894                   24354908.3954
 -17123023.35948 -13329572.49546  20912285.9534                   20912283.6214
 -13035887.62146 -10142642.08044  23498801.5474                   23498800.4184
 -20684984.37148 -16102425.77946  21761994.2424                   21761991.7974
  -6120983.37547  -4755101.33145  22233470.4224                   22233468.3204
 -13025736.62147 -10134368.19446  22485254.0004                   22485254.5354
 -23094261.57047 -17983207.76045  22712292.1644                   22712288.2234
  -8965392.04747  -6970111.14945  22836275.7424                   22836274.6254
   6045782.44147   4725269.31543  24031299.9694                   24031298.5944
 11  8 26  2 57  0.0000000  0 10G26G21G29G12G05G15G25G02G30G18
 -12410381.24247  -9656126.83445  21657578.0474                   21657575.7854
   3765661.49646   2944681.55343  24337937.5864                   24337934.3634
 -17210140.47348 -13397455.94346  20895708.1094                   20895705.6884
 -12975100.86747 -10095275.78945  23510369.3284                   23510368.0394
 -20641531.31648 -16068566.26246  21770262.7814                   21770260.5984
  -6238396.73847  -4846592.21645  22211127.0554                   22211125.0474
 -12995687.69547 -10110953.45645  22490972.6024                   22490972.7234
 -23077611.36347 -17970233.60345  22715460.5084                   22715456.6294
  -8930747.89147  -6943115.70145  22842868.8984                   22842867.2424
   5932780.19147   4637215.69843  24009796.6024                   24009794.8444
 11  8 26  2 57 30.0000000  0 10G26G21G29G12G05G15G25G02G30G18
 -12496219.69547  -9723013.91245  21641243.5944                   21641240.8204
   3676428.21546   2875149.21443  24320956.8444                   24320953.8594
 -17296893.00448 -13465055.29646  20879199.8524                   20879197.4024
 -12914264.66047 -10047870.99545  23521946.3134                   23521944.7544
 -20597861.39848 -16034537.75546  21778573.1414                   21778570.5004
  -6355545.71147  -4937877.09245  22188834.3524                   22188832.5354
 -12965310.35247 -10087282.81045  22496752.7974                   22496753.6914
 -23060845.66447 -17957169.43845  22718650.9064                   22718646.8874
  -8895813.99247  -6915894.48045  22849516.5314                   22849515.2154
   5819994.07847   4549330.56143  23988333.8284                   23988331.8954
 11  8 26  2 58  0.0000000  0 10G26G21G29G12G05G15G25G02G30G18
 -12581520.38747  -9789481.94846  21625011.1484                   21625008.8524
   3587160.00446   2805589.63743  24303969.3834                   24303967.0984
 -17383275.80947 -13532366.56046  20862761.9064                   20862759.0904
 -12853378.92247 -10000427.59045  23533532.3754                   23533530.4884
 -20553974.04748 -16000339.82146  21786924.6954                   21786921.9304
  -6472424.33647  -5028951.28545  22166593.6644                   22166591.5124
 -12934604.65247 -10063356.28945  22502596.0474                   22502595.7464
 -23043960.85947 -17944012.44545  22721863.8364                   22721860.4384
  -8860590.57047  -6888447.67345  22856219.2034                   22856217.5124
   5707428.04747   4461616.87543  23966913.2194                   23966911.3984
 11  8 26  2 58 30.0000000  0 10G26G21G29G12G05G15G25G02G30G18
 -12666285.24247  -9855532.45346  21608880.7664                   21608878.8914
   3497851.55146   2735998.77743  24286974.6724                   24286971.8984
 -17469291.24647 -13599391.54447  20846393.3834                   20846391.1024
 -12792451.46147  -9952951.69145  23545126.3674                   23545124.6484
 -20509876.60248 -15965978.16746  21795315.8444                   21795313.1724
  -6589034.16447  -5119816.04946  22144403.0704                   22144401.2274
 -12903578.40247 -10039179.98245  22508499.6644                   22508500.8094
 -23026961.43447 -17930766.14245  22725098.9534                   22725094.9614
  -8825085.65647  -6860781.51345  22862975.4224                   22862973.7664
   5595077.96946   4374071.47543  23945533.2584                   23945530.8364
 11  8 26  2 59  0.0000000  0 10G26G21G29G12G05G15G25G02G30G18
 -12750513.51647  -9921164.82846  21592852.8054                   21592850.4774
   3408500.96546   2666375.04143  24269971.9384                   24269969.4614
 -17554938.85947 -13666129.91146  20830095.1174                   20830092.8054
 -12731487.44147  -9905447.28344  23556727.3284                   23556726.5084
 -20465573.46548 -15931456.24246  21803746.5474                   21803743.7854
  -6705374.26647  -5210470.61546  22122264.1174                   22122262.0704
 -12872236.62547 -10014757.81045  22514463.8594                   22514464.4304
 -23009849.04747 -17917431.82345  22728355.4304                   22728351.1094
  -8789304.44547  -6832900.03645  22869784.0864                   22869783.4614
   5482943.09046   4286693.80843  23924194.6254                   23924193.2344
 11  8 26  2 59 30.0000000  0 10G26G21G29G12G05G15G25G02G30G18
 -12834199.91447  -9986374.98646  21576927.7734                   21576925.1884
   3319110.04746   2596719.90543  24252960.6804                   24252958.5744
 -17640214.24648 -13732578.24147  20813867.5474                   20813864.9304
 -12670487.41047  -9857914.85144  23568335.2584                   23568333.9224
 -20421064.54748 -15896773.97046  21812216.5164                   21812213.4734
  -6821439.54347  -5300911.05845  22100177.6174                   22100175.4534
 -12840579.86747  -9990090.20145  22520488.2814                   22520488.8714
 -22992620.59047 -17904007.05845  22731634.0084                   22731629.8204
  -8753247.85547  -6804803.99545  22876645.5864                   22876644.5594
   5371026.25046   4199486.00843  23902897.6254                   23902896.0124
 11  8 26  3  0  0.0000000  0 10G26G21G29G12G05G15G25G02G30G18
 -12917341.32848 -10051160.48046  21561105.9844                   21561103.6604
   3229678.29746   2527032.94044  24235942.4454                   24235940.2504
 -17725115.14148 -13798734.75346  20797711.8834                   20797709.1094
 -12609454.05947  -9810356.44144  23579949.5784                   23579948.2034
 -20376352.01648 -15861933.03146  21820724.9614                   21820722.1254
  -6937226.45747  -5391134.57146  22078144.1884                   22078142.2114
 -12808611.03147  -9965179.41345  22526571.5474                   22526571.8134
 -22975275.68447 -17890491.54145  22734934.4454                   22734930.9844
  -8716918.78147  -6776495.60445  22883558.9694                   22883557.0514
   5259328.69146   4112449.08643  23881641.9454                   23881640.4264
 11  8 26  3  0 30.0000000  0 10G26G21G29G12G05G15G25G02G30G18
 -12999935.04748 -10115519.17845  21545389.5314                   21545387.1884
   3140205.69946   2457314.16344  24218916.1024                   24218914.7194
 -17809638.99248 -13864597.47647  20781627.2584                   20781624.7034
 -12548390.39547  -9762774.37544  23591569.6414                   23591568.3634
 -20331438.32048 -15826935.33446  21829271.7194                   21829268.9534
  -7052732.02347  -5481138.86446  22056164.1644                   22056162.1134
 -12776332.87547  -9940027.60645  22532714.0234                   22532714.5944
 -22957813.46547 -17876884.62645  22738257.6414                   22738253.5634
  -8680320.30947  -6747977.35145  22890523.4384                   22890521.9654
   5147851.59846   4025583.95444  23860428.7894                   23860427.3794
 11  8 26  3  1  0.0000000  0 10G26G21G29G12G05G15G25G02G30G18
 -13081979.90248 -10179450.21046  21529776.6724                   21529774.3754
   3050690.25846   2387561.98043  24201881.8754                   24201880.0824
 -17893785.15648 -13930165.88447  20765614.3754                   20765612.5234
 -12487300.82847  -9715172.18444  23603194.5634                   23603193.1954
 -20286327.66048 -15791784.17146  21837856.3594                   21837853.8754
  -7167954.94147  -5570922.91346  22034237.7274                   22034236.1134
 -12743750.21547  -9914638.49345  22538914.5164                   22538914.6884
 -22940235.37147 -17863187.40945  22741602.6564                   22741598.5434
  -8643457.32847  -6719252.96445  22897538.2114                   22897536.7234
   5036593.63746   3938889.60043  23839256.2734                   23839254.6804
 11  8 26  3  1 30.0000000  0 10G26G21G29G12G05G15G25G02G30G18
 -13163470.15248 -10242949.08446  21514269.5084                   21514267.1174
   2961134.62546   2317778.50543  24184839.7274                   24184837.8594
 -17977548.60548 -13995436.07847  20749675.0634                   20749672.4384
 -12426185.64147  -9667549.97144  23614824.0314                   23614823.1174
 -20241019.48448 -15756479.08846  21846477.7344                   21846475.3244
  -7282889.02347  -5660481.89346  22012366.8594                   22012364.6684
 -12710863.06248  -9889012.14446  22545172.4224                   22545173.3054
 -22922538.04347 -17849397.28645  22744970.1254                   22744966.3164
  -8606330.10246  -6690322.65745  22904602.9064                   22904601.6564
   4925558.84846   3852369.07443  23818128.0784                   23818125.4224
 11  8 26  3  2  0.0000000  0 10G26G21G29G12G05G15G25G02G30G18
 -13244403.30148 -10306013.84646  21498868.5634                   21498866.2854
   2871538.10946   2247963.13043  24167790.3914                   24167787.8284
 -18060927.18448 -14060406.37846  20733808.6414                   20733806.1644
 -12365047.84447  -9619910.16044  23626458.6414                   23626457.2344
 -20195515.80548 -15721021.69046  21855137.1644                   21855134.2854
  -7397531.52747  -5749813.67346  21990550.9774                   21990548.7584
 -12677674.55948  -9863150.97245  22551488.0314                   22551488.1914
 -22904721.09447 -17835513.95145  22748360.7194                   22748356.7114
  -8568941.94947  -6661189.04845  22911717.9614                   22911716.7974
   4814747.89546   3766023.01643  23797040.7274                   23797039.5514
 11  8 26  3  2 30.0000000  0 10G26G21G29G12G05G15G25G02G30G18
 -13324779.75848 -10368644.82646  21483573.3444                   21483570.8954
   2781897.76246   2178113.64444  24150732.9774                   24150729.2854
 -18143921.65648 -14125077.36647  20718015.3054                   20718012.9884
 -12303893.55947  -9572257.49444  23638096.1484                   23638094.6644
 -20149822.51248 -15685416.51146  21863832.0554                   21863829.3014
  -7511882.41447  -5838918.21246  21968790.7664                   21968788.1914
 -12644190.81248  -9837059.72545  22557859.9224                   22557860.5594
 -22886786.91047 -17821539.26945  22751773.3364                   22751769.1804
  -8531299.19547  -6631857.05845  22918881.2274                   22918880.2384
   4704158.62547   3679849.64543  23775996.3754                   23775993.7894
 11  8 26  3  3  0.0000000  0 10G26G21G29G12G05G15G25G02G30G18
 -13404593.52748 -10430837.33846  21468385.2194                   21468383.3014
   2692216.16446   2108231.98243  24133666.5704                   24133663.4654
 -18226526.65248 -14189444.87547  20702296.2734                   20702293.3404
 -12242722.48847  -9524591.77844  23649736.8054                   23649735.4024
 -20103938.62548 -15649662.84446  21872563.6094                   21872560.4494
  -7625935.60547  -5927790.79446  21947087.4304                   21947085.2234
 -12610411.78148  -9810738.40645  22564287.8594                   22564288.1054
 -22868732.02047 -17807470.52445  22755209.0474                   22755204.4264
  -8493401.91047  -6602326.70145  22926092.9224                   22926090.9614
   4593794.97346   3593852.14344  23754994.7734                   23754992.9384
 11  8 26  3  3 30.0000000  0 10G26G21G29G12G05G15G25G02G30G18
 -13483842.70748 -10492589.92846  21453304.4454                   21453302.2114
   2602492.14146   2038317.29444  24116592.2504                   24116589.4844
 -18308740.66848 -14253507.71747  20686651.4384                   20686648.7854
 -12181538.26247  -9476915.79944  23661379.6334                   23661377.8984
 -20057867.50848 -15613763.27146  21881330.5004                   21881327.5394
  -7739688.80547  -6016429.61246  21925440.8754                   21925438.2384
 -12576341.22348  -9784189.92245  22570771.3204                   22570772.0274
 -22850556.99247 -17793308.17645  22758667.5944                   22758663.4024
  -8455254.07447  -6572601.11345  22933352.0944                   22933350.8984
   4483656.80946   3508030.29343  23734036.2734                   23734033.1914
 11  8 26  3  4  0.0000000  0 10G26G21G29G12G05G15G25G02G30G18
 -13562525.04748 -10553900.81146  21438331.7664                   21438329.4304
   2512725.02746   1968368.99244  24099510.2424                   24099507.8324
 -18390561.76248 -14317264.39446  20671081.3284                   20671078.7384
 -12120344.19947  -9429232.15444  23673024.5634                   23673022.8594
 -20011611.83648 -15577719.88346  21890132.6174                   21890129.7344
  -7853139.28147  -6104832.54446  21903851.6564                   21903849.5354
 -12541982.27747  -9757416.70945  22577309.5704                   22577309.8914
 -22832261.17247 -17779051.69045  22762149.3674                   22762145.1564
  -8416858.94947  -6542682.83245  22940658.5864                   22940656.3914
   4373744.93046   3422384.75444  23713120.8204                   23713119.2114
 11  8 26  3  4 30.0000000  0 10G26G21G29G12G05G15G25G02G30G18
 -13640640.03148 -10614769.60246  21423467.0704                   21423464.7974
   2422912.17246   1898385.10043  24082419.4924                   24082416.9064
 -18471990.07447 -14380714.99947  20655585.9924                   20655583.3204
 -12059145.30147  -9381544.73244  23684670.1174                   23684668.9494
 -19965175.67648 -15541535.86346  21898969.2974                   21898966.3954
  -7966286.53547  -6192999.17846  21882320.0474                   21882318.1174
 -12507340.36747  -9730423.00745  22583901.7344                   22583902.5594
 -22813846.46547 -17764702.58945  22765653.3054                   22765649.8204
  -8378222.22746  -6512576.31744  22948010.4064                   22948009.1454
   4264057.65646   3336914.29343  23692247.6094                   23692245.1564
 11  8 26  3  5  0.0000000  0 10G26G21G29G12G05G15G25G02G30G18
 -13718180.55148 -10675190.75446  21408711.3594                   21408709.3364
   2333058.16847   1828369.08744  24065320.1484                   24065317.9304
 -18553018.92248 -14443854.34447  20640166.5164                   20640164.0124
 -11997939.84447  -9333852.21944  23696317.1334                   23696315.7584
 -19918557.06248 -15505209.66246  21907840.1724                   21907837.6994
  -8079122.32847  -6280923.13846  21860848.3984                   21860845.8954
 -12472414.00847  -9703207.65745  22590547.7814                   22590548.2074
 -22795307.68447 -17750256.78245  22769181.6094                   22769177.5864
  -8339342.46947  -6482280.40144  22955409.4144                   22955408.0164
   4154600.46946   3251623.04644  23671418.8914                   23671416.9264
 11  8 26  3  5 30.0000000  0 10G26G21G29G12G05G15G25G02G30G18
 -13795146.96548 -10735164.54145  21394065.2894                   21394062.8164
   2243160.03146   1758318.71144  24048213.2584                   24048211.1884
 -18633648.57048 -14506682.61847  20624823.0704                   20624820.4924
 -11936733.76246  -9286159.20644  23707964.2504                   23707963.5944
 -19871761.00448 -15468745.20346  21916745.5704                   21916742.8014
  -8191647.14147  -6368604.77646  21839435.5864                   21839433.4414
 -12437209.02747  -9675775.21145  22597247.1334                   22597247.7624
 -22776647.20347 -17735716.15845  22772732.1884                   22772728.4104
  -8300225.70747  -6451799.80244  22962853.1884                   22962850.5164
   4045371.37946   3166509.55544  23650632.8524                   23650630.4694
 11  8 26  3  6  0.0000000  0 10G26G21G29G12G05G15G25G02G30G18
 -13871533.56648 -10794686.54445  21379529.1644                   21379527.2854
   2153219.80947   1688235.49644  24031098.1724                   24031095.6764
 -18713874.26648 -14569196.13747  20609556.7344                   20609554.2504
 -11875527.12546  -9238465.77344  23719611.1644                   23719610.3164
 -19824787.52748 -15432142.49446  21925684.2584                   21925681.7274
  -8303854.88347  -6456039.33346  21818083.1094                   21818081.3444
 -12401725.64147  -9648125.80945  22603999.2114                   22603999.9774
 -22757861.83647 -17721078.21845  22776306.9064                   22776302.7154
  -8260872.44147  -6421134.93745  22970341.7194                   22970340.2274
   3936373.84446   3081576.52343  23629891.5084                   23629888.6764
 11  8 26  3  6 30.0000000  0 10G26G21G29G12G05G15G25G02G30G18
 -13947340.66448 -10853756.97345  21365103.7504                   21365101.6294
   2063234.69147   1618117.31444  24013974.9924                   24013971.7074
 -18793696.20748 -14631395.03047  20594367.1954                   20594364.3594
 -11814325.22747  -9190776.04444  23731258.1884                   23731256.9574
 -19777641.24648 -15395405.14646  21934655.5474                   21934653.3444
  -8415745.21547  -6543226.55846  21796790.8754                   21796789.0784
 -12365969.43448  -9620263.83145  22610803.4304                   22610804.0164
 -22738953.79747 -17706344.67745  22779905.2734                   22779900.9614
  -8221288.24247  -6390290.11545  22977874.3364                   22977873.3754
   3827606.14146   2996822.55444  23609193.8284                   23609191.2034
 11  8 26  3  7  0.0000000  0 10G26G21G29G12G05G15G25G02G30G18
 -14022565.22748 -10912373.47846  21350789.0704                   21350786.6054
   1973205.31647   1547964.65344  23996842.8594                   23996840.0164
 -18873111.76648 -14693277.26646  20579254.7734                   20579252.4264
 -11753130.75447  -9143092.05544  23742902.6724                   23742901.7464
 -19730324.02048 -15358534.57646  21943659.9844                   21943657.4144
  -8527314.57047  -6630163.67846  21775559.9384                   21775558.2034
 -12329943.06647  -9592191.33145  22617659.0314                   22617659.5434
 -22719921.92647 -17691514.65745  22783526.8134                   22783522.8954
  -8181475.94947  -6359267.54045  22985450.6334                   22985448.3834
   3719069.46946   2912248.63343  23588539.3524                   23588537.3134
 11  8 26  3  7 30.0000000  0 10G26G21G29G12G05G15G25G02G30G18
 -14097206.49248 -10970535.46546  21336585.0004                   21336582.7424
   1883129.27046   1477775.60743  23979701.2664                   23979698.8364
 -18952120.77348 -14754842.69847  20564219.8364                   20564217.7344
 -11691948.07447  -9095417.29344  23754545.9454                   23754544.6844
 -19682840.10947 -15321534.11846  21952695.6254                   21952692.9654
  -8638561.95347  -6716849.91946  21754390.2894                   21754388.0274
 -12293651.52048  -9563912.21045  22624565.3134                   22624566.1524
 -22700767.57847 -17676589.20544  22787172.1094                   22787167.4844
  -8141440.75047  -6328071.28244  22993068.4844                   22993067.1844
   3610762.64146   2827853.78644  23567929.1724                   23567927.7624
 11  8 26  3  8  0.0000000  0 10G26G21G29G12G05G15G25G02G30G18
 -14171259.51248 -11028239.09246  21322493.4454                   21322491.0394
   1793009.09447   1407552.21344  23962552.2274                   23962549.2974
 -19030718.27748 -14816087.49247  20549263.2504                   20549260.5004
 -11630777.61747  -9047752.05144  23766186.6724                   23766184.6484
 -19635188.64147 -15284403.11346  21961763.6334                   21961760.7814
  -8749481.63747  -6803280.79446  21733282.8444                   21733280.8834
 -12257095.00848  -9535426.61745  22631521.4774                   22631522.0044
 -22681487.53547 -17661565.80844  22790840.8984                   22790836.4224
  -8101182.98046  -6296701.58545  23000729.5164                   23000728.2074
   3502689.25046   2743640.85544  23547363.9774                   23547361.6524
 11  8 26  3  8 30.0000000  0 10G26G21G29G12G05G15G25G02G30G18
 -14244720.07048 -11085481.06246  21308514.1804                   21308511.4454
   1702846.32047   1337295.53844  23945394.9924                   23945391.8484
 -19108900.60248 -14877008.76947  20534385.5234                   20534382.8244
 -11569620.68447  -9000097.32344  23777824.1254                   23777822.3164
 -19587370.46947 -15247142.19646  21970863.1954                   21970860.2154
  -8860068.97347  -6889452.72546  21712239.0234                   21712236.7304
 -12220275.21548  -9506735.88445  22638528.4144                   22638528.8984
 -22662080.08247 -17646443.11845  22794533.6024                   22794529.5824
  -8060704.48446  -6265159.90344  23008431.7974                   23008430.7344
   3394851.23446   2659611.30544  23526842.5394                   23526840.4454
 11  8 26  3  9  0.0000000  0 10G26G21G29G12G05G15G25G02G30G18
 -14317591.21948 -11142263.74046  21294647.2034                   21294644.9494
   1612635.10946   1267001.15044  23928228.8364                   23928224.8364
 -19186670.68748 -14937608.82347  20519586.4924                   20519583.8914
 -11508485.45747  -8952459.55744  23789457.8834                   23789456.4454
 -19539393.66447 -15209757.67446  21979993.2734                   21979990.0864
  -8970326.70748  -6975367.80446  21691257.3444                   21691255.3204
 -12183200.44547  -9477846.45845  22645583.3284                   22645584.1804
 -22642549.79347 -17631224.74645  22798250.1884                   22798246.4224
  -8020013.75447  -6233452.85744  23016175.7734                   23016174.3524
   3287244.21546   2575761.77744  23506365.2734                   23506363.9574
 11  8 26  3  9 30.0000000  0 10G26G21G29G12G05G15G25G02G30G18
 -14389865.62548 -11198581.43146  21280893.7114                   21280891.5004
   1522379.83247   1196672.49443  23911053.3204                   23911049.8244
 -19264021.85248 -14997882.43747  20504866.9144                   20504864.2274
 -11447369.94547  -8904837.13244  23801087.3284                   23801086.4534
 -19491255.15248 -15172247.13846  21989153.4694                   21989150.6884
  -9080246.73048  -7061019.72346  21670340.3364                   21670338.1604
 -12145868.96548  -9448757.00545  22652687.0474                   22652688.2894
 -22622891.22747 -17615906.39245  22801990.8834                   22801986.6764
  -7979109.10947  -6201579.07144  23023959.7504                   23023957.9844
   3179873.92246   2492096.69944  23485933.1724                   23485931.1374
 11  8 26  3 10  0.0000000  0 10G26G21G29G12G05G15G25G02G30G18
 -14461542.66448 -11254433.64046  21267254.2424                   21267251.8014
   1432079.22747   1126308.42644  23893868.8524                   23893865.7034
 -19340953.24648 -15057828.95447  20490227.5704                   20490225.2344
 -11386278.61347  -8857233.53744  23812712.5634                   23812711.3244
 -19442959.05947 -15134613.81346  21998344.1254                   21998341.1884
  -9189827.80948  -7146407.53746  21649487.9924                   21649486.0004
 -12108285.46547  -9419471.16745  22659838.9924                   22659839.3554
 -22603105.46546 -17600488.89945  22805755.8054                   22805751.8794
  -7937995.38347  -6169542.44044  23031783.4694                   23031782.0554
   3072739.09446   2408615.08144  23465546.2894                   23465543.8094
 11  8 26  3 10 30.0000000  0 10G26G21G29G12G05G15G25G02G30G18
 -14532618.16048 -11309817.11846  21253729.1024                   21253726.6254
   1341734.16846   1055909.74744  23876677.0704                   23876673.6524
 -19417461.70748 -15117445.91447  20475668.4774                   20475665.8914
 -11325212.41847  -8809649.52444  23824333.0474                   23824332.0234
 -19394506.12547 -15096858.27246  22007563.9064                   22007561.6094
  -9299065.55548  -7231527.82246  21628700.6254                   21628698.3674
 -12070451.40247  -9389990.09045  22667038.3204                   22667039.2814
 -22583190.77347 -17584970.97144  22809546.1414                   22809541.7234
  -7896674.24247  -6137344.16044  23039646.4454                   23039644.5474
   2965842.01246   2325318.77044  23445204.4224                   23445202.6484
 11  8 26  3 11  0.0000000  0 10G26G21G29G12G05G15G25G02G30G18
 -14603093.11348 -11364732.63446  21240318.1644                   21240315.5314
   1251341.49246    985473.97043  23859475.4614                   23859472.4024
 -19493547.79348 -15176733.75747  20461189.6334                   20461186.7344
 -11264177.50847  -8762089.92244  23835948.4144                   23835946.5664
 -19345901.49647 -15058984.54446  22016813.1644                   22016810.6454
  -9407959.90248  -7316380.52846  21607978.3284                   21607976.3874
 -12032373.05548  -9360318.64345  22674285.1254                   22674285.7704
 -22563149.73447 -17569354.58145  22813359.8594                   22813355.5004
  -7855151.98047  -6104989.15644  23047547.7974                   23047546.0084
   2859180.36346   2242205.87544  23424907.6724                   23424904.9734
 11  8 26  3 11 30.0000000  0 10G26G21G29G12G05G15G25G02G30G18
 -13097540.30148 -10191574.56546  21526814.8754                   21526812.6914
   2736326.66446   2142605.37344  24142059.2274                   24142055.5554
 -17993784.49248 -14008087.00947  20746584.9534                   20746582.7384
  -9627756.11746  -7486956.41944  24147348.3134                   24147347.4454
 -17721726.51247 -13793393.62946  22325883.3364                   22325880.6844
  -7941082.00448  -6173358.74946  21887115.9304                   21887113.9924
 -10418632.25447  -8102858.29045  22981369.7504                   22981369.7624
 -20967559.54747 -16326037.56744  23116990.2034                   23116986.6804
  -6238010.71147  -4844879.06244  23355279.5784                   23355278.5634
   4328180.93046   3386881.74543  23704448.7584                   23704447.0744
 11  8 26  3 12  0.0000000  0 10G26G21G29G12G05G15G25G02G30G18
 -13166802.03547 -10245544.72146  21513635.0554                   21513632.7974
   2645843.60947   2072099.19643  24124840.6024                   24124837.4184
 -18069014.55948 -14066707.82847  20732269.3674                   20732266.8714
  -9566786.73847  -7439447.84444  24158950.7194                   24158949.6484
 -17672820.12547 -13755284.75746  22335190.2274                   22335187.1414
  -8049275.80148  -6257665.55846  21866527.2584                   21866525.3874
 -10380069.29748  -8072809.26045  22988707.9774                   22988708.4384
 -20947258.10947 -16310218.26545  23120853.6094                   23120849.7034
  -6196090.69547  -4812214.10244  23363256.7504                   23363255.4224
   4221997.44546   3304141.47444  23684242.7814                   23684240.5904
 11  8 26  3 12 30.0000000  0 10G26G21G29G12G05G15G25G02G30G18
 -13235452.94948 -10299038.93046  21500571.2114                   21500569.1134
   2555315.88346   2001558.16443  24107613.2194                   24107610.8914
 -18143812.66848 -14124992.05647  20718035.6644                   20718032.7234
  -9505853.65247  -7391967.55744  24170546.2424                   24170544.7934
 -17623765.59447 -13717060.44246  22344524.7974                   22344521.6604
  -8157114.01648  -6341695.29846  21846006.3134                   21846004.2584
 -10341267.84448  -8042574.36345  22996091.3914                   22996092.0204
 -20926825.51647 -16294296.78845  23124741.9774                   23124737.4224
  -6153975.80947  -4779397.35644  23371270.6724                   23371269.3594
   4116054.86346   3221588.90244  23664082.6334                   23664080.3324
 11  8 26  3 13  0.0000000  0 10G26G21G29G12G05G15G25G02G30G18
 -13303494.30548 -10352058.13346  21487623.3444                   21487620.7344
   2464739.78146   1930979.47344  24090377.0234                   24090374.0164
 -18218180.10548 -14182940.68847  20703883.7034                   20703881.2814
  -9444963.19547  -7344520.49644  24182133.5864                   24182131.8754
 -17574568.55547 -13678725.07646  22353886.3914                   22353883.6804
  -8264597.43748  -6425448.57046  21825552.9454                   21825550.9844
 -10302234.48847  -8012158.75845  23003519.2274                   23003519.5044
 -20906264.46947 -16278275.21045  23128654.2974                   23128650.6644
  -6111672.77047  -4746433.94344  23379321.2274                   23379319.5744
   4010350.21946   3139221.75844  23643967.3754                   23643965.3094
